<?xml version="1.0" encoding="UTF-8" standalone="no" ?>
<gpx xmlns="http://www.topografix.com/GPX/1/1" xmlns:xsi="http://www.w3.org/2001/XMLSchema-instance" xsi:schemaLocation="http://www.topografix.com/GPX/1/1 http://www.topografix.com/GPX/1/1/gpx.xsd" version="1.1" creator="VisuGPX - https://www.visugpx.com">
  <metadata>
    <name>Saint Andrée - La Pommeraie </name>
  </metadata>
  <trk>
    <name><![CDATA[Saint Andrée - La Pommeraie _1]]></name>
    <trkseg>
      <trkpt lat="46.78247" lon="-0.67708">
        <ele>157.6</ele>
        <time>2020-10-31T09:17:09Z</time>
      </trkpt>
      <trkpt lat="46.78243" lon="-0.67708">
        <ele>157.4</ele>
        <time>2020-10-31T09:17:10Z</time>
      </trkpt>
      <trkpt lat="46.7824" lon="-0.67711">
        <ele>157.3</ele>
        <time>2020-10-31T09:17:11Z</time>
      </trkpt>
      <trkpt lat="46.78233" lon="-0.67718">
        <ele>157.5</ele>
        <time>2020-10-31T09:17:13Z</time>
      </trkpt>
      <trkpt lat="46.78229" lon="-0.67719">
        <ele>157.4</ele>
        <time>2020-10-31T09:17:14Z</time>
      </trkpt>
      <trkpt lat="46.78225" lon="-0.6771">
        <ele>157.4</ele>
        <time>2020-10-31T09:17:16Z</time>
      </trkpt>
      <trkpt lat="46.78224" lon="-0.67699">
        <ele>157.4</ele>
        <time>2020-10-31T09:17:18Z</time>
      </trkpt>
      <trkpt lat="46.78222" lon="-0.67696">
        <ele>157.3</ele>
        <time>2020-10-31T09:17:19Z</time>
      </trkpt>
      <trkpt lat="46.78218" lon="-0.67694">
        <ele>157.3</ele>
        <time>2020-10-31T09:17:20Z</time>
      </trkpt>
      <trkpt lat="46.78211" lon="-0.6769">
        <ele>157.2</ele>
        <time>2020-10-31T09:17:22Z</time>
      </trkpt>
      <trkpt lat="46.78191" lon="-0.67665">
        <ele>156.9</ele>
        <time>2020-10-31T09:17:27Z</time>
      </trkpt>
      <trkpt lat="46.78183" lon="-0.67653">
        <ele>156.7</ele>
        <time>2020-10-31T09:17:29Z</time>
      </trkpt>
      <trkpt lat="46.78177" lon="-0.67649">
        <ele>156.5</ele>
        <time>2020-10-31T09:17:30Z</time>
      </trkpt>
      <trkpt lat="46.78136" lon="-0.67634">
        <ele>155.7</ele>
        <time>2020-10-31T09:17:37Z</time>
      </trkpt>
      <trkpt lat="46.78087" lon="-0.67623">
        <ele>155</ele>
        <time>2020-10-31T09:17:45Z</time>
      </trkpt>
      <trkpt lat="46.78046" lon="-0.67605">
        <ele>154.6</ele>
        <time>2020-10-31T09:17:52Z</time>
      </trkpt>
      <trkpt lat="46.78009" lon="-0.67573">
        <ele>154.2</ele>
        <time>2020-10-31T09:17:59Z</time>
      </trkpt>
      <trkpt lat="46.77968" lon="-0.67524">
        <ele>153.9</ele>
        <time>2020-10-31T09:18:07Z</time>
      </trkpt>
      <trkpt lat="46.77934" lon="-0.67483">
        <ele>154</ele>
        <time>2020-10-31T09:18:14Z</time>
      </trkpt>
      <trkpt lat="46.77895" lon="-0.67436">
        <ele>154.4</ele>
        <time>2020-10-31T09:18:22Z</time>
      </trkpt>
      <trkpt lat="46.77858" lon="-0.6739">
        <ele>155.5</ele>
        <time>2020-10-31T09:18:30Z</time>
      </trkpt>
      <trkpt lat="46.7782" lon="-0.67353">
        <ele>157.2</ele>
        <time>2020-10-31T09:18:38Z</time>
      </trkpt>
      <trkpt lat="46.7778" lon="-0.67317">
        <ele>158.6</ele>
        <time>2020-10-31T09:18:46Z</time>
      </trkpt>
      <trkpt lat="46.77768" lon="-0.67304">
        <ele>158.8</ele>
        <time>2020-10-31T09:18:49Z</time>
      </trkpt>
      <trkpt lat="46.77759" lon="-0.67303">
        <ele>159.4</ele>
        <time>2020-10-31T09:18:51Z</time>
      </trkpt>
      <trkpt lat="46.77752" lon="-0.67313">
        <ele>160</ele>
        <time>2020-10-31T09:18:53Z</time>
      </trkpt>
      <trkpt lat="46.77751" lon="-0.67319">
        <ele>160.3</ele>
        <time>2020-10-31T09:18:54Z</time>
      </trkpt>
      <trkpt lat="46.77749" lon="-0.67326">
        <ele>160.6</ele>
        <time>2020-10-31T09:18:55Z</time>
      </trkpt>
      <trkpt lat="46.77739" lon="-0.67353">
        <ele>161.2</ele>
        <time>2020-10-31T09:18:59Z</time>
      </trkpt>
      <trkpt lat="46.77733" lon="-0.67364">
        <ele>161.3</ele>
        <time>2020-10-31T09:19:01Z</time>
      </trkpt>
      <trkpt lat="46.77725" lon="-0.67373">
        <ele>161.4</ele>
        <time>2020-10-31T09:19:03Z</time>
      </trkpt>
      <trkpt lat="46.77715" lon="-0.67376">
        <ele>161.5</ele>
        <time>2020-10-31T09:19:05Z</time>
      </trkpt>
      <trkpt lat="46.77709" lon="-0.67376">
        <ele>161.6</ele>
        <time>2020-10-31T09:19:06Z</time>
      </trkpt>
      <trkpt lat="46.77704" lon="-0.67375">
        <ele>161.7</ele>
        <time>2020-10-31T09:19:07Z</time>
      </trkpt>
      <trkpt lat="46.77695" lon="-0.67382">
        <ele>162</ele>
        <time>2020-10-31T09:19:09Z</time>
      </trkpt>
      <trkpt lat="46.77683" lon="-0.67416">
        <ele>161.5</ele>
        <time>2020-10-31T09:19:14Z</time>
      </trkpt>
      <trkpt lat="46.77672" lon="-0.67447">
        <ele>160.8</ele>
        <time>2020-10-31T09:19:18Z</time>
      </trkpt>
      <trkpt lat="46.77665" lon="-0.67462">
        <ele>160.6</ele>
        <time>2020-10-31T09:19:20Z</time>
      </trkpt>
      <trkpt lat="46.77655" lon="-0.6749">
        <ele>160.4</ele>
        <time>2020-10-31T09:19:24Z</time>
      </trkpt>
      <trkpt lat="46.7765" lon="-0.67503">
        <ele>160.3</ele>
        <time>2020-10-31T09:19:26Z</time>
      </trkpt>
      <trkpt lat="46.77636" lon="-0.67543">
        <ele>160.1</ele>
        <time>2020-10-31T09:19:32Z</time>
      </trkpt>
      <trkpt lat="46.77612" lon="-0.67591">
        <ele>159.8</ele>
        <time>2020-10-31T09:19:40Z</time>
      </trkpt>
      <trkpt lat="46.77589" lon="-0.67636">
        <ele>160.5</ele>
        <time>2020-10-31T09:19:48Z</time>
      </trkpt>
      <trkpt lat="46.77571" lon="-0.67667">
        <ele>161.1</ele>
        <time>2020-10-31T09:19:54Z</time>
      </trkpt>
      <trkpt lat="46.77551" lon="-0.67701">
        <ele>161.4</ele>
        <time>2020-10-31T09:20:00Z</time>
      </trkpt>
      <trkpt lat="46.77543" lon="-0.67721">
        <ele>161.6</ele>
        <time>2020-10-31T09:20:03Z</time>
      </trkpt>
      <trkpt lat="46.77536" lon="-0.6774">
        <ele>161.6</ele>
        <time>2020-10-31T09:20:06Z</time>
      </trkpt>
      <trkpt lat="46.77527" lon="-0.6778">
        <ele>161.3</ele>
        <time>2020-10-31T09:20:12Z</time>
      </trkpt>
      <trkpt lat="46.77516" lon="-0.67824">
        <ele>161.7</ele>
        <time>2020-10-31T09:20:19Z</time>
      </trkpt>
      <trkpt lat="46.77511" lon="-0.67852">
        <ele>162</ele>
        <time>2020-10-31T09:20:24Z</time>
      </trkpt>
      <trkpt lat="46.77506" lon="-0.67881">
        <ele>162.3</ele>
        <time>2020-10-31T09:20:29Z</time>
      </trkpt>
      <trkpt lat="46.77502" lon="-0.67914">
        <ele>162.5</ele>
        <time>2020-10-31T09:20:35Z</time>
      </trkpt>
      <trkpt lat="46.77497" lon="-0.67948">
        <ele>162.7</ele>
        <time>2020-10-31T09:20:41Z</time>
      </trkpt>
      <trkpt lat="46.77489" lon="-0.67982">
        <ele>162.9</ele>
        <time>2020-10-31T09:20:47Z</time>
      </trkpt>
      <trkpt lat="46.77486" lon="-0.68004">
        <ele>163.1</ele>
        <time>2020-10-31T09:20:51Z</time>
      </trkpt>
      <trkpt lat="46.77486" lon="-0.68029">
        <ele>163.2</ele>
        <time>2020-10-31T09:20:56Z</time>
      </trkpt>
      <trkpt lat="46.77491" lon="-0.68051">
        <ele>163.2</ele>
        <time>2020-10-31T09:21:00Z</time>
      </trkpt>
      <trkpt lat="46.77495" lon="-0.68071">
        <ele>163.1</ele>
        <time>2020-10-31T09:21:04Z</time>
      </trkpt>
      <trkpt lat="46.775" lon="-0.68087">
        <ele>163</ele>
        <time>2020-10-31T09:21:06Z</time>
      </trkpt>
      <trkpt lat="46.77506" lon="-0.68102">
        <ele>162.8</ele>
        <time>2020-10-31T09:21:08Z</time>
      </trkpt>
      <trkpt lat="46.7751" lon="-0.68115">
        <ele>162.6</ele>
        <time>2020-10-31T09:21:10Z</time>
      </trkpt>
      <trkpt lat="46.77515" lon="-0.68129">
        <ele>162.3</ele>
        <time>2020-10-31T09:21:12Z</time>
      </trkpt>
      <trkpt lat="46.7752" lon="-0.68143">
        <ele>162.1</ele>
        <time>2020-10-31T09:21:14Z</time>
      </trkpt>
      <trkpt lat="46.77522" lon="-0.6815">
        <ele>162</ele>
        <time>2020-10-31T09:21:15Z</time>
      </trkpt>
      <trkpt lat="46.77528" lon="-0.68166">
        <ele>161.6</ele>
        <time>2020-10-31T09:21:18Z</time>
      </trkpt>
      <trkpt lat="46.77528" lon="-0.68189">
        <ele>161.2</ele>
        <time>2020-10-31T09:21:21Z</time>
      </trkpt>
      <trkpt lat="46.77527" lon="-0.68197">
        <ele>161</ele>
        <time>2020-10-31T09:21:22Z</time>
      </trkpt>
      <trkpt lat="46.77519" lon="-0.6822">
        <ele>160.9</ele>
        <time>2020-10-31T09:21:26Z</time>
      </trkpt>
      <trkpt lat="46.77504" lon="-0.68246">
        <ele>161.4</ele>
        <time>2020-10-31T09:21:32Z</time>
      </trkpt>
      <trkpt lat="46.77483" lon="-0.68261">
        <ele>161.9</ele>
        <time>2020-10-31T09:21:38Z</time>
      </trkpt>
      <trkpt lat="46.77466" lon="-0.6828">
        <ele>162.6</ele>
        <time>2020-10-31T09:21:44Z</time>
      </trkpt>
      <trkpt lat="46.77447" lon="-0.68306">
        <ele>163.4</ele>
        <time>2020-10-31T09:21:51Z</time>
      </trkpt>
      <trkpt lat="46.77427" lon="-0.68333">
        <ele>163.8</ele>
        <time>2020-10-31T09:21:58Z</time>
      </trkpt>
      <trkpt lat="46.77407" lon="-0.68364">
        <ele>164.4</ele>
        <time>2020-10-31T09:22:06Z</time>
      </trkpt>
      <trkpt lat="46.77391" lon="-0.68391">
        <ele>164.9</ele>
        <time>2020-10-31T09:22:14Z</time>
      </trkpt>
      <trkpt lat="46.77379" lon="-0.68408">
        <ele>165.3</ele>
        <time>2020-10-31T09:22:19Z</time>
      </trkpt>
      <trkpt lat="46.77368" lon="-0.68426">
        <ele>165.6</ele>
        <time>2020-10-31T09:22:25Z</time>
      </trkpt>
      <trkpt lat="46.77355" lon="-0.68451">
        <ele>166.1</ele>
        <time>2020-10-31T09:22:32Z</time>
      </trkpt>
      <trkpt lat="46.77343" lon="-0.68476">
        <ele>166.6</ele>
        <time>2020-10-31T09:22:39Z</time>
      </trkpt>
      <trkpt lat="46.77334" lon="-0.68494">
        <ele>167.3</ele>
        <time>2020-10-31T09:22:45Z</time>
      </trkpt>
      <trkpt lat="46.77326" lon="-0.6851">
        <ele>168.1</ele>
        <time>2020-10-31T09:22:51Z</time>
      </trkpt>
      <trkpt lat="46.77317" lon="-0.68527">
        <ele>168.8</ele>
        <time>2020-10-31T09:22:56Z</time>
      </trkpt>
      <trkpt lat="46.7731" lon="-0.68555">
        <ele>169.4</ele>
        <time>2020-10-31T09:23:03Z</time>
      </trkpt>
      <trkpt lat="46.77303" lon="-0.68589">
        <ele>169.9</ele>
        <time>2020-10-31T09:23:11Z</time>
      </trkpt>
      <trkpt lat="46.77306" lon="-0.68613">
        <ele>169.9</ele>
        <time>2020-10-31T09:23:16Z</time>
      </trkpt>
      <trkpt lat="46.77311" lon="-0.6865">
        <ele>169.7</ele>
        <time>2020-10-31T09:23:23Z</time>
      </trkpt>
      <trkpt lat="46.77318" lon="-0.68691">
        <ele>169.3</ele>
        <time>2020-10-31T09:23:29Z</time>
      </trkpt>
      <trkpt lat="46.77326" lon="-0.68715">
        <ele>169.1</ele>
        <time>2020-10-31T09:23:32Z</time>
      </trkpt>
      <trkpt lat="46.77333" lon="-0.6873">
        <ele>168.9</ele>
        <time>2020-10-31T09:23:34Z</time>
      </trkpt>
      <trkpt lat="46.77353" lon="-0.68776">
        <ele>167.8</ele>
        <time>2020-10-31T09:23:40Z</time>
      </trkpt>
      <trkpt lat="46.77364" lon="-0.68828">
        <ele>166.5</ele>
        <time>2020-10-31T09:23:46Z</time>
      </trkpt>
      <trkpt lat="46.77366" lon="-0.68844">
        <ele>166.2</ele>
        <time>2020-10-31T09:23:48Z</time>
      </trkpt>
      <trkpt lat="46.77367" lon="-0.6886">
        <ele>166</ele>
        <time>2020-10-31T09:23:50Z</time>
      </trkpt>
      <trkpt lat="46.77367" lon="-0.68902">
        <ele>166.1</ele>
        <time>2020-10-31T09:23:55Z</time>
      </trkpt>
      <trkpt lat="46.77368" lon="-0.6891">
        <ele>166.1</ele>
        <time>2020-10-31T09:23:56Z</time>
      </trkpt>
      <trkpt lat="46.7737" lon="-0.68918">
        <ele>166.1</ele>
        <time>2020-10-31T09:23:57Z</time>
      </trkpt>
      <trkpt lat="46.77375" lon="-0.68931">
        <ele>166.3</ele>
        <time>2020-10-31T09:23:59Z</time>
      </trkpt>
      <trkpt lat="46.77379" lon="-0.68935">
        <ele>166.2</ele>
        <time>2020-10-31T09:24:00Z</time>
      </trkpt>
      <trkpt lat="46.77383" lon="-0.68936">
        <ele>166.2</ele>
        <time>2020-10-31T09:24:01Z</time>
      </trkpt>
      <trkpt lat="46.77387" lon="-0.68933">
        <ele>166.1</ele>
        <time>2020-10-31T09:24:02Z</time>
      </trkpt>
      <trkpt lat="46.77391" lon="-0.68928">
        <ele>166.1</ele>
        <time>2020-10-31T09:24:03Z</time>
      </trkpt>
      <trkpt lat="46.77402" lon="-0.68907">
        <ele>166</ele>
        <time>2020-10-31T09:24:07Z</time>
      </trkpt>
      <trkpt lat="46.77408" lon="-0.68894">
        <ele>166.1</ele>
        <time>2020-10-31T09:24:10Z</time>
      </trkpt>
      <trkpt lat="46.77411" lon="-0.6889">
        <ele>166.2</ele>
        <time>2020-10-31T09:24:11Z</time>
      </trkpt>
      <trkpt lat="46.77431" lon="-0.6886">
        <ele>167.6</ele>
        <time>2020-10-31T09:24:18Z</time>
      </trkpt>
      <trkpt lat="46.77448" lon="-0.6884">
        <ele>168.6</ele>
        <time>2020-10-31T09:24:23Z</time>
      </trkpt>
      <trkpt lat="46.77452" lon="-0.68837">
        <ele>168.8</ele>
        <time>2020-10-31T09:24:24Z</time>
      </trkpt>
      <trkpt lat="46.77476" lon="-0.68821">
        <ele>169.7</ele>
        <time>2020-10-31T09:24:30Z</time>
      </trkpt>
      <trkpt lat="46.77509" lon="-0.68801">
        <ele>170.1</ele>
        <time>2020-10-31T09:24:37Z</time>
      </trkpt>
      <trkpt lat="46.77533" lon="-0.68783">
        <ele>169.9</ele>
        <time>2020-10-31T09:24:42Z</time>
      </trkpt>
      <trkpt lat="46.77537" lon="-0.68778">
        <ele>169.7</ele>
        <time>2020-10-31T09:24:43Z</time>
      </trkpt>
      <trkpt lat="46.77541" lon="-0.68773">
        <ele>169.6</ele>
        <time>2020-10-31T09:24:44Z</time>
      </trkpt>
      <trkpt lat="46.77556" lon="-0.68748">
        <ele>169.1</ele>
        <time>2020-10-31T09:24:48Z</time>
      </trkpt>
      <trkpt lat="46.77595" lon="-0.68689">
        <ele>167.1</ele>
        <time>2020-10-31T09:24:57Z</time>
      </trkpt>
      <trkpt lat="46.77609" lon="-0.6867">
        <ele>166.6</ele>
        <time>2020-10-31T09:25:00Z</time>
      </trkpt>
      <trkpt lat="46.77615" lon="-0.68667">
        <ele>166.6</ele>
        <time>2020-10-31T09:25:01Z</time>
      </trkpt>
      <trkpt lat="46.77621" lon="-0.68668">
        <ele>166.8</ele>
        <time>2020-10-31T09:25:02Z</time>
      </trkpt>
      <trkpt lat="46.77627" lon="-0.68672">
        <ele>167</ele>
        <time>2020-10-31T09:25:03Z</time>
      </trkpt>
      <trkpt lat="46.77657" lon="-0.68696">
        <ele>168.2</ele>
        <time>2020-10-31T09:25:09Z</time>
      </trkpt>
      <trkpt lat="46.77667" lon="-0.68701">
        <ele>168.6</ele>
        <time>2020-10-31T09:25:11Z</time>
      </trkpt>
      <trkpt lat="46.77676" lon="-0.68708">
        <ele>169</ele>
        <time>2020-10-31T09:25:13Z</time>
      </trkpt>
      <trkpt lat="46.777" lon="-0.68725">
        <ele>169.9</ele>
        <time>2020-10-31T09:25:18Z</time>
      </trkpt>
      <trkpt lat="46.77705" lon="-0.68726">
        <ele>170</ele>
        <time>2020-10-31T09:25:19Z</time>
      </trkpt>
      <trkpt lat="46.77709" lon="-0.68725">
        <ele>170.2</ele>
        <time>2020-10-31T09:25:20Z</time>
      </trkpt>
      <trkpt lat="46.77722" lon="-0.68719">
        <ele>169.1</ele>
        <time>2020-10-31T09:25:23Z</time>
      </trkpt>
      <trkpt lat="46.77743" lon="-0.6871">
        <ele>167.8</ele>
        <time>2020-10-31T09:25:29Z</time>
      </trkpt>
      <trkpt lat="46.77759" lon="-0.68703">
        <ele>166.8</ele>
        <time>2020-10-31T09:25:33Z</time>
      </trkpt>
      <trkpt lat="46.77783" lon="-0.687">
        <ele>165.6</ele>
        <time>2020-10-31T09:25:38Z</time>
      </trkpt>
      <trkpt lat="46.77794" lon="-0.68707">
        <ele>165.9</ele>
        <time>2020-10-31T09:25:40Z</time>
      </trkpt>
      <trkpt lat="46.77806" lon="-0.68711">
        <ele>166.3</ele>
        <time>2020-10-31T09:25:42Z</time>
      </trkpt>
      <trkpt lat="46.77829" lon="-0.68709">
        <ele>166.9</ele>
        <time>2020-10-31T09:25:46Z</time>
      </trkpt>
      <trkpt lat="46.77843" lon="-0.68711">
        <ele>167.4</ele>
        <time>2020-10-31T09:25:49Z</time>
      </trkpt>
      <trkpt lat="46.77847" lon="-0.68714">
        <ele>167.5</ele>
        <time>2020-10-31T09:25:50Z</time>
      </trkpt>
      <trkpt lat="46.7785" lon="-0.6872">
        <ele>167.6</ele>
        <time>2020-10-31T09:25:51Z</time>
      </trkpt>
      <trkpt lat="46.77854" lon="-0.6873">
        <ele>167.8</ele>
        <time>2020-10-31T09:25:53Z</time>
      </trkpt>
      <trkpt lat="46.77855" lon="-0.68758">
        <ele>168.4</ele>
        <time>2020-10-31T09:25:58Z</time>
      </trkpt>
      <trkpt lat="46.77857" lon="-0.68773">
        <ele>168.7</ele>
        <time>2020-10-31T09:26:01Z</time>
      </trkpt>
      <trkpt lat="46.77856" lon="-0.68779">
        <ele>168.8</ele>
        <time>2020-10-31T09:26:02Z</time>
      </trkpt>
      <trkpt lat="46.77854" lon="-0.68786">
        <ele>168.9</ele>
        <time>2020-10-31T09:26:03Z</time>
      </trkpt>
      <trkpt lat="46.77854" lon="-0.68798">
        <ele>169.2</ele>
        <time>2020-10-31T09:26:05Z</time>
      </trkpt>
      <trkpt lat="46.77855" lon="-0.68804">
        <ele>169.3</ele>
        <time>2020-10-31T09:26:06Z</time>
      </trkpt>
      <trkpt lat="46.77866" lon="-0.68835">
        <ele>170</ele>
        <time>2020-10-31T09:26:12Z</time>
      </trkpt>
      <trkpt lat="46.77882" lon="-0.68864">
        <ele>170.7</ele>
        <time>2020-10-31T09:26:18Z</time>
      </trkpt>
      <trkpt lat="46.77885" lon="-0.68868">
        <ele>170.8</ele>
        <time>2020-10-31T09:26:19Z</time>
      </trkpt>
      <trkpt lat="46.77895" lon="-0.68881">
        <ele>171.2</ele>
        <time>2020-10-31T09:26:22Z</time>
      </trkpt>
      <trkpt lat="46.77906" lon="-0.6889">
        <ele>171.5</ele>
        <time>2020-10-31T09:26:25Z</time>
      </trkpt>
      <trkpt lat="46.7791" lon="-0.68892">
        <ele>171.6</ele>
        <time>2020-10-31T09:26:26Z</time>
      </trkpt>
      <trkpt lat="46.77914" lon="-0.68893">
        <ele>171.8</ele>
        <time>2020-10-31T09:26:27Z</time>
      </trkpt>
      <trkpt lat="46.77922" lon="-0.68892">
        <ele>172</ele>
        <time>2020-10-31T09:26:29Z</time>
      </trkpt>
      <trkpt lat="46.77924" lon="-0.6889">
        <ele>172.1</ele>
        <time>2020-10-31T09:26:30Z</time>
      </trkpt>
      <trkpt lat="46.77931" lon="-0.68869">
        <ele>172.5</ele>
        <time>2020-10-31T09:26:34Z</time>
      </trkpt>
      <trkpt lat="46.77936" lon="-0.68857">
        <ele>172.8</ele>
        <time>2020-10-31T09:26:36Z</time>
      </trkpt>
      <trkpt lat="46.77944" lon="-0.68843">
        <ele>172.5</ele>
        <time>2020-10-31T09:26:39Z</time>
      </trkpt>
      <trkpt lat="46.77946" lon="-0.6884">
        <ele>172.4</ele>
        <time>2020-10-31T09:26:40Z</time>
      </trkpt>
      <trkpt lat="46.77952" lon="-0.68835">
        <ele>172.3</ele>
        <time>2020-10-31T09:26:42Z</time>
      </trkpt>
      <trkpt lat="46.77966" lon="-0.68823">
        <ele>172</ele>
        <time>2020-10-31T09:26:46Z</time>
      </trkpt>
      <trkpt lat="46.7798" lon="-0.68815">
        <ele>171.5</ele>
        <time>2020-10-31T09:26:50Z</time>
      </trkpt>
      <trkpt lat="46.77997" lon="-0.68801">
        <ele>170.7</ele>
        <time>2020-10-31T09:26:55Z</time>
      </trkpt>
      <trkpt lat="46.78016" lon="-0.68793">
        <ele>170</ele>
        <time>2020-10-31T09:27:00Z</time>
      </trkpt>
      <trkpt lat="46.78051" lon="-0.68783">
        <ele>168</ele>
        <time>2020-10-31T09:27:06Z</time>
      </trkpt>
      <trkpt lat="46.78104" lon="-0.68769">
        <ele>166.9</ele>
        <time>2020-10-31T09:27:13Z</time>
      </trkpt>
      <trkpt lat="46.78116" lon="-0.68766">
        <ele>167</ele>
        <time>2020-10-31T09:27:15Z</time>
      </trkpt>
      <trkpt lat="46.78124" lon="-0.68769">
        <ele>167</ele>
        <time>2020-10-31T09:27:17Z</time>
      </trkpt>
      <trkpt lat="46.78128" lon="-0.68779">
        <ele>167</ele>
        <time>2020-10-31T09:27:20Z</time>
      </trkpt>
      <trkpt lat="46.78124" lon="-0.68802">
        <ele>167.4</ele>
        <time>2020-10-31T09:27:24Z</time>
      </trkpt>
      <trkpt lat="46.78119" lon="-0.68839">
        <ele>167.7</ele>
        <time>2020-10-31T09:27:30Z</time>
      </trkpt>
      <trkpt lat="46.78118" lon="-0.6887">
        <ele>168</ele>
        <time>2020-10-31T09:27:35Z</time>
      </trkpt>
      <trkpt lat="46.78119" lon="-0.68923">
        <ele>168.4</ele>
        <time>2020-10-31T09:27:43Z</time>
      </trkpt>
      <trkpt lat="46.78121" lon="-0.68953">
        <ele>168.6</ele>
        <time>2020-10-31T09:27:48Z</time>
      </trkpt>
      <trkpt lat="46.78122" lon="-0.68959">
        <ele>168.6</ele>
        <time>2020-10-31T09:27:49Z</time>
      </trkpt>
      <trkpt lat="46.7813" lon="-0.69001">
        <ele>168.5</ele>
        <time>2020-10-31T09:27:56Z</time>
      </trkpt>
      <trkpt lat="46.78132" lon="-0.69013">
        <ele>168.4</ele>
        <time>2020-10-31T09:27:58Z</time>
      </trkpt>
      <trkpt lat="46.78135" lon="-0.69038">
        <ele>168.2</ele>
        <time>2020-10-31T09:28:02Z</time>
      </trkpt>
      <trkpt lat="46.7814" lon="-0.69072">
        <ele>167.8</ele>
        <time>2020-10-31T09:28:08Z</time>
      </trkpt>
      <trkpt lat="46.78149" lon="-0.69124">
        <ele>168</ele>
        <time>2020-10-31T09:28:17Z</time>
      </trkpt>
      <trkpt lat="46.78151" lon="-0.69161">
        <ele>168.7</ele>
        <time>2020-10-31T09:28:24Z</time>
      </trkpt>
      <trkpt lat="46.78143" lon="-0.69173">
        <ele>169.3</ele>
        <time>2020-10-31T09:28:28Z</time>
      </trkpt>
      <trkpt lat="46.7813" lon="-0.69186">
        <ele>170.6</ele>
        <time>2020-10-31T09:28:34Z</time>
      </trkpt>
      <trkpt lat="46.78116" lon="-0.69198">
        <ele>172.7</ele>
        <time>2020-10-31T09:28:40Z</time>
      </trkpt>
      <trkpt lat="46.78106" lon="-0.6921">
        <ele>174.8</ele>
        <time>2020-10-31T09:28:46Z</time>
      </trkpt>
      <trkpt lat="46.78099" lon="-0.69224">
        <ele>176.5</ele>
        <time>2020-10-31T09:28:52Z</time>
      </trkpt>
      <trkpt lat="46.78096" lon="-0.69227">
        <ele>177</ele>
        <time>2020-10-31T09:28:54Z</time>
      </trkpt>
      <trkpt lat="46.78093" lon="-0.69229">
        <ele>177.5</ele>
        <time>2020-10-31T09:28:56Z</time>
      </trkpt>
      <trkpt lat="46.78085" lon="-0.6924">
        <ele>179.1</ele>
        <time>2020-10-31T09:29:02Z</time>
      </trkpt>
      <trkpt lat="46.78081" lon="-0.69252">
        <ele>180.4</ele>
        <time>2020-10-31T09:29:06Z</time>
      </trkpt>
      <trkpt lat="46.78083" lon="-0.69258">
        <ele>180.9</ele>
        <time>2020-10-31T09:29:08Z</time>
      </trkpt>
      <trkpt lat="46.78087" lon="-0.69276">
        <ele>182.2</ele>
        <time>2020-10-31T09:29:13Z</time>
      </trkpt>
      <trkpt lat="46.78089" lon="-0.69299">
        <ele>183</ele>
        <time>2020-10-31T09:29:19Z</time>
      </trkpt>
      <trkpt lat="46.78088" lon="-0.69327">
        <ele>183</ele>
        <time>2020-10-31T09:29:25Z</time>
      </trkpt>
      <trkpt lat="46.78082" lon="-0.69357">
        <ele>183</ele>
        <time>2020-10-31T09:29:31Z</time>
      </trkpt>
      <trkpt lat="46.78076" lon="-0.69389">
        <ele>183.1</ele>
        <time>2020-10-31T09:29:38Z</time>
      </trkpt>
      <trkpt lat="46.78069" lon="-0.69412">
        <ele>182.8</ele>
        <time>2020-10-31T09:29:43Z</time>
      </trkpt>
      <trkpt lat="46.78068" lon="-0.69417">
        <ele>182.7</ele>
        <time>2020-10-31T09:29:44Z</time>
      </trkpt>
      <trkpt lat="46.78061" lon="-0.6942">
        <ele>182.3</ele>
        <time>2020-10-31T09:29:46Z</time>
      </trkpt>
      <trkpt lat="46.78056" lon="-0.69419">
        <ele>182.2</ele>
        <time>2020-10-31T09:29:47Z</time>
      </trkpt>
      <trkpt lat="46.78044" lon="-0.69409">
        <ele>181.9</ele>
        <time>2020-10-31T09:29:50Z</time>
      </trkpt>
      <trkpt lat="46.78028" lon="-0.6939">
        <ele>181.8</ele>
        <time>2020-10-31T09:29:54Z</time>
      </trkpt>
      <trkpt lat="46.78025" lon="-0.69384">
        <ele>181.8</ele>
        <time>2020-10-31T09:29:55Z</time>
      </trkpt>
      <trkpt lat="46.7801" lon="-0.69358">
        <ele>181.7</ele>
        <time>2020-10-31T09:29:59Z</time>
      </trkpt>
      <trkpt lat="46.78" lon="-0.69349">
        <ele>181.5</ele>
        <time>2020-10-31T09:30:01Z</time>
      </trkpt>
      <trkpt lat="46.77994" lon="-0.69345">
        <ele>181.4</ele>
        <time>2020-10-31T09:30:02Z</time>
      </trkpt>
      <trkpt lat="46.77978" lon="-0.69339">
        <ele>180.9</ele>
        <time>2020-10-31T09:30:05Z</time>
      </trkpt>
      <trkpt lat="46.77967" lon="-0.69339">
        <ele>180.6</ele>
        <time>2020-10-31T09:30:07Z</time>
      </trkpt>
      <trkpt lat="46.77956" lon="-0.69338">
        <ele>180.2</ele>
        <time>2020-10-31T09:30:09Z</time>
      </trkpt>
      <trkpt lat="46.77945" lon="-0.69334">
        <ele>179.9</ele>
        <time>2020-10-31T09:30:11Z</time>
      </trkpt>
      <trkpt lat="46.77936" lon="-0.69329">
        <ele>179.4</ele>
        <time>2020-10-31T09:30:13Z</time>
      </trkpt>
      <trkpt lat="46.77932" lon="-0.69326">
        <ele>179.2</ele>
        <time>2020-10-31T09:30:14Z</time>
      </trkpt>
      <trkpt lat="46.77916" lon="-0.69315">
        <ele>177.7</ele>
        <time>2020-10-31T09:30:18Z</time>
      </trkpt>
      <trkpt lat="46.77907" lon="-0.69309">
        <ele>176.8</ele>
        <time>2020-10-31T09:30:20Z</time>
      </trkpt>
      <trkpt lat="46.77892" lon="-0.693">
        <ele>175.4</ele>
        <time>2020-10-31T09:30:23Z</time>
      </trkpt>
      <trkpt lat="46.77887" lon="-0.69297">
        <ele>175.1</ele>
        <time>2020-10-31T09:30:24Z</time>
      </trkpt>
      <trkpt lat="46.77871" lon="-0.69291">
        <ele>174</ele>
        <time>2020-10-31T09:30:27Z</time>
      </trkpt>
      <trkpt lat="46.77862" lon="-0.6929">
        <ele>173.5</ele>
        <time>2020-10-31T09:30:29Z</time>
      </trkpt>
      <trkpt lat="46.77857" lon="-0.69291">
        <ele>173.3</ele>
        <time>2020-10-31T09:30:30Z</time>
      </trkpt>
      <trkpt lat="46.7783" lon="-0.69298">
        <ele>172.2</ele>
        <time>2020-10-31T09:30:35Z</time>
      </trkpt>
      <trkpt lat="46.7782" lon="-0.69304">
        <ele>171.8</ele>
        <time>2020-10-31T09:30:37Z</time>
      </trkpt>
      <trkpt lat="46.77807" lon="-0.69309">
        <ele>171.3</ele>
        <time>2020-10-31T09:30:39Z</time>
      </trkpt>
      <trkpt lat="46.77796" lon="-0.69308">
        <ele>171.1</ele>
        <time>2020-10-31T09:30:41Z</time>
      </trkpt>
      <trkpt lat="46.77787" lon="-0.69303">
        <ele>171</ele>
        <time>2020-10-31T09:30:43Z</time>
      </trkpt>
      <trkpt lat="46.77779" lon="-0.693">
        <ele>170.9</ele>
        <time>2020-10-31T09:30:45Z</time>
      </trkpt>
      <trkpt lat="46.77765" lon="-0.69298">
        <ele>171</ele>
        <time>2020-10-31T09:30:48Z</time>
      </trkpt>
      <trkpt lat="46.77749" lon="-0.69299">
        <ele>171.4</ele>
        <time>2020-10-31T09:30:52Z</time>
      </trkpt>
      <trkpt lat="46.7773" lon="-0.69299">
        <ele>171.9</ele>
        <time>2020-10-31T09:30:57Z</time>
      </trkpt>
      <trkpt lat="46.77708" lon="-0.693">
        <ele>172.4</ele>
        <time>2020-10-31T09:31:02Z</time>
      </trkpt>
      <trkpt lat="46.7769" lon="-0.69302">
        <ele>172.9</ele>
        <time>2020-10-31T09:31:07Z</time>
      </trkpt>
      <trkpt lat="46.77678" lon="-0.69299">
        <ele>173.4</ele>
        <time>2020-10-31T09:31:11Z</time>
      </trkpt>
      <trkpt lat="46.77666" lon="-0.69298">
        <ele>173.9</ele>
        <time>2020-10-31T09:31:15Z</time>
      </trkpt>
      <trkpt lat="46.77655" lon="-0.69297">
        <ele>174.6</ele>
        <time>2020-10-31T09:31:19Z</time>
      </trkpt>
      <trkpt lat="46.77637" lon="-0.69295">
        <ele>175.4</ele>
        <time>2020-10-31T09:31:23Z</time>
      </trkpt>
      <trkpt lat="46.77627" lon="-0.69304">
        <ele>176.2</ele>
        <time>2020-10-31T09:31:27Z</time>
      </trkpt>
      <trkpt lat="46.77616" lon="-0.69331">
        <ele>177.1</ele>
        <time>2020-10-31T09:31:33Z</time>
      </trkpt>
      <trkpt lat="46.77608" lon="-0.69351">
        <ele>177.7</ele>
        <time>2020-10-31T09:31:37Z</time>
      </trkpt>
      <trkpt lat="46.77592" lon="-0.69389">
        <ele>178.6</ele>
        <time>2020-10-31T09:31:44Z</time>
      </trkpt>
      <trkpt lat="46.77584" lon="-0.69406">
        <ele>179.1</ele>
        <time>2020-10-31T09:31:48Z</time>
      </trkpt>
      <trkpt lat="46.7757" lon="-0.69442">
        <ele>180.3</ele>
        <time>2020-10-31T09:31:55Z</time>
      </trkpt>
      <trkpt lat="46.77562" lon="-0.69463">
        <ele>181.1</ele>
        <time>2020-10-31T09:32:00Z</time>
      </trkpt>
      <trkpt lat="46.77554" lon="-0.69477">
        <ele>181.9</ele>
        <time>2020-10-31T09:32:05Z</time>
      </trkpt>
      <trkpt lat="46.77547" lon="-0.69492">
        <ele>182.8</ele>
        <time>2020-10-31T09:32:11Z</time>
      </trkpt>
      <trkpt lat="46.77541" lon="-0.69509">
        <ele>184</ele>
        <time>2020-10-31T09:32:17Z</time>
      </trkpt>
      <trkpt lat="46.77539" lon="-0.69515">
        <ele>184.5</ele>
        <time>2020-10-31T09:32:19Z</time>
      </trkpt>
      <trkpt lat="46.77536" lon="-0.6952">
        <ele>184.9</ele>
        <time>2020-10-31T09:32:21Z</time>
      </trkpt>
      <trkpt lat="46.77531" lon="-0.69532">
        <ele>186.1</ele>
        <time>2020-10-31T09:32:26Z</time>
      </trkpt>
      <trkpt lat="46.77522" lon="-0.69542">
        <ele>187.4</ele>
        <time>2020-10-31T09:32:30Z</time>
      </trkpt>
      <trkpt lat="46.77509" lon="-0.69548">
        <ele>189.1</ele>
        <time>2020-10-31T09:32:35Z</time>
      </trkpt>
      <trkpt lat="46.77493" lon="-0.69554">
        <ele>190.5</ele>
        <time>2020-10-31T09:32:41Z</time>
      </trkpt>
      <trkpt lat="46.77478" lon="-0.69551">
        <ele>191.2</ele>
        <time>2020-10-31T09:32:46Z</time>
      </trkpt>
      <trkpt lat="46.77459" lon="-0.69543">
        <ele>191.6</ele>
        <time>2020-10-31T09:32:52Z</time>
      </trkpt>
      <trkpt lat="46.77437" lon="-0.69536">
        <ele>191.6</ele>
        <time>2020-10-31T09:32:58Z</time>
      </trkpt>
      <trkpt lat="46.77401" lon="-0.69529">
        <ele>191</ele>
        <time>2020-10-31T09:33:07Z</time>
      </trkpt>
      <trkpt lat="46.77374" lon="-0.69525">
        <ele>190.9</ele>
        <time>2020-10-31T09:33:13Z</time>
      </trkpt>
      <trkpt lat="46.77368" lon="-0.69531">
        <ele>191</ele>
        <time>2020-10-31T09:33:15Z</time>
      </trkpt>
      <trkpt lat="46.77365" lon="-0.69536">
        <ele>191</ele>
        <time>2020-10-31T09:33:16Z</time>
      </trkpt>
      <trkpt lat="46.77362" lon="-0.6954">
        <ele>191</ele>
        <time>2020-10-31T09:33:17Z</time>
      </trkpt>
      <trkpt lat="46.77353" lon="-0.69541">
        <ele>191</ele>
        <time>2020-10-31T09:33:19Z</time>
      </trkpt>
      <trkpt lat="46.77319" lon="-0.69533">
        <ele>189.9</ele>
        <time>2020-10-31T09:33:25Z</time>
      </trkpt>
      <trkpt lat="46.77292" lon="-0.69515">
        <ele>188.2</ele>
        <time>2020-10-31T09:33:29Z</time>
      </trkpt>
      <trkpt lat="46.77284" lon="-0.69512">
        <ele>187.1</ele>
        <time>2020-10-31T09:33:31Z</time>
      </trkpt>
      <trkpt lat="46.77281" lon="-0.69513">
        <ele>186.7</ele>
        <time>2020-10-31T09:33:32Z</time>
      </trkpt>
      <trkpt lat="46.77278" lon="-0.69513">
        <ele>186.3</ele>
        <time>2020-10-31T09:33:33Z</time>
      </trkpt>
      <trkpt lat="46.7727" lon="-0.69512">
        <ele>185.1</ele>
        <time>2020-10-31T09:33:35Z</time>
      </trkpt>
      <trkpt lat="46.77259" lon="-0.6951">
        <ele>183.8</ele>
        <time>2020-10-31T09:33:37Z</time>
      </trkpt>
      <trkpt lat="46.77249" lon="-0.69507">
        <ele>182.6</ele>
        <time>2020-10-31T09:33:39Z</time>
      </trkpt>
      <trkpt lat="46.77234" lon="-0.695">
        <ele>181.6</ele>
        <time>2020-10-31T09:33:42Z</time>
      </trkpt>
      <trkpt lat="46.77226" lon="-0.69491">
        <ele>181.2</ele>
        <time>2020-10-31T09:33:44Z</time>
      </trkpt>
      <trkpt lat="46.77213" lon="-0.69471">
        <ele>181.5</ele>
        <time>2020-10-31T09:33:49Z</time>
      </trkpt>
      <trkpt lat="46.77204" lon="-0.69454">
        <ele>182.7</ele>
        <time>2020-10-31T09:33:54Z</time>
      </trkpt>
      <trkpt lat="46.77199" lon="-0.69435">
        <ele>183.6</ele>
        <time>2020-10-31T09:34:00Z</time>
      </trkpt>
      <trkpt lat="46.77198" lon="-0.69434">
        <ele>183.7</ele>
        <time>2020-10-31T09:34:01Z</time>
      </trkpt>
      <trkpt lat="46.77195" lon="-0.69427">
        <ele>184</ele>
        <time>2020-10-31T09:34:04Z</time>
      </trkpt>
      <trkpt lat="46.77183" lon="-0.69406">
        <ele>185.9</ele>
        <time>2020-10-31T09:34:12Z</time>
      </trkpt>
      <trkpt lat="46.77176" lon="-0.69389">
        <ele>187.4</ele>
        <time>2020-10-31T09:34:18Z</time>
      </trkpt>
      <trkpt lat="46.77159" lon="-0.69382">
        <ele>188.5</ele>
        <time>2020-10-31T09:34:24Z</time>
      </trkpt>
      <trkpt lat="46.77141" lon="-0.69371">
        <ele>189.2</ele>
        <time>2020-10-31T09:34:30Z</time>
      </trkpt>
      <trkpt lat="46.77121" lon="-0.69356">
        <ele>189.4</ele>
        <time>2020-10-31T09:34:37Z</time>
      </trkpt>
      <trkpt lat="46.77103" lon="-0.69343">
        <ele>193.8</ele>
        <time>2020-10-31T09:34:43Z</time>
      </trkpt>
      <trkpt lat="46.77078" lon="-0.69307">
        <ele>194.2</ele>
        <time>2020-10-31T09:34:52Z</time>
      </trkpt>
      <trkpt lat="46.77062" lon="-0.6928">
        <ele>193.8</ele>
        <time>2020-10-31T09:34:58Z</time>
      </trkpt>
      <trkpt lat="46.77063" lon="-0.69257">
        <ele>192.9</ele>
        <time>2020-10-31T09:35:01Z</time>
      </trkpt>
      <trkpt lat="46.77065" lon="-0.69248">
        <ele>192.3</ele>
        <time>2020-10-31T09:35:02Z</time>
      </trkpt>
      <trkpt lat="46.77069" lon="-0.6923">
        <ele>191</ele>
        <time>2020-10-31T09:35:04Z</time>
      </trkpt>
      <trkpt lat="46.77072" lon="-0.69211">
        <ele>189.3</ele>
        <time>2020-10-31T09:35:06Z</time>
      </trkpt>
      <trkpt lat="46.77072" lon="-0.69192">
        <ele>188.3</ele>
        <time>2020-10-31T09:35:08Z</time>
      </trkpt>
      <trkpt lat="46.77069" lon="-0.69173">
        <ele>187.7</ele>
        <time>2020-10-31T09:35:10Z</time>
      </trkpt>
      <trkpt lat="46.77061" lon="-0.69156">
        <ele>187.2</ele>
        <time>2020-10-31T09:35:12Z</time>
      </trkpt>
      <trkpt lat="46.77053" lon="-0.69141">
        <ele>186.8</ele>
        <time>2020-10-31T09:35:14Z</time>
      </trkpt>
      <trkpt lat="46.77026" lon="-0.69115">
        <ele>184.4</ele>
        <time>2020-10-31T09:35:19Z</time>
      </trkpt>
      <trkpt lat="46.77" lon="-0.6909">
        <ele>181.2</ele>
        <time>2020-10-31T09:35:24Z</time>
      </trkpt>
      <trkpt lat="46.76997" lon="-0.69086">
        <ele>180.7</ele>
        <time>2020-10-31T09:35:25Z</time>
      </trkpt>
      <trkpt lat="46.76994" lon="-0.69081">
        <ele>180</ele>
        <time>2020-10-31T09:35:26Z</time>
      </trkpt>
      <trkpt lat="46.76986" lon="-0.69073">
        <ele>179.3</ele>
        <time>2020-10-31T09:35:29Z</time>
      </trkpt>
      <trkpt lat="46.76974" lon="-0.69061">
        <ele>178</ele>
        <time>2020-10-31T09:35:33Z</time>
      </trkpt>
      <trkpt lat="46.76963" lon="-0.69052">
        <ele>176.9</ele>
        <time>2020-10-31T09:35:36Z</time>
      </trkpt>
      <trkpt lat="46.7695" lon="-0.6904">
        <ele>176</ele>
        <time>2020-10-31T09:35:39Z</time>
      </trkpt>
      <trkpt lat="46.76923" lon="-0.69015">
        <ele>174.3</ele>
        <time>2020-10-31T09:35:44Z</time>
      </trkpt>
      <trkpt lat="46.76878" lon="-0.68983">
        <ele>172.3</ele>
        <time>2020-10-31T09:35:51Z</time>
      </trkpt>
      <trkpt lat="46.76837" lon="-0.68968">
        <ele>171</ele>
        <time>2020-10-31T09:35:57Z</time>
      </trkpt>
      <trkpt lat="46.7683" lon="-0.68967">
        <ele>170.9</ele>
        <time>2020-10-31T09:35:58Z</time>
      </trkpt>
      <trkpt lat="46.76805" lon="-0.6897">
        <ele>170.7</ele>
        <time>2020-10-31T09:36:02Z</time>
      </trkpt>
      <trkpt lat="46.768" lon="-0.68972">
        <ele>170.6</ele>
        <time>2020-10-31T09:36:03Z</time>
      </trkpt>
      <trkpt lat="46.76795" lon="-0.68975">
        <ele>170.6</ele>
        <time>2020-10-31T09:36:04Z</time>
      </trkpt>
      <trkpt lat="46.76776" lon="-0.68989">
        <ele>170.3</ele>
        <time>2020-10-31T09:36:08Z</time>
      </trkpt>
      <trkpt lat="46.76747" lon="-0.69009">
        <ele>170</ele>
        <time>2020-10-31T09:36:14Z</time>
      </trkpt>
      <trkpt lat="46.76725" lon="-0.69023">
        <ele>169.5</ele>
        <time>2020-10-31T09:36:19Z</time>
      </trkpt>
      <trkpt lat="46.7672" lon="-0.69027">
        <ele>169.4</ele>
        <time>2020-10-31T09:36:20Z</time>
      </trkpt>
      <trkpt lat="46.76706" lon="-0.69039">
        <ele>169.2</ele>
        <time>2020-10-31T09:36:23Z</time>
      </trkpt>
      <trkpt lat="46.76677" lon="-0.69059">
        <ele>168.3</ele>
        <time>2020-10-31T09:36:29Z</time>
      </trkpt>
      <trkpt lat="46.76669" lon="-0.69068">
        <ele>168</ele>
        <time>2020-10-31T09:36:31Z</time>
      </trkpt>
      <trkpt lat="46.76662" lon="-0.69078">
        <ele>167.8</ele>
        <time>2020-10-31T09:36:33Z</time>
      </trkpt>
      <trkpt lat="46.76652" lon="-0.69099">
        <ele>167.5</ele>
        <time>2020-10-31T09:36:37Z</time>
      </trkpt>
      <trkpt lat="46.76649" lon="-0.69109">
        <ele>167.4</ele>
        <time>2020-10-31T09:36:39Z</time>
      </trkpt>
      <trkpt lat="46.76646" lon="-0.69132">
        <ele>167.6</ele>
        <time>2020-10-31T09:36:43Z</time>
      </trkpt>
      <trkpt lat="46.76643" lon="-0.69143">
        <ele>167.6</ele>
        <time>2020-10-31T09:36:45Z</time>
      </trkpt>
      <trkpt lat="46.76641" lon="-0.69155">
        <ele>167.6</ele>
        <time>2020-10-31T09:36:47Z</time>
      </trkpt>
      <trkpt lat="46.76639" lon="-0.6916">
        <ele>167.5</ele>
        <time>2020-10-31T09:36:48Z</time>
      </trkpt>
      <trkpt lat="46.76628" lon="-0.69179">
        <ele>167.3</ele>
        <time>2020-10-31T09:36:52Z</time>
      </trkpt>
      <trkpt lat="46.76621" lon="-0.69187">
        <ele>167.2</ele>
        <time>2020-10-31T09:36:54Z</time>
      </trkpt>
      <trkpt lat="46.76615" lon="-0.69196">
        <ele>167.2</ele>
        <time>2020-10-31T09:36:56Z</time>
      </trkpt>
      <trkpt lat="46.76606" lon="-0.69221">
        <ele>167.7</ele>
        <time>2020-10-31T09:37:01Z</time>
      </trkpt>
      <trkpt lat="46.76599" lon="-0.69245">
        <ele>168.3</ele>
        <time>2020-10-31T09:37:06Z</time>
      </trkpt>
      <trkpt lat="46.7658" lon="-0.69272">
        <ele>168.6</ele>
        <time>2020-10-31T09:37:13Z</time>
      </trkpt>
      <trkpt lat="46.76567" lon="-0.69283">
        <ele>168.9</ele>
        <time>2020-10-31T09:37:17Z</time>
      </trkpt>
      <trkpt lat="46.76547" lon="-0.69298">
        <ele>169.9</ele>
        <time>2020-10-31T09:37:23Z</time>
      </trkpt>
      <trkpt lat="46.76528" lon="-0.69309">
        <ele>171</ele>
        <time>2020-10-31T09:37:28Z</time>
      </trkpt>
      <trkpt lat="46.76508" lon="-0.69321">
        <ele>171.5</ele>
        <time>2020-10-31T09:37:33Z</time>
      </trkpt>
      <trkpt lat="46.76473" lon="-0.69341">
        <ele>172</ele>
        <time>2020-10-31T09:37:41Z</time>
      </trkpt>
      <trkpt lat="46.76452" lon="-0.69353">
        <ele>171.6</ele>
        <time>2020-10-31T09:37:46Z</time>
      </trkpt>
      <trkpt lat="46.76416" lon="-0.69377">
        <ele>169.8</ele>
        <time>2020-10-31T09:37:54Z</time>
      </trkpt>
      <trkpt lat="46.7639" lon="-0.69395">
        <ele>167.9</ele>
        <time>2020-10-31T09:38:00Z</time>
      </trkpt>
      <trkpt lat="46.76363" lon="-0.69414">
        <ele>167.4</ele>
        <time>2020-10-31T09:38:06Z</time>
      </trkpt>
      <trkpt lat="46.76346" lon="-0.69425">
        <ele>167.6</ele>
        <time>2020-10-31T09:38:10Z</time>
      </trkpt>
      <trkpt lat="46.76337" lon="-0.69428">
        <ele>167.2</ele>
        <time>2020-10-31T09:38:12Z</time>
      </trkpt>
      <trkpt lat="46.76305" lon="-0.69433">
        <ele>166.4</ele>
        <time>2020-10-31T09:38:18Z</time>
      </trkpt>
      <trkpt lat="46.76281" lon="-0.6944">
        <ele>166.3</ele>
        <time>2020-10-31T09:38:22Z</time>
      </trkpt>
      <trkpt lat="46.76269" lon="-0.69441">
        <ele>166.4</ele>
        <time>2020-10-31T09:38:24Z</time>
      </trkpt>
      <trkpt lat="46.76263" lon="-0.6944">
        <ele>166.5</ele>
        <time>2020-10-31T09:38:25Z</time>
      </trkpt>
      <trkpt lat="46.76257" lon="-0.69439">
        <ele>166.6</ele>
        <time>2020-10-31T09:38:26Z</time>
      </trkpt>
      <trkpt lat="46.76246" lon="-0.69442">
        <ele>166.8</ele>
        <time>2020-10-31T09:38:28Z</time>
      </trkpt>
      <trkpt lat="46.76242" lon="-0.69444">
        <ele>167</ele>
        <time>2020-10-31T09:38:29Z</time>
      </trkpt>
      <trkpt lat="46.76223" lon="-0.69455">
        <ele>168</ele>
        <time>2020-10-31T09:38:34Z</time>
      </trkpt>
      <trkpt lat="46.76198" lon="-0.69476">
        <ele>168.8</ele>
        <time>2020-10-31T09:38:42Z</time>
      </trkpt>
      <trkpt lat="46.7618" lon="-0.69491">
        <ele>169.5</ele>
        <time>2020-10-31T09:38:48Z</time>
      </trkpt>
      <trkpt lat="46.76164" lon="-0.69509">
        <ele>170.2</ele>
        <time>2020-10-31T09:38:54Z</time>
      </trkpt>
      <trkpt lat="46.76147" lon="-0.69534">
        <ele>170.6</ele>
        <time>2020-10-31T09:39:01Z</time>
      </trkpt>
      <trkpt lat="46.76131" lon="-0.69562">
        <ele>171</ele>
        <time>2020-10-31T09:39:08Z</time>
      </trkpt>
      <trkpt lat="46.76117" lon="-0.69587">
        <ele>171.1</ele>
        <time>2020-10-31T09:39:14Z</time>
      </trkpt>
      <trkpt lat="46.76104" lon="-0.69609">
        <ele>171.4</ele>
        <time>2020-10-31T09:39:20Z</time>
      </trkpt>
      <trkpt lat="46.76089" lon="-0.69627">
        <ele>171.7</ele>
        <time>2020-10-31T09:39:26Z</time>
      </trkpt>
      <trkpt lat="46.7608" lon="-0.69638">
        <ele>172</ele>
        <time>2020-10-31T09:39:30Z</time>
      </trkpt>
      <trkpt lat="46.76068" lon="-0.69653">
        <ele>172.4</ele>
        <time>2020-10-31T09:39:35Z</time>
      </trkpt>
      <trkpt lat="46.76052" lon="-0.69669">
        <ele>172.9</ele>
        <time>2020-10-31T09:39:41Z</time>
      </trkpt>
      <trkpt lat="46.76035" lon="-0.6969">
        <ele>173.8</ele>
        <time>2020-10-31T09:39:48Z</time>
      </trkpt>
      <trkpt lat="46.76014" lon="-0.69717">
        <ele>175.3</ele>
        <time>2020-10-31T09:39:58Z</time>
      </trkpt>
      <trkpt lat="46.75991" lon="-0.69743">
        <ele>176.8</ele>
        <time>2020-10-31T09:40:08Z</time>
      </trkpt>
      <trkpt lat="46.75978" lon="-0.69758">
        <ele>177.4</ele>
        <time>2020-10-31T09:40:14Z</time>
      </trkpt>
      <trkpt lat="46.75964" lon="-0.69772">
        <ele>178.1</ele>
        <time>2020-10-31T09:40:21Z</time>
      </trkpt>
      <trkpt lat="46.75954" lon="-0.69784">
        <ele>178.6</ele>
        <time>2020-10-31T09:40:27Z</time>
      </trkpt>
      <trkpt lat="46.7594" lon="-0.69796">
        <ele>179.5</ele>
        <time>2020-10-31T09:40:33Z</time>
      </trkpt>
      <trkpt lat="46.7593" lon="-0.69803">
        <ele>180.1</ele>
        <time>2020-10-31T09:40:38Z</time>
      </trkpt>
      <trkpt lat="46.75921" lon="-0.69808">
        <ele>180.4</ele>
        <time>2020-10-31T09:40:43Z</time>
      </trkpt>
      <trkpt lat="46.7591" lon="-0.69816">
        <ele>180.8</ele>
        <time>2020-10-31T09:40:47Z</time>
      </trkpt>
      <trkpt lat="46.75894" lon="-0.69827">
        <ele>180.8</ele>
        <time>2020-10-31T09:40:53Z</time>
      </trkpt>
      <trkpt lat="46.75875" lon="-0.69841">
        <ele>180.9</ele>
        <time>2020-10-31T09:40:58Z</time>
      </trkpt>
      <trkpt lat="46.75865" lon="-0.69844">
        <ele>180.7</ele>
        <time>2020-10-31T09:41:00Z</time>
      </trkpt>
      <trkpt lat="46.75859" lon="-0.69847">
        <ele>180.6</ele>
        <time>2020-10-31T09:41:01Z</time>
      </trkpt>
      <trkpt lat="46.75838" lon="-0.69859">
        <ele>180.2</ele>
        <time>2020-10-31T09:41:04Z</time>
      </trkpt>
      <trkpt lat="46.75825" lon="-0.69867">
        <ele>179.6</ele>
        <time>2020-10-31T09:41:06Z</time>
      </trkpt>
      <trkpt lat="46.75814" lon="-0.69872">
        <ele>178.8</ele>
        <time>2020-10-31T09:41:08Z</time>
      </trkpt>
      <trkpt lat="46.75803" lon="-0.69876">
        <ele>178</ele>
        <time>2020-10-31T09:41:10Z</time>
      </trkpt>
      <trkpt lat="46.75791" lon="-0.69881">
        <ele>177.4</ele>
        <time>2020-10-31T09:41:12Z</time>
      </trkpt>
      <trkpt lat="46.75773" lon="-0.6989">
        <ele>176.5</ele>
        <time>2020-10-31T09:41:15Z</time>
      </trkpt>
      <trkpt lat="46.75747" lon="-0.699">
        <ele>174.8</ele>
        <time>2020-10-31T09:41:19Z</time>
      </trkpt>
      <trkpt lat="46.75716" lon="-0.6992">
        <ele>173</ele>
        <time>2020-10-31T09:41:24Z</time>
      </trkpt>
      <trkpt lat="46.75699" lon="-0.69934">
        <ele>172.1</ele>
        <time>2020-10-31T09:41:27Z</time>
      </trkpt>
      <trkpt lat="46.75687" lon="-0.69941">
        <ele>171.6</ele>
        <time>2020-10-31T09:41:29Z</time>
      </trkpt>
      <trkpt lat="46.75682" lon="-0.69945">
        <ele>171.5</ele>
        <time>2020-10-31T09:41:30Z</time>
      </trkpt>
      <trkpt lat="46.75662" lon="-0.69963">
        <ele>171</ele>
        <time>2020-10-31T09:41:34Z</time>
      </trkpt>
      <trkpt lat="46.75637" lon="-0.69985">
        <ele>171</ele>
        <time>2020-10-31T09:41:39Z</time>
      </trkpt>
      <trkpt lat="46.75608" lon="-0.70017">
        <ele>171.1</ele>
        <time>2020-10-31T09:41:46Z</time>
      </trkpt>
      <trkpt lat="46.7557" lon="-0.70056">
        <ele>171.5</ele>
        <time>2020-10-31T09:41:55Z</time>
      </trkpt>
      <trkpt lat="46.75562" lon="-0.70062">
        <ele>171.7</ele>
        <time>2020-10-31T09:41:57Z</time>
      </trkpt>
      <trkpt lat="46.75553" lon="-0.70069">
        <ele>172.1</ele>
        <time>2020-10-31T09:41:59Z</time>
      </trkpt>
      <trkpt lat="46.75551" lon="-0.70074">
        <ele>172.2</ele>
        <time>2020-10-31T09:42:00Z</time>
      </trkpt>
      <trkpt lat="46.7555" lon="-0.7008">
        <ele>172.4</ele>
        <time>2020-10-31T09:42:01Z</time>
      </trkpt>
      <trkpt lat="46.75552" lon="-0.70085">
        <ele>172.6</ele>
        <time>2020-10-31T09:42:02Z</time>
      </trkpt>
      <trkpt lat="46.75554" lon="-0.7009">
        <ele>172.6</ele>
        <time>2020-10-31T09:42:03Z</time>
      </trkpt>
      <trkpt lat="46.75564" lon="-0.70104">
        <ele>172.9</ele>
        <time>2020-10-31T09:42:06Z</time>
      </trkpt>
      <trkpt lat="46.75567" lon="-0.70109">
        <ele>173</ele>
        <time>2020-10-31T09:42:07Z</time>
      </trkpt>
      <trkpt lat="46.75589" lon="-0.70143">
        <ele>173.2</ele>
        <time>2020-10-31T09:42:14Z</time>
      </trkpt>
      <trkpt lat="46.75604" lon="-0.70163">
        <ele>173.8</ele>
        <time>2020-10-31T09:42:19Z</time>
      </trkpt>
      <trkpt lat="46.7561" lon="-0.70171">
        <ele>174.2</ele>
        <time>2020-10-31T09:42:21Z</time>
      </trkpt>
      <trkpt lat="46.75612" lon="-0.70175">
        <ele>174.4</ele>
        <time>2020-10-31T09:42:22Z</time>
      </trkpt>
      <trkpt lat="46.75615" lon="-0.7018">
        <ele>174.5</ele>
        <time>2020-10-31T09:42:23Z</time>
      </trkpt>
      <trkpt lat="46.75625" lon="-0.70191">
        <ele>174.9</ele>
        <time>2020-10-31T09:42:26Z</time>
      </trkpt>
      <trkpt lat="46.7566" lon="-0.70232">
        <ele>175</ele>
        <time>2020-10-31T09:42:36Z</time>
      </trkpt>
      <trkpt lat="46.75693" lon="-0.70275">
        <ele>174.5</ele>
        <time>2020-10-31T09:42:44Z</time>
      </trkpt>
      <trkpt lat="46.75723" lon="-0.70311">
        <ele>176.2</ele>
        <time>2020-10-31T09:42:51Z</time>
      </trkpt>
      <trkpt lat="46.7574" lon="-0.70332">
        <ele>178.4</ele>
        <time>2020-10-31T09:42:56Z</time>
      </trkpt>
      <trkpt lat="46.75743" lon="-0.70336">
        <ele>178.6</ele>
        <time>2020-10-31T09:42:57Z</time>
      </trkpt>
      <trkpt lat="46.7575" lon="-0.70344">
        <ele>178.7</ele>
        <time>2020-10-31T09:42:59Z</time>
      </trkpt>
      <trkpt lat="46.75762" lon="-0.7036">
        <ele>179.4</ele>
        <time>2020-10-31T09:43:03Z</time>
      </trkpt>
      <trkpt lat="46.75777" lon="-0.70386">
        <ele>180.3</ele>
        <time>2020-10-31T09:43:09Z</time>
      </trkpt>
      <trkpt lat="46.75786" lon="-0.70422">
        <ele>178.7</ele>
        <time>2020-10-31T09:43:16Z</time>
      </trkpt>
      <trkpt lat="46.75793" lon="-0.70451">
        <ele>180.2</ele>
        <time>2020-10-31T09:43:22Z</time>
      </trkpt>
      <trkpt lat="46.75797" lon="-0.70476">
        <ele>181.4</ele>
        <time>2020-10-31T09:43:28Z</time>
      </trkpt>
      <trkpt lat="46.75801" lon="-0.70506">
        <ele>182.9</ele>
        <time>2020-10-31T09:43:35Z</time>
      </trkpt>
      <trkpt lat="46.75805" lon="-0.70525">
        <ele>184.1</ele>
        <time>2020-10-31T09:43:40Z</time>
      </trkpt>
      <trkpt lat="46.75813" lon="-0.70558">
        <ele>185.7</ele>
        <time>2020-10-31T09:43:48Z</time>
      </trkpt>
      <trkpt lat="46.75824" lon="-0.7058">
        <ele>187.1</ele>
        <time>2020-10-31T09:43:54Z</time>
      </trkpt>
      <trkpt lat="46.75834" lon="-0.70596">
        <ele>188.1</ele>
        <time>2020-10-31T09:43:59Z</time>
      </trkpt>
      <trkpt lat="46.75843" lon="-0.70608">
        <ele>188.8</ele>
        <time>2020-10-31T09:44:03Z</time>
      </trkpt>
      <trkpt lat="46.75855" lon="-0.70625">
        <ele>189.8</ele>
        <time>2020-10-31T09:44:08Z</time>
      </trkpt>
      <trkpt lat="46.75863" lon="-0.70638">
        <ele>190.6</ele>
        <time>2020-10-31T09:44:12Z</time>
      </trkpt>
      <trkpt lat="46.75877" lon="-0.70658">
        <ele>191.8</ele>
        <time>2020-10-31T09:44:18Z</time>
      </trkpt>
      <trkpt lat="46.75889" lon="-0.70673">
        <ele>192.8</ele>
        <time>2020-10-31T09:44:23Z</time>
      </trkpt>
      <trkpt lat="46.75907" lon="-0.70688">
        <ele>194.2</ele>
        <time>2020-10-31T09:44:29Z</time>
      </trkpt>
      <trkpt lat="46.75933" lon="-0.707">
        <ele>196.2</ele>
        <time>2020-10-31T09:44:37Z</time>
      </trkpt>
      <trkpt lat="46.75941" lon="-0.70714">
        <ele>197.6</ele>
        <time>2020-10-31T09:44:41Z</time>
      </trkpt>
      <trkpt lat="46.7594" lon="-0.70718">
        <ele>197.7</ele>
        <time>2020-10-31T09:44:42Z</time>
      </trkpt>
      <trkpt lat="46.75934" lon="-0.70725">
        <ele>197.8</ele>
        <time>2020-10-31T09:44:44Z</time>
      </trkpt>
      <trkpt lat="46.75909" lon="-0.7074">
        <ele>198.6</ele>
        <time>2020-10-31T09:44:51Z</time>
      </trkpt>
      <trkpt lat="46.75879" lon="-0.70751">
        <ele>199.6</ele>
        <time>2020-10-31T09:44:59Z</time>
      </trkpt>
      <trkpt lat="46.75871" lon="-0.70751">
        <ele>199.8</ele>
        <time>2020-10-31T09:45:01Z</time>
      </trkpt>
      <trkpt lat="46.75849" lon="-0.70751">
        <ele>199.8</ele>
        <time>2020-10-31T09:45:06Z</time>
      </trkpt>
      <trkpt lat="46.75823" lon="-0.70751">
        <ele>199.6</ele>
        <time>2020-10-31T09:45:12Z</time>
      </trkpt>
      <trkpt lat="46.75815" lon="-0.70753">
        <ele>199.6</ele>
        <time>2020-10-31T09:45:14Z</time>
      </trkpt>
      <trkpt lat="46.75811" lon="-0.70755">
        <ele>199.6</ele>
        <time>2020-10-31T09:45:15Z</time>
      </trkpt>
      <trkpt lat="46.75799" lon="-0.70764">
        <ele>199.6</ele>
        <time>2020-10-31T09:45:18Z</time>
      </trkpt>
      <trkpt lat="46.75796" lon="-0.70768">
        <ele>199.6</ele>
        <time>2020-10-31T09:45:19Z</time>
      </trkpt>
      <trkpt lat="46.75792" lon="-0.70772">
        <ele>199.6</ele>
        <time>2020-10-31T09:45:20Z</time>
      </trkpt>
      <trkpt lat="46.75783" lon="-0.70787">
        <ele>199.6</ele>
        <time>2020-10-31T09:45:23Z</time>
      </trkpt>
      <trkpt lat="46.75778" lon="-0.70798">
        <ele>199.7</ele>
        <time>2020-10-31T09:45:25Z</time>
      </trkpt>
      <trkpt lat="46.75757" lon="-0.70836">
        <ele>200.1</ele>
        <time>2020-10-31T09:45:33Z</time>
      </trkpt>
      <trkpt lat="46.75748" lon="-0.70855">
        <ele>200.2</ele>
        <time>2020-10-31T09:45:38Z</time>
      </trkpt>
      <trkpt lat="46.75733" lon="-0.70887">
        <ele>200.5</ele>
        <time>2020-10-31T09:45:46Z</time>
      </trkpt>
      <trkpt lat="46.75724" lon="-0.70904">
        <ele>200.6</ele>
        <time>2020-10-31T09:45:51Z</time>
      </trkpt>
      <trkpt lat="46.75713" lon="-0.70927">
        <ele>200.7</ele>
        <time>2020-10-31T09:45:57Z</time>
      </trkpt>
      <trkpt lat="46.75714" lon="-0.70941">
        <ele>200.4</ele>
        <time>2020-10-31T09:46:01Z</time>
      </trkpt>
      <trkpt lat="46.75721" lon="-0.70961">
        <ele>199.8</ele>
        <time>2020-10-31T09:46:06Z</time>
      </trkpt>
      <trkpt lat="46.75734" lon="-0.70966">
        <ele>198.9</ele>
        <time>2020-10-31T09:46:10Z</time>
      </trkpt>
      <trkpt lat="46.75749" lon="-0.70965">
        <ele>198.3</ele>
        <time>2020-10-31T09:46:14Z</time>
      </trkpt>
      <trkpt lat="46.75753" lon="-0.70965">
        <ele>198.3</ele>
        <time>2020-10-31T09:46:15Z</time>
      </trkpt>
      <trkpt lat="46.75768" lon="-0.70963">
        <ele>198.2</ele>
        <time>2020-10-31T09:46:19Z</time>
      </trkpt>
      <trkpt lat="46.7578" lon="-0.70962">
        <ele>198.3</ele>
        <time>2020-10-31T09:46:22Z</time>
      </trkpt>
      <trkpt lat="46.75796" lon="-0.70962">
        <ele>198.6</ele>
        <time>2020-10-31T09:46:25Z</time>
      </trkpt>
      <trkpt lat="46.758" lon="-0.70963">
        <ele>198.6</ele>
        <time>2020-10-31T09:46:26Z</time>
      </trkpt>
      <trkpt lat="46.75819" lon="-0.70961">
        <ele>199</ele>
        <time>2020-10-31T09:46:30Z</time>
      </trkpt>
      <trkpt lat="46.75823" lon="-0.7096">
        <ele>199.1</ele>
        <time>2020-10-31T09:46:31Z</time>
      </trkpt>
      <trkpt lat="46.75825" lon="-0.70961">
        <ele>199.2</ele>
        <time>2020-10-31T09:46:33Z</time>
      </trkpt>
      <trkpt lat="46.75842" lon="-0.70962">
        <ele>199.7</ele>
        <time>2020-10-31T09:46:56Z</time>
      </trkpt>
      <trkpt lat="46.75849" lon="-0.7096">
        <ele>199.9</ele>
        <time>2020-10-31T09:46:59Z</time>
      </trkpt>
      <trkpt lat="46.75864" lon="-0.70955">
        <ele>200.5</ele>
        <time>2020-10-31T09:47:04Z</time>
      </trkpt>
      <trkpt lat="46.75878" lon="-0.70948">
        <ele>201</ele>
        <time>2020-10-31T09:47:08Z</time>
      </trkpt>
      <trkpt lat="46.7589" lon="-0.70945">
        <ele>201.4</ele>
        <time>2020-10-31T09:47:12Z</time>
      </trkpt>
      <trkpt lat="46.75898" lon="-0.70945">
        <ele>201.8</ele>
        <time>2020-10-31T09:47:16Z</time>
      </trkpt>
      <trkpt lat="46.75901" lon="-0.70945">
        <ele>201.9</ele>
        <time>2020-10-31T09:47:17Z</time>
      </trkpt>
      <trkpt lat="46.75916" lon="-0.70949">
        <ele>202.6</ele>
        <time>2020-10-31T09:47:22Z</time>
      </trkpt>
      <trkpt lat="46.75919" lon="-0.7095">
        <ele>202.7</ele>
        <time>2020-10-31T09:47:23Z</time>
      </trkpt>
      <trkpt lat="46.75927" lon="-0.70953">
        <ele>203.1</ele>
        <time>2020-10-31T09:47:26Z</time>
      </trkpt>
      <trkpt lat="46.75949" lon="-0.7096">
        <ele>204.4</ele>
        <time>2020-10-31T09:47:31Z</time>
      </trkpt>
      <trkpt lat="46.75968" lon="-0.70967">
        <ele>205.4</ele>
        <time>2020-10-31T09:47:36Z</time>
      </trkpt>
      <trkpt lat="46.75979" lon="-0.70973">
        <ele>205.9</ele>
        <time>2020-10-31T09:47:40Z</time>
      </trkpt>
      <trkpt lat="46.75997" lon="-0.70982">
        <ele>206.5</ele>
        <time>2020-10-31T09:47:46Z</time>
      </trkpt>
      <trkpt lat="46.76015" lon="-0.70992">
        <ele>206.7</ele>
        <time>2020-10-31T09:47:51Z</time>
      </trkpt>
      <trkpt lat="46.7603" lon="-0.71002">
        <ele>206.6</ele>
        <time>2020-10-31T09:47:56Z</time>
      </trkpt>
      <trkpt lat="46.76041" lon="-0.71011">
        <ele>206.5</ele>
        <time>2020-10-31T09:48:00Z</time>
      </trkpt>
      <trkpt lat="46.76052" lon="-0.71022">
        <ele>206.3</ele>
        <time>2020-10-31T09:48:04Z</time>
      </trkpt>
      <trkpt lat="46.76067" lon="-0.71032">
        <ele>206</ele>
        <time>2020-10-31T09:48:08Z</time>
      </trkpt>
      <trkpt lat="46.76087" lon="-0.71044">
        <ele>205.5</ele>
        <time>2020-10-31T09:48:13Z</time>
      </trkpt>
      <trkpt lat="46.76105" lon="-0.71052">
        <ele>205.2</ele>
        <time>2020-10-31T09:48:17Z</time>
      </trkpt>
      <trkpt lat="46.76116" lon="-0.71054">
        <ele>205.1</ele>
        <time>2020-10-31T09:48:19Z</time>
      </trkpt>
      <trkpt lat="46.76126" lon="-0.71055">
        <ele>205.1</ele>
        <time>2020-10-31T09:48:21Z</time>
      </trkpt>
      <trkpt lat="46.76132" lon="-0.71056">
        <ele>205.1</ele>
        <time>2020-10-31T09:48:22Z</time>
      </trkpt>
      <trkpt lat="46.76165" lon="-0.71049">
        <ele>205.6</ele>
        <time>2020-10-31T09:48:29Z</time>
      </trkpt>
      <trkpt lat="46.76185" lon="-0.71043">
        <ele>206.4</ele>
        <time>2020-10-31T09:48:35Z</time>
      </trkpt>
      <trkpt lat="46.76201" lon="-0.71034">
        <ele>206.6</ele>
        <time>2020-10-31T09:48:40Z</time>
      </trkpt>
      <trkpt lat="46.7622" lon="-0.71023">
        <ele>207</ele>
        <time>2020-10-31T09:48:45Z</time>
      </trkpt>
      <trkpt lat="46.76225" lon="-0.71021">
        <ele>207.1</ele>
        <time>2020-10-31T09:48:46Z</time>
      </trkpt>
      <trkpt lat="46.76233" lon="-0.71016">
        <ele>207.4</ele>
        <time>2020-10-31T09:48:48Z</time>
      </trkpt>
      <trkpt lat="46.76237" lon="-0.71014">
        <ele>207.4</ele>
        <time>2020-10-31T09:48:49Z</time>
      </trkpt>
      <trkpt lat="46.76256" lon="-0.71012">
        <ele>207.1</ele>
        <time>2020-10-31T09:48:54Z</time>
      </trkpt>
      <trkpt lat="46.76279" lon="-0.71005">
        <ele>206.2</ele>
        <time>2020-10-31T09:48:59Z</time>
      </trkpt>
      <trkpt lat="46.76284" lon="-0.71003">
        <ele>206</ele>
        <time>2020-10-31T09:49:00Z</time>
      </trkpt>
      <trkpt lat="46.76292" lon="-0.70997">
        <ele>205.7</ele>
        <time>2020-10-31T09:49:02Z</time>
      </trkpt>
      <trkpt lat="46.76296" lon="-0.70995">
        <ele>205.5</ele>
        <time>2020-10-31T09:49:03Z</time>
      </trkpt>
      <trkpt lat="46.76304" lon="-0.7099">
        <ele>205.1</ele>
        <time>2020-10-31T09:49:05Z</time>
      </trkpt>
      <trkpt lat="46.76311" lon="-0.70985">
        <ele>204.7</ele>
        <time>2020-10-31T09:49:07Z</time>
      </trkpt>
      <trkpt lat="46.76327" lon="-0.70974">
        <ele>204</ele>
        <time>2020-10-31T09:49:11Z</time>
      </trkpt>
      <trkpt lat="46.76346" lon="-0.70967">
        <ele>203.5</ele>
        <time>2020-10-31T09:49:15Z</time>
      </trkpt>
      <trkpt lat="46.76361" lon="-0.70964">
        <ele>203.3</ele>
        <time>2020-10-31T09:49:18Z</time>
      </trkpt>
      <trkpt lat="46.76366" lon="-0.70964">
        <ele>203.2</ele>
        <time>2020-10-31T09:49:19Z</time>
      </trkpt>
      <trkpt lat="46.76371" lon="-0.70963">
        <ele>203.3</ele>
        <time>2020-10-31T09:49:20Z</time>
      </trkpt>
      <trkpt lat="46.76387" lon="-0.7096">
        <ele>203.4</ele>
        <time>2020-10-31T09:49:23Z</time>
      </trkpt>
      <trkpt lat="46.76411" lon="-0.7096">
        <ele>203.6</ele>
        <time>2020-10-31T09:49:28Z</time>
      </trkpt>
      <trkpt lat="46.76424" lon="-0.70962">
        <ele>203.6</ele>
        <time>2020-10-31T09:49:31Z</time>
      </trkpt>
      <trkpt lat="46.7645" lon="-0.70968">
        <ele>203.2</ele>
        <time>2020-10-31T09:49:37Z</time>
      </trkpt>
      <trkpt lat="46.76464" lon="-0.70969">
        <ele>203.1</ele>
        <time>2020-10-31T09:49:41Z</time>
      </trkpt>
      <trkpt lat="46.76474" lon="-0.70971">
        <ele>202.9</ele>
        <time>2020-10-31T09:49:43Z</time>
      </trkpt>
      <trkpt lat="46.76487" lon="-0.70971">
        <ele>202.6</ele>
        <time>2020-10-31T09:49:45Z</time>
      </trkpt>
      <trkpt lat="46.76516" lon="-0.70969">
        <ele>201.8</ele>
        <time>2020-10-31T09:49:50Z</time>
      </trkpt>
      <trkpt lat="46.76534" lon="-0.70969">
        <ele>201.5</ele>
        <time>2020-10-31T09:49:53Z</time>
      </trkpt>
      <trkpt lat="46.76549" lon="-0.70967">
        <ele>201.3</ele>
        <time>2020-10-31T09:49:56Z</time>
      </trkpt>
      <trkpt lat="46.76554" lon="-0.70967">
        <ele>201.2</ele>
        <time>2020-10-31T09:49:57Z</time>
      </trkpt>
      <trkpt lat="46.76569" lon="-0.70967">
        <ele>200.9</ele>
        <time>2020-10-31T09:50:00Z</time>
      </trkpt>
      <trkpt lat="46.76574" lon="-0.70966">
        <ele>200.8</ele>
        <time>2020-10-31T09:50:01Z</time>
      </trkpt>
      <trkpt lat="46.76588" lon="-0.70963">
        <ele>200.5</ele>
        <time>2020-10-31T09:50:04Z</time>
      </trkpt>
      <trkpt lat="46.76615" lon="-0.70954">
        <ele>199.8</ele>
        <time>2020-10-31T09:50:10Z</time>
      </trkpt>
      <trkpt lat="46.76632" lon="-0.70943">
        <ele>198.8</ele>
        <time>2020-10-31T09:50:14Z</time>
      </trkpt>
      <trkpt lat="46.76641" lon="-0.70938">
        <ele>198.1</ele>
        <time>2020-10-31T09:50:16Z</time>
      </trkpt>
      <trkpt lat="46.76651" lon="-0.70931">
        <ele>197.2</ele>
        <time>2020-10-31T09:50:18Z</time>
      </trkpt>
      <trkpt lat="46.76669" lon="-0.70918">
        <ele>195.5</ele>
        <time>2020-10-31T09:50:22Z</time>
      </trkpt>
      <trkpt lat="46.76694" lon="-0.70917">
        <ele>193.5</ele>
        <time>2020-10-31T09:50:27Z</time>
      </trkpt>
      <trkpt lat="46.7672" lon="-0.7092">
        <ele>191.5</ele>
        <time>2020-10-31T09:50:31Z</time>
      </trkpt>
      <trkpt lat="46.76733" lon="-0.70922">
        <ele>190.7</ele>
        <time>2020-10-31T09:50:33Z</time>
      </trkpt>
      <trkpt lat="46.76746" lon="-0.70923">
        <ele>190.1</ele>
        <time>2020-10-31T09:50:35Z</time>
      </trkpt>
      <trkpt lat="46.76775" lon="-0.70928">
        <ele>189.1</ele>
        <time>2020-10-31T09:50:39Z</time>
      </trkpt>
      <trkpt lat="46.76787" lon="-0.7093">
        <ele>188.6</ele>
        <time>2020-10-31T09:50:41Z</time>
      </trkpt>
      <trkpt lat="46.76797" lon="-0.70937">
        <ele>188.2</ele>
        <time>2020-10-31T09:50:43Z</time>
      </trkpt>
      <trkpt lat="46.76801" lon="-0.70942">
        <ele>188.1</ele>
        <time>2020-10-31T09:50:44Z</time>
      </trkpt>
      <trkpt lat="46.76819" lon="-0.70965">
        <ele>187.2</ele>
        <time>2020-10-31T09:50:48Z</time>
      </trkpt>
      <trkpt lat="46.76823" lon="-0.70971">
        <ele>186.9</ele>
        <time>2020-10-31T09:50:49Z</time>
      </trkpt>
      <trkpt lat="46.76838" lon="-0.70991">
        <ele>186.3</ele>
        <time>2020-10-31T09:50:52Z</time>
      </trkpt>
      <trkpt lat="46.76871" lon="-0.71032">
        <ele>184.7</ele>
        <time>2020-10-31T09:50:58Z</time>
      </trkpt>
      <trkpt lat="46.76898" lon="-0.71066">
        <ele>183.6</ele>
        <time>2020-10-31T09:51:03Z</time>
      </trkpt>
      <trkpt lat="46.76925" lon="-0.71102">
        <ele>182.6</ele>
        <time>2020-10-31T09:51:08Z</time>
      </trkpt>
      <trkpt lat="46.76942" lon="-0.71121">
        <ele>182.2</ele>
        <time>2020-10-31T09:51:11Z</time>
      </trkpt>
      <trkpt lat="46.76953" lon="-0.71134">
        <ele>182.1</ele>
        <time>2020-10-31T09:51:13Z</time>
      </trkpt>
      <trkpt lat="46.76975" lon="-0.71155">
        <ele>182.2</ele>
        <time>2020-10-31T09:51:17Z</time>
      </trkpt>
      <trkpt lat="46.76998" lon="-0.71166">
        <ele>182.5</ele>
        <time>2020-10-31T09:51:21Z</time>
      </trkpt>
      <trkpt lat="46.77027" lon="-0.71173">
        <ele>183.1</ele>
        <time>2020-10-31T09:51:26Z</time>
      </trkpt>
      <trkpt lat="46.77062" lon="-0.71173">
        <ele>183.3</ele>
        <time>2020-10-31T09:51:32Z</time>
      </trkpt>
      <trkpt lat="46.77099" lon="-0.7117">
        <ele>182</ele>
        <time>2020-10-31T09:51:38Z</time>
      </trkpt>
      <trkpt lat="46.77105" lon="-0.71171">
        <ele>181.7</ele>
        <time>2020-10-31T09:51:39Z</time>
      </trkpt>
      <trkpt lat="46.77124" lon="-0.71175">
        <ele>181.2</ele>
        <time>2020-10-31T09:51:42Z</time>
      </trkpt>
      <trkpt lat="46.77143" lon="-0.71178">
        <ele>180.8</ele>
        <time>2020-10-31T09:51:45Z</time>
      </trkpt>
      <trkpt lat="46.77148" lon="-0.7118">
        <ele>180.7</ele>
        <time>2020-10-31T09:51:46Z</time>
      </trkpt>
      <trkpt lat="46.77171" lon="-0.71191">
        <ele>180.3</ele>
        <time>2020-10-31T09:51:50Z</time>
      </trkpt>
      <trkpt lat="46.77176" lon="-0.71194">
        <ele>180.2</ele>
        <time>2020-10-31T09:51:51Z</time>
      </trkpt>
      <trkpt lat="46.7719" lon="-0.71206">
        <ele>179.8</ele>
        <time>2020-10-31T09:51:55Z</time>
      </trkpt>
      <trkpt lat="46.77192" lon="-0.7121">
        <ele>179.6</ele>
        <time>2020-10-31T09:51:56Z</time>
      </trkpt>
      <trkpt lat="46.77191" lon="-0.71218">
        <ele>179.6</ele>
        <time>2020-10-31T09:51:58Z</time>
      </trkpt>
      <trkpt lat="46.77183" lon="-0.7124">
        <ele>180</ele>
        <time>2020-10-31T09:52:03Z</time>
      </trkpt>
      <trkpt lat="46.77172" lon="-0.7127">
        <ele>180.9</ele>
        <time>2020-10-31T09:52:09Z</time>
      </trkpt>
      <trkpt lat="46.77162" lon="-0.71294">
        <ele>181.8</ele>
        <time>2020-10-31T09:52:14Z</time>
      </trkpt>
      <trkpt lat="46.77154" lon="-0.71311">
        <ele>182.3</ele>
        <time>2020-10-31T09:52:18Z</time>
      </trkpt>
      <trkpt lat="46.77142" lon="-0.71337">
        <ele>183</ele>
        <time>2020-10-31T09:52:23Z</time>
      </trkpt>
      <trkpt lat="46.77129" lon="-0.71359">
        <ele>183.5</ele>
        <time>2020-10-31T09:52:28Z</time>
      </trkpt>
      <trkpt lat="46.77118" lon="-0.71383">
        <ele>184</ele>
        <time>2020-10-31T09:52:33Z</time>
      </trkpt>
      <trkpt lat="46.77109" lon="-0.71407">
        <ele>184</ele>
        <time>2020-10-31T09:52:38Z</time>
      </trkpt>
      <trkpt lat="46.77098" lon="-0.71435">
        <ele>184.1</ele>
        <time>2020-10-31T09:52:44Z</time>
      </trkpt>
      <trkpt lat="46.77089" lon="-0.7146">
        <ele>184.3</ele>
        <time>2020-10-31T09:52:49Z</time>
      </trkpt>
      <trkpt lat="46.77082" lon="-0.71483">
        <ele>184.5</ele>
        <time>2020-10-31T09:52:53Z</time>
      </trkpt>
      <trkpt lat="46.77075" lon="-0.71513">
        <ele>184.6</ele>
        <time>2020-10-31T09:52:58Z</time>
      </trkpt>
      <trkpt lat="46.77076" lon="-0.71518">
        <ele>184.6</ele>
        <time>2020-10-31T09:52:59Z</time>
      </trkpt>
      <trkpt lat="46.77078" lon="-0.71528">
        <ele>184.6</ele>
        <time>2020-10-31T09:53:01Z</time>
      </trkpt>
      <trkpt lat="46.77076" lon="-0.71539">
        <ele>184.7</ele>
        <time>2020-10-31T09:53:03Z</time>
      </trkpt>
      <trkpt lat="46.77066" lon="-0.71567">
        <ele>186.2</ele>
        <time>2020-10-31T09:53:08Z</time>
      </trkpt>
      <trkpt lat="46.77056" lon="-0.71587">
        <ele>187.4</ele>
        <time>2020-10-31T09:53:13Z</time>
      </trkpt>
      <trkpt lat="46.77049" lon="-0.71601">
        <ele>188.2</ele>
        <time>2020-10-31T09:53:17Z</time>
      </trkpt>
      <trkpt lat="46.77037" lon="-0.71632">
        <ele>188.9</ele>
        <time>2020-10-31T09:53:24Z</time>
      </trkpt>
      <trkpt lat="46.77026" lon="-0.71668">
        <ele>189.6</ele>
        <time>2020-10-31T09:53:32Z</time>
      </trkpt>
      <trkpt lat="46.77016" lon="-0.71692">
        <ele>190.4</ele>
        <time>2020-10-31T09:53:38Z</time>
      </trkpt>
      <trkpt lat="46.77007" lon="-0.71707">
        <ele>191.4</ele>
        <time>2020-10-31T09:53:43Z</time>
      </trkpt>
      <trkpt lat="46.76997" lon="-0.71723">
        <ele>192.7</ele>
        <time>2020-10-31T09:53:49Z</time>
      </trkpt>
      <trkpt lat="46.76983" lon="-0.71745">
        <ele>194.5</ele>
        <time>2020-10-31T09:53:57Z</time>
      </trkpt>
      <trkpt lat="46.76968" lon="-0.7177">
        <ele>195.9</ele>
        <time>2020-10-31T09:54:05Z</time>
      </trkpt>
      <trkpt lat="46.76955" lon="-0.71793">
        <ele>195.9</ele>
        <time>2020-10-31T09:54:11Z</time>
      </trkpt>
      <trkpt lat="46.76943" lon="-0.71816">
        <ele>195.7</ele>
        <time>2020-10-31T09:54:17Z</time>
      </trkpt>
      <trkpt lat="46.76928" lon="-0.71847">
        <ele>196</ele>
        <time>2020-10-31T09:54:24Z</time>
      </trkpt>
      <trkpt lat="46.76916" lon="-0.71888">
        <ele>197</ele>
        <time>2020-10-31T09:54:33Z</time>
      </trkpt>
      <trkpt lat="46.7691" lon="-0.71903">
        <ele>197.6</ele>
        <time>2020-10-31T09:54:37Z</time>
      </trkpt>
      <trkpt lat="46.76897" lon="-0.71927">
        <ele>199.2</ele>
        <time>2020-10-31T09:54:44Z</time>
      </trkpt>
      <trkpt lat="46.76882" lon="-0.71951">
        <ele>200.6</ele>
        <time>2020-10-31T09:54:51Z</time>
      </trkpt>
      <trkpt lat="46.76867" lon="-0.71972">
        <ele>201.3</ele>
        <time>2020-10-31T09:54:58Z</time>
      </trkpt>
      <trkpt lat="46.76863" lon="-0.71976">
        <ele>201.4</ele>
        <time>2020-10-31T09:55:00Z</time>
      </trkpt>
      <trkpt lat="46.76858" lon="-0.7198">
        <ele>201.4</ele>
        <time>2020-10-31T09:55:02Z</time>
      </trkpt>
      <trkpt lat="46.7684" lon="-0.72003">
        <ele>201.5</ele>
        <time>2020-10-31T09:55:09Z</time>
      </trkpt>
      <trkpt lat="46.76825" lon="-0.72023">
        <ele>201.4</ele>
        <time>2020-10-31T09:55:15Z</time>
      </trkpt>
      <trkpt lat="46.76807" lon="-0.72043">
        <ele>201.4</ele>
        <time>2020-10-31T09:55:22Z</time>
      </trkpt>
      <trkpt lat="46.76804" lon="-0.72051">
        <ele>201.4</ele>
        <time>2020-10-31T09:55:24Z</time>
      </trkpt>
      <trkpt lat="46.76805" lon="-0.72059">
        <ele>201.3</ele>
        <time>2020-10-31T09:55:26Z</time>
      </trkpt>
      <trkpt lat="46.76819" lon="-0.72075">
        <ele>201</ele>
        <time>2020-10-31T09:55:31Z</time>
      </trkpt>
      <trkpt lat="46.76833" lon="-0.72093">
        <ele>200.6</ele>
        <time>2020-10-31T09:55:36Z</time>
      </trkpt>
      <trkpt lat="46.76836" lon="-0.72097">
        <ele>200.5</ele>
        <time>2020-10-31T09:55:37Z</time>
      </trkpt>
      <trkpt lat="46.76844" lon="-0.72107">
        <ele>200.2</ele>
        <time>2020-10-31T09:55:39Z</time>
      </trkpt>
      <trkpt lat="46.76848" lon="-0.72113">
        <ele>200</ele>
        <time>2020-10-31T09:55:40Z</time>
      </trkpt>
      <trkpt lat="46.76879" lon="-0.72152">
        <ele>199.1</ele>
        <time>2020-10-31T09:55:47Z</time>
      </trkpt>
      <trkpt lat="46.76912" lon="-0.72193">
        <ele>198.4</ele>
        <time>2020-10-31T09:55:54Z</time>
      </trkpt>
      <trkpt lat="46.76942" lon="-0.72232">
        <ele>197.6</ele>
        <time>2020-10-31T09:56:00Z</time>
      </trkpt>
      <trkpt lat="46.76982" lon="-0.72281">
        <ele>196.6</ele>
        <time>2020-10-31T09:56:08Z</time>
      </trkpt>
      <trkpt lat="46.76995" lon="-0.72286">
        <ele>196</ele>
        <time>2020-10-31T09:56:10Z</time>
      </trkpt>
      <trkpt lat="46.77002" lon="-0.72285">
        <ele>195.7</ele>
        <time>2020-10-31T09:56:11Z</time>
      </trkpt>
      <trkpt lat="46.77055" lon="-0.72277">
        <ele>191.9</ele>
        <time>2020-10-31T09:56:18Z</time>
      </trkpt>
      <trkpt lat="46.77104" lon="-0.72271">
        <ele>187.8</ele>
        <time>2020-10-31T09:56:23Z</time>
      </trkpt>
      <trkpt lat="46.7716" lon="-0.72264">
        <ele>182.4</ele>
        <time>2020-10-31T09:56:28Z</time>
      </trkpt>
      <trkpt lat="46.77172" lon="-0.72262">
        <ele>181.3</ele>
        <time>2020-10-31T09:56:29Z</time>
      </trkpt>
      <trkpt lat="46.77232" lon="-0.72253">
        <ele>177.9</ele>
        <time>2020-10-31T09:56:34Z</time>
      </trkpt>
      <trkpt lat="46.77256" lon="-0.7225">
        <ele>177</ele>
        <time>2020-10-31T09:56:36Z</time>
      </trkpt>
      <trkpt lat="46.77313" lon="-0.72241">
        <ele>175.1</ele>
        <time>2020-10-31T09:56:41Z</time>
      </trkpt>
      <trkpt lat="46.77342" lon="-0.72234">
        <ele>174.4</ele>
        <time>2020-10-31T09:56:45Z</time>
      </trkpt>
      <trkpt lat="46.7735" lon="-0.72241">
        <ele>174.5</ele>
        <time>2020-10-31T09:56:47Z</time>
      </trkpt>
      <trkpt lat="46.77353" lon="-0.72247">
        <ele>174.5</ele>
        <time>2020-10-31T09:56:48Z</time>
      </trkpt>
      <trkpt lat="46.77364" lon="-0.72264">
        <ele>174.9</ele>
        <time>2020-10-31T09:56:51Z</time>
      </trkpt>
      <trkpt lat="46.77371" lon="-0.72277">
        <ele>175.1</ele>
        <time>2020-10-31T09:56:53Z</time>
      </trkpt>
      <trkpt lat="46.77386" lon="-0.72317">
        <ele>175.9</ele>
        <time>2020-10-31T09:56:59Z</time>
      </trkpt>
      <trkpt lat="46.77388" lon="-0.72324">
        <ele>176.1</ele>
        <time>2020-10-31T09:57:00Z</time>
      </trkpt>
      <trkpt lat="46.77392" lon="-0.72338">
        <ele>176.5</ele>
        <time>2020-10-31T09:57:02Z</time>
      </trkpt>
      <trkpt lat="46.77394" lon="-0.72344">
        <ele>176.7</ele>
        <time>2020-10-31T09:57:03Z</time>
      </trkpt>
      <trkpt lat="46.774" lon="-0.72365">
        <ele>177.3</ele>
        <time>2020-10-31T09:57:06Z</time>
      </trkpt>
      <trkpt lat="46.77403" lon="-0.72385">
        <ele>177.5</ele>
        <time>2020-10-31T09:57:09Z</time>
      </trkpt>
      <trkpt lat="46.77408" lon="-0.72412">
        <ele>177.3</ele>
        <time>2020-10-31T09:57:13Z</time>
      </trkpt>
      <trkpt lat="46.77412" lon="-0.72431">
        <ele>176.8</ele>
        <time>2020-10-31T09:57:16Z</time>
      </trkpt>
      <trkpt lat="46.77422" lon="-0.7247">
        <ele>174.4</ele>
        <time>2020-10-31T09:57:22Z</time>
      </trkpt>
      <trkpt lat="46.77425" lon="-0.72478">
        <ele>173.8</ele>
        <time>2020-10-31T09:57:23Z</time>
      </trkpt>
      <trkpt lat="46.7744" lon="-0.72522">
        <ele>170</ele>
        <time>2020-10-31T09:57:28Z</time>
      </trkpt>
      <trkpt lat="46.77456" lon="-0.72574">
        <ele>166.4</ele>
        <time>2020-10-31T09:57:33Z</time>
      </trkpt>
      <trkpt lat="46.77463" lon="-0.72593">
        <ele>165.7</ele>
        <time>2020-10-31T09:57:35Z</time>
      </trkpt>
      <trkpt lat="46.77472" lon="-0.7261">
        <ele>165.4</ele>
        <time>2020-10-31T09:57:37Z</time>
      </trkpt>
      <trkpt lat="46.77478" lon="-0.72625">
        <ele>165.5</ele>
        <time>2020-10-31T09:57:39Z</time>
      </trkpt>
      <trkpt lat="46.77479" lon="-0.72633">
        <ele>165.5</ele>
        <time>2020-10-31T09:57:40Z</time>
      </trkpt>
      <trkpt lat="46.77478" lon="-0.72648">
        <ele>165.8</ele>
        <time>2020-10-31T09:57:42Z</time>
      </trkpt>
      <trkpt lat="46.77476" lon="-0.72661">
        <ele>166</ele>
        <time>2020-10-31T09:57:44Z</time>
      </trkpt>
      <trkpt lat="46.77474" lon="-0.72691">
        <ele>166.8</ele>
        <time>2020-10-31T09:57:50Z</time>
      </trkpt>
      <trkpt lat="46.77473" lon="-0.7271">
        <ele>167.4</ele>
        <time>2020-10-31T09:57:55Z</time>
      </trkpt>
      <trkpt lat="46.7747" lon="-0.72751">
        <ele>168.7</ele>
        <time>2020-10-31T09:58:04Z</time>
      </trkpt>
      <trkpt lat="46.77474" lon="-0.7278">
        <ele>169.5</ele>
        <time>2020-10-31T09:58:10Z</time>
      </trkpt>
      <trkpt lat="46.77489" lon="-0.72803">
        <ele>169.9</ele>
        <time>2020-10-31T09:58:16Z</time>
      </trkpt>
      <trkpt lat="46.77518" lon="-0.72833">
        <ele>170.2</ele>
        <time>2020-10-31T09:58:25Z</time>
      </trkpt>
      <trkpt lat="46.77543" lon="-0.72863">
        <ele>170.8</ele>
        <time>2020-10-31T09:58:33Z</time>
      </trkpt>
      <trkpt lat="46.77545" lon="-0.72868">
        <ele>170.8</ele>
        <time>2020-10-31T09:58:34Z</time>
      </trkpt>
      <trkpt lat="46.77551" lon="-0.72891">
        <ele>171</ele>
        <time>2020-10-31T09:58:38Z</time>
      </trkpt>
      <trkpt lat="46.77562" lon="-0.72944">
        <ele>171.3</ele>
        <time>2020-10-31T09:58:47Z</time>
      </trkpt>
      <trkpt lat="46.77573" lon="-0.72991">
        <ele>171.9</ele>
        <time>2020-10-31T09:58:55Z</time>
      </trkpt>
      <trkpt lat="46.7758" lon="-0.73026">
        <ele>172.5</ele>
        <time>2020-10-31T09:59:01Z</time>
      </trkpt>
      <trkpt lat="46.7758" lon="-0.73033">
        <ele>172.6</ele>
        <time>2020-10-31T09:59:02Z</time>
      </trkpt>
      <trkpt lat="46.7758" lon="-0.73045">
        <ele>172.8</ele>
        <time>2020-10-31T09:59:04Z</time>
      </trkpt>
      <trkpt lat="46.77575" lon="-0.73063">
        <ele>173.2</ele>
        <time>2020-10-31T09:59:07Z</time>
      </trkpt>
      <trkpt lat="46.77565" lon="-0.73097">
        <ele>173.8</ele>
        <time>2020-10-31T09:59:13Z</time>
      </trkpt>
      <trkpt lat="46.77563" lon="-0.73109">
        <ele>174</ele>
        <time>2020-10-31T09:59:15Z</time>
      </trkpt>
      <trkpt lat="46.77564" lon="-0.73121">
        <ele>174.3</ele>
        <time>2020-10-31T09:59:17Z</time>
      </trkpt>
      <trkpt lat="46.77569" lon="-0.73132">
        <ele>174.5</ele>
        <time>2020-10-31T09:59:19Z</time>
      </trkpt>
      <trkpt lat="46.77575" lon="-0.7315">
        <ele>175</ele>
        <time>2020-10-31T09:59:22Z</time>
      </trkpt>
      <trkpt lat="46.7758" lon="-0.73169">
        <ele>175.3</ele>
        <time>2020-10-31T09:59:25Z</time>
      </trkpt>
      <trkpt lat="46.7759" lon="-0.73212">
        <ele>175.6</ele>
        <time>2020-10-31T09:59:32Z</time>
      </trkpt>
      <trkpt lat="46.77599" lon="-0.73256">
        <ele>176</ele>
        <time>2020-10-31T09:59:39Z</time>
      </trkpt>
      <trkpt lat="46.77602" lon="-0.73311">
        <ele>176.6</ele>
        <time>2020-10-31T09:59:47Z</time>
      </trkpt>
      <trkpt lat="46.77598" lon="-0.73361">
        <ele>177.1</ele>
        <time>2020-10-31T09:59:54Z</time>
      </trkpt>
      <trkpt lat="46.77595" lon="-0.73389">
        <ele>177.5</ele>
        <time>2020-10-31T09:59:58Z</time>
      </trkpt>
      <trkpt lat="46.77595" lon="-0.73396">
        <ele>177.6</ele>
        <time>2020-10-31T09:59:59Z</time>
      </trkpt>
      <trkpt lat="46.77591" lon="-0.73444">
        <ele>178.2</ele>
        <time>2020-10-31T10:00:06Z</time>
      </trkpt>
      <trkpt lat="46.77588" lon="-0.735">
        <ele>179.1</ele>
        <time>2020-10-31T10:00:14Z</time>
      </trkpt>
      <trkpt lat="46.77586" lon="-0.73558">
        <ele>181.1</ele>
        <time>2020-10-31T10:00:23Z</time>
      </trkpt>
      <trkpt lat="46.77586" lon="-0.73564">
        <ele>181.4</ele>
        <time>2020-10-31T10:00:24Z</time>
      </trkpt>
      <trkpt lat="46.77588" lon="-0.73575">
        <ele>182</ele>
        <time>2020-10-31T10:00:26Z</time>
      </trkpt>
      <trkpt lat="46.7759" lon="-0.7358">
        <ele>182.2</ele>
        <time>2020-10-31T10:00:27Z</time>
      </trkpt>
      <trkpt lat="46.77603" lon="-0.73587">
        <ele>182.4</ele>
        <time>2020-10-31T10:00:31Z</time>
      </trkpt>
      <trkpt lat="46.77611" lon="-0.7359">
        <ele>182.3</ele>
        <time>2020-10-31T10:00:33Z</time>
      </trkpt>
      <trkpt lat="46.77616" lon="-0.73598">
        <ele>182.2</ele>
        <time>2020-10-31T10:00:35Z</time>
      </trkpt>
      <trkpt lat="46.77622" lon="-0.73623">
        <ele>182.4</ele>
        <time>2020-10-31T10:00:40Z</time>
      </trkpt>
      <trkpt lat="46.77632" lon="-0.73668">
        <ele>183.7</ele>
        <time>2020-10-31T10:00:49Z</time>
      </trkpt>
      <trkpt lat="46.77641" lon="-0.73702">
        <ele>185.2</ele>
        <time>2020-10-31T10:00:56Z</time>
      </trkpt>
      <trkpt lat="46.77654" lon="-0.73742">
        <ele>186.6</ele>
        <time>2020-10-31T10:01:04Z</time>
      </trkpt>
      <trkpt lat="46.77668" lon="-0.73785">
        <ele>187.6</ele>
        <time>2020-10-31T10:01:13Z</time>
      </trkpt>
      <trkpt lat="46.77679" lon="-0.73824">
        <ele>188.3</ele>
        <time>2020-10-31T10:01:21Z</time>
      </trkpt>
      <trkpt lat="46.7769" lon="-0.73864">
        <ele>189.3</ele>
        <time>2020-10-31T10:01:29Z</time>
      </trkpt>
      <trkpt lat="46.77706" lon="-0.73896">
        <ele>190.2</ele>
        <time>2020-10-31T10:01:36Z</time>
      </trkpt>
      <trkpt lat="46.77728" lon="-0.73919">
        <ele>191.2</ele>
        <time>2020-10-31T10:01:43Z</time>
      </trkpt>
      <trkpt lat="46.77731" lon="-0.73921">
        <ele>191.2</ele>
        <time>2020-10-31T10:01:44Z</time>
      </trkpt>
      <trkpt lat="46.7774" lon="-0.73928">
        <ele>191.1</ele>
        <time>2020-10-31T10:01:47Z</time>
      </trkpt>
      <trkpt lat="46.77762" lon="-0.73946">
        <ele>189.9</ele>
        <time>2020-10-31T10:01:54Z</time>
      </trkpt>
      <trkpt lat="46.77768" lon="-0.73951">
        <ele>189.1</ele>
        <time>2020-10-31T10:01:56Z</time>
      </trkpt>
      <trkpt lat="46.77777" lon="-0.73956">
        <ele>188.1</ele>
        <time>2020-10-31T10:01:58Z</time>
      </trkpt>
      <trkpt lat="46.77795" lon="-0.73966">
        <ele>185.9</ele>
        <time>2020-10-31T10:02:02Z</time>
      </trkpt>
      <trkpt lat="46.77799" lon="-0.73969">
        <ele>185.3</ele>
        <time>2020-10-31T10:02:03Z</time>
      </trkpt>
      <trkpt lat="46.77812" lon="-0.7398">
        <ele>183.2</ele>
        <time>2020-10-31T10:02:06Z</time>
      </trkpt>
      <trkpt lat="46.77824" lon="-0.73994">
        <ele>181.5</ele>
        <time>2020-10-31T10:02:09Z</time>
      </trkpt>
      <trkpt lat="46.77833" lon="-0.74007">
        <ele>180.6</ele>
        <time>2020-10-31T10:02:12Z</time>
      </trkpt>
      <trkpt lat="46.7784" lon="-0.74027">
        <ele>179.6</ele>
        <time>2020-10-31T10:02:16Z</time>
      </trkpt>
      <trkpt lat="46.77851" lon="-0.74046">
        <ele>178.5</ele>
        <time>2020-10-31T10:02:20Z</time>
      </trkpt>
      <trkpt lat="46.77864" lon="-0.74065">
        <ele>177.5</ele>
        <time>2020-10-31T10:02:24Z</time>
      </trkpt>
      <trkpt lat="46.77876" lon="-0.74083">
        <ele>177</ele>
        <time>2020-10-31T10:02:28Z</time>
      </trkpt>
      <trkpt lat="46.77882" lon="-0.74095">
        <ele>176.8</ele>
        <time>2020-10-31T10:02:30Z</time>
      </trkpt>
      <trkpt lat="46.77889" lon="-0.74109">
        <ele>176.8</ele>
        <time>2020-10-31T10:02:32Z</time>
      </trkpt>
      <trkpt lat="46.77892" lon="-0.74115">
        <ele>176.8</ele>
        <time>2020-10-31T10:02:33Z</time>
      </trkpt>
      <trkpt lat="46.77898" lon="-0.7413">
        <ele>176.6</ele>
        <time>2020-10-31T10:02:36Z</time>
      </trkpt>
      <trkpt lat="46.779" lon="-0.74136">
        <ele>176.4</ele>
        <time>2020-10-31T10:02:37Z</time>
      </trkpt>
      <trkpt lat="46.77915" lon="-0.74166">
        <ele>175.9</ele>
        <time>2020-10-31T10:02:42Z</time>
      </trkpt>
      <trkpt lat="46.77927" lon="-0.74201">
        <ele>175.8</ele>
        <time>2020-10-31T10:02:47Z</time>
      </trkpt>
      <trkpt lat="46.77937" lon="-0.74212">
        <ele>175.7</ele>
        <time>2020-10-31T10:02:50Z</time>
      </trkpt>
      <trkpt lat="46.77942" lon="-0.74214">
        <ele>175.6</ele>
        <time>2020-10-31T10:02:51Z</time>
      </trkpt>
      <trkpt lat="46.77946" lon="-0.74214">
        <ele>175.6</ele>
        <time>2020-10-31T10:02:52Z</time>
      </trkpt>
      <trkpt lat="46.77954" lon="-0.74214">
        <ele>175.6</ele>
        <time>2020-10-31T10:02:54Z</time>
      </trkpt>
      <trkpt lat="46.77958" lon="-0.74216">
        <ele>175.6</ele>
        <time>2020-10-31T10:02:55Z</time>
      </trkpt>
      <trkpt lat="46.77961" lon="-0.74219">
        <ele>175.7</ele>
        <time>2020-10-31T10:02:56Z</time>
      </trkpt>
      <trkpt lat="46.77966" lon="-0.74229">
        <ele>175.7</ele>
        <time>2020-10-31T10:02:58Z</time>
      </trkpt>
      <trkpt lat="46.77973" lon="-0.74246">
        <ele>175.7</ele>
        <time>2020-10-31T10:03:01Z</time>
      </trkpt>
      <trkpt lat="46.77975" lon="-0.74252">
        <ele>175.6</ele>
        <time>2020-10-31T10:03:02Z</time>
      </trkpt>
      <trkpt lat="46.77985" lon="-0.74283">
        <ele>175</ele>
        <time>2020-10-31T10:03:07Z</time>
      </trkpt>
      <trkpt lat="46.77989" lon="-0.74296">
        <ele>174.8</ele>
        <time>2020-10-31T10:03:09Z</time>
      </trkpt>
      <trkpt lat="46.77992" lon="-0.7431">
        <ele>174.5</ele>
        <time>2020-10-31T10:03:11Z</time>
      </trkpt>
      <trkpt lat="46.77993" lon="-0.74319">
        <ele>174.3</ele>
        <time>2020-10-31T10:03:12Z</time>
      </trkpt>
      <trkpt lat="46.77997" lon="-0.74332">
        <ele>173.8</ele>
        <time>2020-10-31T10:03:14Z</time>
      </trkpt>
      <trkpt lat="46.78" lon="-0.74339">
        <ele>173.5</ele>
        <time>2020-10-31T10:03:15Z</time>
      </trkpt>
      <trkpt lat="46.78006" lon="-0.74352">
        <ele>172.7</ele>
        <time>2020-10-31T10:03:17Z</time>
      </trkpt>
      <trkpt lat="46.78014" lon="-0.74364">
        <ele>171.7</ele>
        <time>2020-10-31T10:03:19Z</time>
      </trkpt>
      <trkpt lat="46.78023" lon="-0.74374">
        <ele>170.7</ele>
        <time>2020-10-31T10:03:21Z</time>
      </trkpt>
      <trkpt lat="46.78033" lon="-0.7438">
        <ele>169.9</ele>
        <time>2020-10-31T10:03:23Z</time>
      </trkpt>
      <trkpt lat="46.78037" lon="-0.74384">
        <ele>169.4</ele>
        <time>2020-10-31T10:03:24Z</time>
      </trkpt>
      <trkpt lat="46.78053" lon="-0.74398">
        <ele>168.2</ele>
        <time>2020-10-31T10:03:28Z</time>
      </trkpt>
      <trkpt lat="46.78056" lon="-0.74401">
        <ele>168.1</ele>
        <time>2020-10-31T10:03:29Z</time>
      </trkpt>
      <trkpt lat="46.78058" lon="-0.74403">
        <ele>168.1</ele>
        <time>2020-10-31T10:03:30Z</time>
      </trkpt>
      <trkpt lat="46.78068" lon="-0.74394">
        <ele>168.3</ele>
        <time>2020-10-31T10:03:34Z</time>
      </trkpt>
      <trkpt lat="46.78079" lon="-0.74379">
        <ele>168.2</ele>
        <time>2020-10-31T10:03:39Z</time>
      </trkpt>
      <trkpt lat="46.78088" lon="-0.74367">
        <ele>167.6</ele>
        <time>2020-10-31T10:03:42Z</time>
      </trkpt>
      <trkpt lat="46.78092" lon="-0.74362">
        <ele>167.4</ele>
        <time>2020-10-31T10:03:43Z</time>
      </trkpt>
      <trkpt lat="46.78102" lon="-0.74352">
        <ele>166.9</ele>
        <time>2020-10-31T10:03:45Z</time>
      </trkpt>
      <trkpt lat="46.78108" lon="-0.74347">
        <ele>166.7</ele>
        <time>2020-10-31T10:03:46Z</time>
      </trkpt>
      <trkpt lat="46.78118" lon="-0.74339">
        <ele>166.5</ele>
        <time>2020-10-31T10:03:48Z</time>
      </trkpt>
      <trkpt lat="46.78128" lon="-0.74329">
        <ele>166.5</ele>
        <time>2020-10-31T10:03:50Z</time>
      </trkpt>
      <trkpt lat="46.78142" lon="-0.74312">
        <ele>166.9</ele>
        <time>2020-10-31T10:03:54Z</time>
      </trkpt>
      <trkpt lat="46.78145" lon="-0.74309">
        <ele>166.9</ele>
        <time>2020-10-31T10:03:55Z</time>
      </trkpt>
      <trkpt lat="46.78148" lon="-0.74304">
        <ele>167</ele>
        <time>2020-10-31T10:03:58Z</time>
      </trkpt>
      <trkpt lat="46.78148" lon="-0.74304">
        <ele>167</ele>
        <time>2020-10-31T10:03:59Z</time>
      </trkpt>
      <trkpt lat="46.78152" lon="-0.743">
        <ele>167</ele>
        <time>2020-10-31T10:04:05Z</time>
      </trkpt>
      <trkpt lat="46.78155" lon="-0.74297">
        <ele>166.9</ele>
        <time>2020-10-31T10:04:06Z</time>
      </trkpt>
      <trkpt lat="46.78161" lon="-0.74285">
        <ele>166.9</ele>
        <time>2020-10-31T10:04:09Z</time>
      </trkpt>
      <trkpt lat="46.78164" lon="-0.74275">
        <ele>166.9</ele>
        <time>2020-10-31T10:04:11Z</time>
      </trkpt>
      <trkpt lat="46.78174" lon="-0.74253">
        <ele>167.1</ele>
        <time>2020-10-31T10:04:16Z</time>
      </trkpt>
      <trkpt lat="46.78183" lon="-0.7424">
        <ele>167.4</ele>
        <time>2020-10-31T10:04:19Z</time>
      </trkpt>
      <trkpt lat="46.78186" lon="-0.74235">
        <ele>167.6</ele>
        <time>2020-10-31T10:04:20Z</time>
      </trkpt>
      <trkpt lat="46.782" lon="-0.74217">
        <ele>168.7</ele>
        <time>2020-10-31T10:04:25Z</time>
      </trkpt>
      <trkpt lat="46.78212" lon="-0.74197">
        <ele>169.9</ele>
        <time>2020-10-31T10:04:29Z</time>
      </trkpt>
      <trkpt lat="46.78229" lon="-0.74176">
        <ele>170.8</ele>
        <time>2020-10-31T10:04:34Z</time>
      </trkpt>
      <trkpt lat="46.7824" lon="-0.74156">
        <ele>171.4</ele>
        <time>2020-10-31T10:04:38Z</time>
      </trkpt>
      <trkpt lat="46.78253" lon="-0.74132">
        <ele>172.1</ele>
        <time>2020-10-31T10:04:43Z</time>
      </trkpt>
      <trkpt lat="46.78262" lon="-0.74121">
        <ele>172.4</ele>
        <time>2020-10-31T10:04:47Z</time>
      </trkpt>
      <trkpt lat="46.78265" lon="-0.7412">
        <ele>172.5</ele>
        <time>2020-10-31T10:04:48Z</time>
      </trkpt>
      <trkpt lat="46.78281" lon="-0.7411">
        <ele>172.7</ele>
        <time>2020-10-31T10:04:53Z</time>
      </trkpt>
      <trkpt lat="46.78305" lon="-0.74094">
        <ele>172.6</ele>
        <time>2020-10-31T10:05:00Z</time>
      </trkpt>
      <trkpt lat="46.78324" lon="-0.74079">
        <ele>172.5</ele>
        <time>2020-10-31T10:05:05Z</time>
      </trkpt>
      <trkpt lat="46.78327" lon="-0.74075">
        <ele>172.5</ele>
        <time>2020-10-31T10:05:06Z</time>
      </trkpt>
      <trkpt lat="46.78354" lon="-0.74043">
        <ele>172.7</ele>
        <time>2020-10-31T10:05:14Z</time>
      </trkpt>
      <trkpt lat="46.78372" lon="-0.74022">
        <ele>173.2</ele>
        <time>2020-10-31T10:05:20Z</time>
      </trkpt>
      <trkpt lat="46.78385" lon="-0.74007">
        <ele>173.6</ele>
        <time>2020-10-31T10:05:25Z</time>
      </trkpt>
      <trkpt lat="46.78402" lon="-0.73991">
        <ele>174.2</ele>
        <time>2020-10-31T10:05:31Z</time>
      </trkpt>
      <trkpt lat="46.78414" lon="-0.73971">
        <ele>175.2</ele>
        <time>2020-10-31T10:05:36Z</time>
      </trkpt>
      <trkpt lat="46.78425" lon="-0.73961">
        <ele>176.2</ele>
        <time>2020-10-31T10:05:40Z</time>
      </trkpt>
      <trkpt lat="46.78435" lon="-0.73949">
        <ele>176.7</ele>
        <time>2020-10-31T10:05:44Z</time>
      </trkpt>
      <trkpt lat="46.78442" lon="-0.73943">
        <ele>176.6</ele>
        <time>2020-10-31T10:05:46Z</time>
      </trkpt>
      <trkpt lat="46.78451" lon="-0.73938">
        <ele>176.3</ele>
        <time>2020-10-31T10:05:48Z</time>
      </trkpt>
      <trkpt lat="46.78474" lon="-0.73925">
        <ele>174.1</ele>
        <time>2020-10-31T10:05:53Z</time>
      </trkpt>
      <trkpt lat="46.78489" lon="-0.73912">
        <ele>172</ele>
        <time>2020-10-31T10:05:57Z</time>
      </trkpt>
      <trkpt lat="46.785" lon="-0.73903">
        <ele>170.4</ele>
        <time>2020-10-31T10:05:59Z</time>
      </trkpt>
      <trkpt lat="46.78506" lon="-0.73897">
        <ele>169.6</ele>
        <time>2020-10-31T10:06:00Z</time>
      </trkpt>
      <trkpt lat="46.78519" lon="-0.73883">
        <ele>168.1</ele>
        <time>2020-10-31T10:06:02Z</time>
      </trkpt>
      <trkpt lat="46.78528" lon="-0.73864">
        <ele>166.9</ele>
        <time>2020-10-31T10:06:04Z</time>
      </trkpt>
      <trkpt lat="46.78535" lon="-0.73846">
        <ele>165.9</ele>
        <time>2020-10-31T10:06:06Z</time>
      </trkpt>
      <trkpt lat="46.78545" lon="-0.73829">
        <ele>164.9</ele>
        <time>2020-10-31T10:06:08Z</time>
      </trkpt>
      <trkpt lat="46.78562" lon="-0.73787">
        <ele>163.4</ele>
        <time>2020-10-31T10:06:13Z</time>
      </trkpt>
      <trkpt lat="46.78578" lon="-0.73758">
        <ele>162.9</ele>
        <time>2020-10-31T10:06:17Z</time>
      </trkpt>
      <trkpt lat="46.78585" lon="-0.73754">
        <ele>162.9</ele>
        <time>2020-10-31T10:06:19Z</time>
      </trkpt>
      <trkpt lat="46.78593" lon="-0.73758">
        <ele>163</ele>
        <time>2020-10-31T10:06:21Z</time>
      </trkpt>
      <trkpt lat="46.78619" lon="-0.73771">
        <ele>163.7</ele>
        <time>2020-10-31T10:06:27Z</time>
      </trkpt>
      <trkpt lat="46.78631" lon="-0.73775">
        <ele>163.8</ele>
        <time>2020-10-31T10:06:30Z</time>
      </trkpt>
      <trkpt lat="46.78637" lon="-0.73776">
        <ele>163.8</ele>
        <time>2020-10-31T10:06:31Z</time>
      </trkpt>
      <trkpt lat="46.78643" lon="-0.73777">
        <ele>163.9</ele>
        <time>2020-10-31T10:06:32Z</time>
      </trkpt>
      <trkpt lat="46.78654" lon="-0.73775">
        <ele>163.9</ele>
        <time>2020-10-31T10:06:34Z</time>
      </trkpt>
      <trkpt lat="46.78658" lon="-0.73773">
        <ele>163.8</ele>
        <time>2020-10-31T10:06:35Z</time>
      </trkpt>
      <trkpt lat="46.78676" lon="-0.7376">
        <ele>163.7</ele>
        <time>2020-10-31T10:06:39Z</time>
      </trkpt>
      <trkpt lat="46.78689" lon="-0.73743">
        <ele>163.8</ele>
        <time>2020-10-31T10:06:42Z</time>
      </trkpt>
      <trkpt lat="46.78694" lon="-0.73731">
        <ele>164</ele>
        <time>2020-10-31T10:06:44Z</time>
      </trkpt>
      <trkpt lat="46.78706" lon="-0.73698">
        <ele>164.4</ele>
        <time>2020-10-31T10:06:50Z</time>
      </trkpt>
      <trkpt lat="46.78715" lon="-0.73688">
        <ele>163.9</ele>
        <time>2020-10-31T10:06:52Z</time>
      </trkpt>
      <trkpt lat="46.78718" lon="-0.73683">
        <ele>163.7</ele>
        <time>2020-10-31T10:06:53Z</time>
      </trkpt>
      <trkpt lat="46.78723" lon="-0.73682">
        <ele>163.3</ele>
        <time>2020-10-31T10:06:54Z</time>
      </trkpt>
      <trkpt lat="46.78728" lon="-0.73685">
        <ele>162.9</ele>
        <time>2020-10-31T10:06:55Z</time>
      </trkpt>
      <trkpt lat="46.78734" lon="-0.7369">
        <ele>162.4</ele>
        <time>2020-10-31T10:06:56Z</time>
      </trkpt>
      <trkpt lat="46.78749" lon="-0.73713">
        <ele>161</ele>
        <time>2020-10-31T10:06:59Z</time>
      </trkpt>
      <trkpt lat="46.78764" lon="-0.73735">
        <ele>160.3</ele>
        <time>2020-10-31T10:07:02Z</time>
      </trkpt>
      <trkpt lat="46.78774" lon="-0.73745">
        <ele>160.1</ele>
        <time>2020-10-31T10:07:04Z</time>
      </trkpt>
      <trkpt lat="46.78794" lon="-0.73763">
        <ele>160.1</ele>
        <time>2020-10-31T10:07:08Z</time>
      </trkpt>
      <trkpt lat="46.78804" lon="-0.73773">
        <ele>160.3</ele>
        <time>2020-10-31T10:07:10Z</time>
      </trkpt>
      <trkpt lat="46.78812" lon="-0.73783">
        <ele>160.5</ele>
        <time>2020-10-31T10:07:12Z</time>
      </trkpt>
      <trkpt lat="46.78827" lon="-0.73797">
        <ele>160.7</ele>
        <time>2020-10-31T10:07:16Z</time>
      </trkpt>
      <trkpt lat="46.78836" lon="-0.73799">
        <ele>160.8</ele>
        <time>2020-10-31T10:07:18Z</time>
      </trkpt>
      <trkpt lat="46.78844" lon="-0.73795">
        <ele>160.8</ele>
        <time>2020-10-31T10:07:20Z</time>
      </trkpt>
      <trkpt lat="46.78849" lon="-0.73785">
        <ele>160.8</ele>
        <time>2020-10-31T10:07:22Z</time>
      </trkpt>
      <trkpt lat="46.78853" lon="-0.73773">
        <ele>160.7</ele>
        <time>2020-10-31T10:07:24Z</time>
      </trkpt>
      <trkpt lat="46.78855" lon="-0.73767">
        <ele>160.6</ele>
        <time>2020-10-31T10:07:25Z</time>
      </trkpt>
      <trkpt lat="46.78862" lon="-0.73749">
        <ele>160.4</ele>
        <time>2020-10-31T10:07:28Z</time>
      </trkpt>
      <trkpt lat="46.78879" lon="-0.73705">
        <ele>160.1</ele>
        <time>2020-10-31T10:07:35Z</time>
      </trkpt>
      <trkpt lat="46.78902" lon="-0.73656">
        <ele>160.1</ele>
        <time>2020-10-31T10:07:43Z</time>
      </trkpt>
      <trkpt lat="46.78918" lon="-0.73618">
        <ele>160.6</ele>
        <time>2020-10-31T10:07:50Z</time>
      </trkpt>
      <trkpt lat="46.78924" lon="-0.73597">
        <ele>161</ele>
        <time>2020-10-31T10:07:54Z</time>
      </trkpt>
      <trkpt lat="46.78924" lon="-0.73593">
        <ele>161</ele>
        <time>2020-10-31T10:07:55Z</time>
      </trkpt>
      <trkpt lat="46.7893" lon="-0.73563">
        <ele>161.2</ele>
        <time>2020-10-31T10:08:00Z</time>
      </trkpt>
      <trkpt lat="46.7894" lon="-0.73519">
        <ele>161.1</ele>
        <time>2020-10-31T10:08:07Z</time>
      </trkpt>
      <trkpt lat="46.78947" lon="-0.7349">
        <ele>161.1</ele>
        <time>2020-10-31T10:08:12Z</time>
      </trkpt>
      <trkpt lat="46.78951" lon="-0.73476">
        <ele>161.2</ele>
        <time>2020-10-31T10:08:14Z</time>
      </trkpt>
      <trkpt lat="46.78956" lon="-0.73464">
        <ele>161.2</ele>
        <time>2020-10-31T10:08:16Z</time>
      </trkpt>
      <trkpt lat="46.78963" lon="-0.73437">
        <ele>161.1</ele>
        <time>2020-10-31T10:08:20Z</time>
      </trkpt>
      <trkpt lat="46.78965" lon="-0.7343">
        <ele>161</ele>
        <time>2020-10-31T10:08:21Z</time>
      </trkpt>
      <trkpt lat="46.78975" lon="-0.73391">
        <ele>160.7</ele>
        <time>2020-10-31T10:08:27Z</time>
      </trkpt>
      <trkpt lat="46.7898" lon="-0.73372">
        <ele>160.6</ele>
        <time>2020-10-31T10:08:30Z</time>
      </trkpt>
      <trkpt lat="46.78984" lon="-0.7336">
        <ele>160.6</ele>
        <time>2020-10-31T10:08:32Z</time>
      </trkpt>
      <trkpt lat="46.78992" lon="-0.73329">
        <ele>160.4</ele>
        <time>2020-10-31T10:08:37Z</time>
      </trkpt>
      <trkpt lat="46.78996" lon="-0.73317">
        <ele>160.4</ele>
        <time>2020-10-31T10:08:39Z</time>
      </trkpt>
      <trkpt lat="46.79001" lon="-0.73299">
        <ele>160.2</ele>
        <time>2020-10-31T10:08:42Z</time>
      </trkpt>
      <trkpt lat="46.79004" lon="-0.73286">
        <ele>160.1</ele>
        <time>2020-10-31T10:08:44Z</time>
      </trkpt>
      <trkpt lat="46.79007" lon="-0.73274">
        <ele>160.1</ele>
        <time>2020-10-31T10:08:46Z</time>
      </trkpt>
      <trkpt lat="46.79008" lon="-0.73267">
        <ele>160.1</ele>
        <time>2020-10-31T10:08:47Z</time>
      </trkpt>
      <trkpt lat="46.79018" lon="-0.73223">
        <ele>160.4</ele>
        <time>2020-10-31T10:08:54Z</time>
      </trkpt>
      <trkpt lat="46.79023" lon="-0.73205">
        <ele>160.6</ele>
        <time>2020-10-31T10:08:57Z</time>
      </trkpt>
      <trkpt lat="46.79027" lon="-0.73194">
        <ele>160.8</ele>
        <time>2020-10-31T10:08:59Z</time>
      </trkpt>
      <trkpt lat="46.79029" lon="-0.73188">
        <ele>160.9</ele>
        <time>2020-10-31T10:09:00Z</time>
      </trkpt>
      <trkpt lat="46.79038" lon="-0.73159">
        <ele>161.3</ele>
        <time>2020-10-31T10:09:06Z</time>
      </trkpt>
      <trkpt lat="46.79042" lon="-0.73157">
        <ele>161.4</ele>
        <time>2020-10-31T10:09:07Z</time>
      </trkpt>
      <trkpt lat="46.79056" lon="-0.73156">
        <ele>161.6</ele>
        <time>2020-10-31T10:09:10Z</time>
      </trkpt>
      <trkpt lat="46.79061" lon="-0.73156">
        <ele>161.7</ele>
        <time>2020-10-31T10:09:11Z</time>
      </trkpt>
      <trkpt lat="46.7907" lon="-0.7316">
        <ele>161.8</ele>
        <time>2020-10-31T10:09:13Z</time>
      </trkpt>
      <trkpt lat="46.79073" lon="-0.73165">
        <ele>162</ele>
        <time>2020-10-31T10:09:14Z</time>
      </trkpt>
      <trkpt lat="46.79073" lon="-0.73178">
        <ele>162.1</ele>
        <time>2020-10-31T10:09:16Z</time>
      </trkpt>
      <trkpt lat="46.79071" lon="-0.73185">
        <ele>162.1</ele>
        <time>2020-10-31T10:09:17Z</time>
      </trkpt>
      <trkpt lat="46.79059" lon="-0.73231">
        <ele>161.8</ele>
        <time>2020-10-31T10:09:24Z</time>
      </trkpt>
      <trkpt lat="46.79048" lon="-0.73285">
        <ele>161.7</ele>
        <time>2020-10-31T10:09:32Z</time>
      </trkpt>
      <trkpt lat="46.79037" lon="-0.73335">
        <ele>161.8</ele>
        <time>2020-10-31T10:09:40Z</time>
      </trkpt>
      <trkpt lat="46.79038" lon="-0.73347">
        <ele>161.9</ele>
        <time>2020-10-31T10:09:42Z</time>
      </trkpt>
      <trkpt lat="46.79041" lon="-0.7335">
        <ele>161.9</ele>
        <time>2020-10-31T10:09:43Z</time>
      </trkpt>
      <trkpt lat="46.79058" lon="-0.73367">
        <ele>162.4</ele>
        <time>2020-10-31T10:09:48Z</time>
      </trkpt>
      <trkpt lat="46.79068" lon="-0.73373">
        <ele>162.6</ele>
        <time>2020-10-31T10:09:51Z</time>
      </trkpt>
      <trkpt lat="46.79071" lon="-0.73377">
        <ele>162.6</ele>
        <time>2020-10-31T10:09:52Z</time>
      </trkpt>
      <trkpt lat="46.79073" lon="-0.7338">
        <ele>162.7</ele>
        <time>2020-10-31T10:09:53Z</time>
      </trkpt>
      <trkpt lat="46.79078" lon="-0.73377">
        <ele>162.8</ele>
        <time>2020-10-31T10:09:55Z</time>
      </trkpt>
      <trkpt lat="46.79095" lon="-0.73362">
        <ele>162.6</ele>
        <time>2020-10-31T10:10:00Z</time>
      </trkpt>
      <trkpt lat="46.79102" lon="-0.73355">
        <ele>162.7</ele>
        <time>2020-10-31T10:10:02Z</time>
      </trkpt>
      <trkpt lat="46.7911" lon="-0.73357">
        <ele>162.8</ele>
        <time>2020-10-31T10:10:04Z</time>
      </trkpt>
      <trkpt lat="46.79123" lon="-0.73373">
        <ele>163</ele>
        <time>2020-10-31T10:10:08Z</time>
      </trkpt>
      <trkpt lat="46.7913" lon="-0.73381">
        <ele>163.2</ele>
        <time>2020-10-31T10:10:10Z</time>
      </trkpt>
      <trkpt lat="46.7914" lon="-0.73399">
        <ele>163.7</ele>
        <time>2020-10-31T10:10:14Z</time>
      </trkpt>
      <trkpt lat="46.7916" lon="-0.73432">
        <ele>164.7</ele>
        <time>2020-10-31T10:10:22Z</time>
      </trkpt>
      <trkpt lat="46.79181" lon="-0.73467">
        <ele>165.7</ele>
        <time>2020-10-31T10:10:30Z</time>
      </trkpt>
      <trkpt lat="46.79197" lon="-0.73494">
        <ele>166.1</ele>
        <time>2020-10-31T10:10:36Z</time>
      </trkpt>
      <trkpt lat="46.792" lon="-0.73499">
        <ele>166.1</ele>
        <time>2020-10-31T10:10:37Z</time>
      </trkpt>
      <trkpt lat="46.79224" lon="-0.73535">
        <ele>166.7</ele>
        <time>2020-10-31T10:10:45Z</time>
      </trkpt>
      <trkpt lat="46.79235" lon="-0.73558">
        <ele>167.2</ele>
        <time>2020-10-31T10:10:50Z</time>
      </trkpt>
      <trkpt lat="46.79238" lon="-0.73563">
        <ele>167.3</ele>
        <time>2020-10-31T10:10:51Z</time>
      </trkpt>
      <trkpt lat="46.7925" lon="-0.73579">
        <ele>167.6</ele>
        <time>2020-10-31T10:10:55Z</time>
      </trkpt>
      <trkpt lat="46.79254" lon="-0.73583">
        <ele>167.7</ele>
        <time>2020-10-31T10:10:56Z</time>
      </trkpt>
      <trkpt lat="46.79267" lon="-0.73599">
        <ele>168.2</ele>
        <time>2020-10-31T10:11:00Z</time>
      </trkpt>
      <trkpt lat="46.79277" lon="-0.73611">
        <ele>168.4</ele>
        <time>2020-10-31T10:11:03Z</time>
      </trkpt>
      <trkpt lat="46.79284" lon="-0.73619">
        <ele>168.5</ele>
        <time>2020-10-31T10:11:05Z</time>
      </trkpt>
      <trkpt lat="46.79289" lon="-0.73624">
        <ele>168.6</ele>
        <time>2020-10-31T10:11:06Z</time>
      </trkpt>
      <trkpt lat="46.79315" lon="-0.73654">
        <ele>169.1</ele>
        <time>2020-10-31T10:11:13Z</time>
      </trkpt>
      <trkpt lat="46.79322" lon="-0.73662">
        <ele>169.3</ele>
        <time>2020-10-31T10:11:15Z</time>
      </trkpt>
      <trkpt lat="46.7933" lon="-0.73671">
        <ele>169.5</ele>
        <time>2020-10-31T10:11:18Z</time>
      </trkpt>
      <trkpt lat="46.7933" lon="-0.73674">
        <ele>169.5</ele>
        <time>2020-10-31T10:11:19Z</time>
      </trkpt>
      <trkpt lat="46.79328" lon="-0.73675">
        <ele>169.6</ele>
        <time>2020-10-31T10:11:20Z</time>
      </trkpt>
      <trkpt lat="46.79328" lon="-0.73669">
        <ele>169.7</ele>
        <time>2020-10-31T10:11:22Z</time>
      </trkpt>
      <trkpt lat="46.79331" lon="-0.73672">
        <ele>169.8</ele>
        <time>2020-10-31T10:11:25Z</time>
      </trkpt>
      <trkpt lat="46.7933" lon="-0.73673">
        <ele>169.9</ele>
        <time>2020-10-31T10:11:26Z</time>
      </trkpt>
      <trkpt lat="46.79329" lon="-0.73669">
        <ele>169.9</ele>
        <time>2020-10-31T10:11:28Z</time>
      </trkpt>
      <trkpt lat="46.79335" lon="-0.73669">
        <ele>170.1</ele>
        <time>2020-10-31T10:11:30Z</time>
      </trkpt>
      <trkpt lat="46.79337" lon="-0.73675">
        <ele>170.2</ele>
        <time>2020-10-31T10:11:31Z</time>
      </trkpt>
      <trkpt lat="46.7934" lon="-0.7368">
        <ele>170.3</ele>
        <time>2020-10-31T10:11:32Z</time>
      </trkpt>
      <trkpt lat="46.79346" lon="-0.73689">
        <ele>170.5</ele>
        <time>2020-10-31T10:11:34Z</time>
      </trkpt>
      <trkpt lat="46.79379" lon="-0.73727">
        <ele>171.6</ele>
        <time>2020-10-31T10:11:43Z</time>
      </trkpt>
      <trkpt lat="46.79402" lon="-0.73751">
        <ele>172.9</ele>
        <time>2020-10-31T10:11:50Z</time>
      </trkpt>
      <trkpt lat="46.79426" lon="-0.73776">
        <ele>174.1</ele>
        <time>2020-10-31T10:11:57Z</time>
      </trkpt>
      <trkpt lat="46.79439" lon="-0.73794">
        <ele>174.5</ele>
        <time>2020-10-31T10:12:01Z</time>
      </trkpt>
      <trkpt lat="46.79447" lon="-0.73808">
        <ele>174.4</ele>
        <time>2020-10-31T10:12:04Z</time>
      </trkpt>
      <trkpt lat="46.79455" lon="-0.73821">
        <ele>174.3</ele>
        <time>2020-10-31T10:12:07Z</time>
      </trkpt>
      <trkpt lat="46.79463" lon="-0.73837">
        <ele>174.2</ele>
        <time>2020-10-31T10:12:10Z</time>
      </trkpt>
      <trkpt lat="46.79466" lon="-0.73842">
        <ele>174.1</ele>
        <time>2020-10-31T10:12:11Z</time>
      </trkpt>
      <trkpt lat="46.79469" lon="-0.73846">
        <ele>174.1</ele>
        <time>2020-10-31T10:12:12Z</time>
      </trkpt>
      <trkpt lat="46.79479" lon="-0.73845">
        <ele>173.9</ele>
        <time>2020-10-31T10:12:14Z</time>
      </trkpt>
      <trkpt lat="46.79494" lon="-0.73837">
        <ele>173.6</ele>
        <time>2020-10-31T10:12:17Z</time>
      </trkpt>
      <trkpt lat="46.79504" lon="-0.7383">
        <ele>173.3</ele>
        <time>2020-10-31T10:12:19Z</time>
      </trkpt>
      <trkpt lat="46.79537" lon="-0.73805">
        <ele>172.2</ele>
        <time>2020-10-31T10:12:25Z</time>
      </trkpt>
      <trkpt lat="46.79576" lon="-0.73777">
        <ele>169.6</ele>
        <time>2020-10-31T10:12:31Z</time>
      </trkpt>
      <trkpt lat="46.79614" lon="-0.73743">
        <ele>166.9</ele>
        <time>2020-10-31T10:12:36Z</time>
      </trkpt>
      <trkpt lat="46.79625" lon="-0.73722">
        <ele>166.5</ele>
        <time>2020-10-31T10:12:38Z</time>
      </trkpt>
      <trkpt lat="46.79627" lon="-0.7371">
        <ele>166.6</ele>
        <time>2020-10-31T10:12:39Z</time>
      </trkpt>
      <trkpt lat="46.79628" lon="-0.73699">
        <ele>166.7</ele>
        <time>2020-10-31T10:12:40Z</time>
      </trkpt>
      <trkpt lat="46.79627" lon="-0.7367">
        <ele>167.3</ele>
        <time>2020-10-31T10:12:43Z</time>
      </trkpt>
      <trkpt lat="46.79629" lon="-0.73625">
        <ele>168</ele>
        <time>2020-10-31T10:12:49Z</time>
      </trkpt>
      <trkpt lat="46.79632" lon="-0.73569">
        <ele>167.5</ele>
        <time>2020-10-31T10:12:56Z</time>
      </trkpt>
      <trkpt lat="46.79639" lon="-0.73494">
        <ele>165.4</ele>
        <time>2020-10-31T10:13:04Z</time>
      </trkpt>
      <trkpt lat="46.79643" lon="-0.73462">
        <ele>164.6</ele>
        <time>2020-10-31T10:13:08Z</time>
      </trkpt>
      <trkpt lat="46.79644" lon="-0.73458">
        <ele>164.5</ele>
        <time>2020-10-31T10:13:09Z</time>
      </trkpt>
      <trkpt lat="46.79652" lon="-0.73452">
        <ele>164.2</ele>
        <time>2020-10-31T10:13:11Z</time>
      </trkpt>
      <trkpt lat="46.79669" lon="-0.73458">
        <ele>163.8</ele>
        <time>2020-10-31T10:13:14Z</time>
      </trkpt>
      <trkpt lat="46.79694" lon="-0.73468">
        <ele>163.2</ele>
        <time>2020-10-31T10:13:18Z</time>
      </trkpt>
      <trkpt lat="46.79708" lon="-0.7347">
        <ele>162.9</ele>
        <time>2020-10-31T10:13:20Z</time>
      </trkpt>
      <trkpt lat="46.79728" lon="-0.73477">
        <ele>162.4</ele>
        <time>2020-10-31T10:13:23Z</time>
      </trkpt>
      <trkpt lat="46.79743" lon="-0.73483">
        <ele>162.1</ele>
        <time>2020-10-31T10:13:25Z</time>
      </trkpt>
      <trkpt lat="46.79796" lon="-0.73496">
        <ele>161.2</ele>
        <time>2020-10-31T10:13:32Z</time>
      </trkpt>
      <trkpt lat="46.79819" lon="-0.73501">
        <ele>161.1</ele>
        <time>2020-10-31T10:13:35Z</time>
      </trkpt>
      <trkpt lat="46.79854" lon="-0.73507">
        <ele>161.5</ele>
        <time>2020-10-31T10:13:40Z</time>
      </trkpt>
      <trkpt lat="46.79864" lon="-0.73519">
        <ele>161.6</ele>
        <time>2020-10-31T10:13:43Z</time>
      </trkpt>
      <trkpt lat="46.79878" lon="-0.73556">
        <ele>161.4</ele>
        <time>2020-10-31T10:13:48Z</time>
      </trkpt>
      <trkpt lat="46.799" lon="-0.73604">
        <ele>161.8</ele>
        <time>2020-10-31T10:13:55Z</time>
      </trkpt>
      <trkpt lat="46.79905" lon="-0.73636">
        <ele>162.4</ele>
        <time>2020-10-31T10:14:00Z</time>
      </trkpt>
      <trkpt lat="46.7991" lon="-0.73656">
        <ele>162.8</ele>
        <time>2020-10-31T10:14:04Z</time>
      </trkpt>
      <trkpt lat="46.79923" lon="-0.73676">
        <ele>163.2</ele>
        <time>2020-10-31T10:14:10Z</time>
      </trkpt>
      <trkpt lat="46.79932" lon="-0.73688">
        <ele>163.5</ele>
        <time>2020-10-31T10:14:14Z</time>
      </trkpt>
      <trkpt lat="46.7994" lon="-0.73698">
        <ele>163.6</ele>
        <time>2020-10-31T10:14:18Z</time>
      </trkpt>
      <trkpt lat="46.79946" lon="-0.73699">
        <ele>163.7</ele>
        <time>2020-10-31T10:14:20Z</time>
      </trkpt>
      <trkpt lat="46.7995" lon="-0.73701">
        <ele>163.8</ele>
        <time>2020-10-31T10:14:21Z</time>
      </trkpt>
      <trkpt lat="46.79954" lon="-0.73705">
        <ele>163.9</ele>
        <time>2020-10-31T10:14:22Z</time>
      </trkpt>
      <trkpt lat="46.79967" lon="-0.73721">
        <ele>164.2</ele>
        <time>2020-10-31T10:14:26Z</time>
      </trkpt>
      <trkpt lat="46.79977" lon="-0.73732">
        <ele>164.5</ele>
        <time>2020-10-31T10:14:29Z</time>
      </trkpt>
      <trkpt lat="46.79987" lon="-0.73734">
        <ele>164.8</ele>
        <time>2020-10-31T10:14:31Z</time>
      </trkpt>
      <trkpt lat="46.79995" lon="-0.73731">
        <ele>165.1</ele>
        <time>2020-10-31T10:14:33Z</time>
      </trkpt>
      <trkpt lat="46.79999" lon="-0.73728">
        <ele>165.3</ele>
        <time>2020-10-31T10:14:34Z</time>
      </trkpt>
      <trkpt lat="46.80022" lon="-0.73705">
        <ele>166.4</ele>
        <time>2020-10-31T10:14:41Z</time>
      </trkpt>
      <trkpt lat="46.80037" lon="-0.73691">
        <ele>167.3</ele>
        <time>2020-10-31T10:14:46Z</time>
      </trkpt>
      <trkpt lat="46.8005" lon="-0.73694">
        <ele>167.8</ele>
        <time>2020-10-31T10:14:50Z</time>
      </trkpt>
      <trkpt lat="46.80052" lon="-0.73694">
        <ele>167.9</ele>
        <time>2020-10-31T10:14:51Z</time>
      </trkpt>
      <trkpt lat="46.80055" lon="-0.73689">
        <ele>168</ele>
        <time>2020-10-31T10:14:53Z</time>
      </trkpt>
      <trkpt lat="46.80059" lon="-0.73685">
        <ele>168</ele>
        <time>2020-10-31T10:14:55Z</time>
      </trkpt>
      <trkpt lat="46.80064" lon="-0.73687">
        <ele>168.1</ele>
        <time>2020-10-31T10:14:57Z</time>
      </trkpt>
      <trkpt lat="46.80067" lon="-0.7369">
        <ele>168.2</ele>
        <time>2020-10-31T10:14:58Z</time>
      </trkpt>
      <trkpt lat="46.8007" lon="-0.73699">
        <ele>168.3</ele>
        <time>2020-10-31T10:15:00Z</time>
      </trkpt>
      <trkpt lat="46.80074" lon="-0.73727">
        <ele>168.7</ele>
        <time>2020-10-31T10:15:05Z</time>
      </trkpt>
      <trkpt lat="46.80085" lon="-0.73759">
        <ele>169.1</ele>
        <time>2020-10-31T10:15:11Z</time>
      </trkpt>
      <trkpt lat="46.80092" lon="-0.73791">
        <ele>169.5</ele>
        <time>2020-10-31T10:15:17Z</time>
      </trkpt>
      <trkpt lat="46.8009" lon="-0.73819">
        <ele>169.9</ele>
        <time>2020-10-31T10:15:22Z</time>
      </trkpt>
      <trkpt lat="46.80089" lon="-0.73843">
        <ele>170.2</ele>
        <time>2020-10-31T10:15:26Z</time>
      </trkpt>
      <trkpt lat="46.8009" lon="-0.73855">
        <ele>170.3</ele>
        <time>2020-10-31T10:15:28Z</time>
      </trkpt>
      <trkpt lat="46.80096" lon="-0.73886">
        <ele>170.7</ele>
        <time>2020-10-31T10:15:34Z</time>
      </trkpt>
      <trkpt lat="46.80097" lon="-0.73907">
        <ele>171.2</ele>
        <time>2020-10-31T10:15:38Z</time>
      </trkpt>
      <trkpt lat="46.80097" lon="-0.73912">
        <ele>171.3</ele>
        <time>2020-10-31T10:15:39Z</time>
      </trkpt>
      <trkpt lat="46.801" lon="-0.73916">
        <ele>171.5</ele>
        <time>2020-10-31T10:15:41Z</time>
      </trkpt>
      <trkpt lat="46.80103" lon="-0.73915">
        <ele>171.7</ele>
        <time>2020-10-31T10:15:42Z</time>
      </trkpt>
      <trkpt lat="46.80109" lon="-0.7391">
        <ele>172.1</ele>
        <time>2020-10-31T10:15:45Z</time>
      </trkpt>
      <trkpt lat="46.80123" lon="-0.73903">
        <ele>173.2</ele>
        <time>2020-10-31T10:15:50Z</time>
      </trkpt>
      <trkpt lat="46.80139" lon="-0.73897">
        <ele>174.7</ele>
        <time>2020-10-31T10:15:56Z</time>
      </trkpt>
      <trkpt lat="46.80153" lon="-0.7389">
        <ele>175.7</ele>
        <time>2020-10-31T10:16:01Z</time>
      </trkpt>
      <trkpt lat="46.80169" lon="-0.73883">
        <ele>176.6</ele>
        <time>2020-10-31T10:16:07Z</time>
      </trkpt>
      <trkpt lat="46.80185" lon="-0.73873">
        <ele>177.8</ele>
        <time>2020-10-31T10:16:14Z</time>
      </trkpt>
      <trkpt lat="46.802" lon="-0.73864">
        <ele>178.6</ele>
        <time>2020-10-31T10:16:20Z</time>
      </trkpt>
      <trkpt lat="46.80216" lon="-0.73857">
        <ele>179.6</ele>
        <time>2020-10-31T10:16:27Z</time>
      </trkpt>
      <trkpt lat="46.8024" lon="-0.7385">
        <ele>181</ele>
        <time>2020-10-31T10:16:36Z</time>
      </trkpt>
      <trkpt lat="46.80261" lon="-0.73845">
        <ele>182.5</ele>
        <time>2020-10-31T10:16:43Z</time>
      </trkpt>
      <trkpt lat="46.80279" lon="-0.7384">
        <ele>183.6</ele>
        <time>2020-10-31T10:16:49Z</time>
      </trkpt>
      <trkpt lat="46.80298" lon="-0.73837">
        <ele>184.5</ele>
        <time>2020-10-31T10:16:55Z</time>
      </trkpt>
      <trkpt lat="46.80323" lon="-0.73838">
        <ele>185.8</ele>
        <time>2020-10-31T10:17:03Z</time>
      </trkpt>
      <trkpt lat="46.80338" lon="-0.73837">
        <ele>186.7</ele>
        <time>2020-10-31T10:17:08Z</time>
      </trkpt>
      <trkpt lat="46.80357" lon="-0.73826">
        <ele>187.7</ele>
        <time>2020-10-31T10:17:14Z</time>
      </trkpt>
      <trkpt lat="46.80372" lon="-0.73822">
        <ele>188.3</ele>
        <time>2020-10-31T10:17:18Z</time>
      </trkpt>
      <trkpt lat="46.80375" lon="-0.73825">
        <ele>188.8</ele>
        <time>2020-10-31T10:17:19Z</time>
      </trkpt>
      <trkpt lat="46.80384" lon="-0.73846">
        <ele>189.4</ele>
        <time>2020-10-31T10:17:24Z</time>
      </trkpt>
      <trkpt lat="46.80385" lon="-0.73851">
        <ele>189.3</ele>
        <time>2020-10-31T10:17:25Z</time>
      </trkpt>
      <trkpt lat="46.80381" lon="-0.73858">
        <ele>189.1</ele>
        <time>2020-10-31T10:17:27Z</time>
      </trkpt>
      <trkpt lat="46.80372" lon="-0.7386">
        <ele>188.7</ele>
        <time>2020-10-31T10:17:29Z</time>
      </trkpt>
      <trkpt lat="46.80369" lon="-0.73864">
        <ele>188.5</ele>
        <time>2020-10-31T10:17:30Z</time>
      </trkpt>
      <trkpt lat="46.80368" lon="-0.73883">
        <ele>188.2</ele>
        <time>2020-10-31T10:17:33Z</time>
      </trkpt>
      <trkpt lat="46.80366" lon="-0.73896">
        <ele>187.9</ele>
        <time>2020-10-31T10:17:35Z</time>
      </trkpt>
      <trkpt lat="46.80365" lon="-0.73916">
        <ele>187.4</ele>
        <time>2020-10-31T10:17:38Z</time>
      </trkpt>
      <trkpt lat="46.80364" lon="-0.73939">
        <ele>186.7</ele>
        <time>2020-10-31T10:17:41Z</time>
      </trkpt>
      <trkpt lat="46.80365" lon="-0.73954">
        <ele>186.5</ele>
        <time>2020-10-31T10:17:43Z</time>
      </trkpt>
      <trkpt lat="46.8037" lon="-0.73992">
        <ele>185.8</ele>
        <time>2020-10-31T10:17:49Z</time>
      </trkpt>
      <trkpt lat="46.80374" lon="-0.73997">
        <ele>185.8</ele>
        <time>2020-10-31T10:17:51Z</time>
      </trkpt>
      <trkpt lat="46.80377" lon="-0.73997">
        <ele>185.9</ele>
        <time>2020-10-31T10:17:52Z</time>
      </trkpt>
      <trkpt lat="46.80391" lon="-0.73991">
        <ele>186.3</ele>
        <time>2020-10-31T10:17:57Z</time>
      </trkpt>
      <trkpt lat="46.8041" lon="-0.73984">
        <ele>186.8</ele>
        <time>2020-10-31T10:18:03Z</time>
      </trkpt>
      <trkpt lat="46.80431" lon="-0.73975">
        <ele>187.4</ele>
        <time>2020-10-31T10:18:09Z</time>
      </trkpt>
      <trkpt lat="46.80453" lon="-0.73965">
        <ele>187.9</ele>
        <time>2020-10-31T10:18:15Z</time>
      </trkpt>
      <trkpt lat="46.80474" lon="-0.73957">
        <ele>188.4</ele>
        <time>2020-10-31T10:18:21Z</time>
      </trkpt>
      <trkpt lat="46.80504" lon="-0.73944">
        <ele>189.3</ele>
        <time>2020-10-31T10:18:29Z</time>
      </trkpt>
      <trkpt lat="46.80522" lon="-0.73939">
        <ele>189.8</ele>
        <time>2020-10-31T10:18:34Z</time>
      </trkpt>
      <trkpt lat="46.80526" lon="-0.73941">
        <ele>189.8</ele>
        <time>2020-10-31T10:18:35Z</time>
      </trkpt>
      <trkpt lat="46.80537" lon="-0.7396">
        <ele>189.5</ele>
        <time>2020-10-31T10:18:40Z</time>
      </trkpt>
      <trkpt lat="46.80549" lon="-0.73995">
        <ele>189.2</ele>
        <time>2020-10-31T10:18:47Z</time>
      </trkpt>
      <trkpt lat="46.80562" lon="-0.74035">
        <ele>189.5</ele>
        <time>2020-10-31T10:18:55Z</time>
      </trkpt>
      <trkpt lat="46.80564" lon="-0.74048">
        <ele>189.6</ele>
        <time>2020-10-31T10:18:58Z</time>
      </trkpt>
      <trkpt lat="46.8057" lon="-0.7407">
        <ele>189.8</ele>
        <time>2020-10-31T10:19:03Z</time>
      </trkpt>
      <trkpt lat="46.80572" lon="-0.74073">
        <ele>189.8</ele>
        <time>2020-10-31T10:19:04Z</time>
      </trkpt>
      <trkpt lat="46.80579" lon="-0.74076">
        <ele>190.1</ele>
        <time>2020-10-31T10:19:07Z</time>
      </trkpt>
      <trkpt lat="46.80589" lon="-0.74072">
        <ele>190.4</ele>
        <time>2020-10-31T10:19:11Z</time>
      </trkpt>
      <trkpt lat="46.80598" lon="-0.7407">
        <ele>190.7</ele>
        <time>2020-10-31T10:19:15Z</time>
      </trkpt>
      <trkpt lat="46.80616" lon="-0.74065">
        <ele>191.3</ele>
        <time>2020-10-31T10:19:21Z</time>
      </trkpt>
      <trkpt lat="46.8064" lon="-0.74046">
        <ele>192</ele>
        <time>2020-10-31T10:19:29Z</time>
      </trkpt>
      <trkpt lat="46.80655" lon="-0.74024">
        <ele>192.3</ele>
        <time>2020-10-31T10:19:36Z</time>
      </trkpt>
      <trkpt lat="46.80675" lon="-0.74001">
        <ele>192.6</ele>
        <time>2020-10-31T10:19:44Z</time>
      </trkpt>
      <trkpt lat="46.80697" lon="-0.73981">
        <ele>193.1</ele>
        <time>2020-10-31T10:19:52Z</time>
      </trkpt>
      <trkpt lat="46.80717" lon="-0.73963">
        <ele>193.5</ele>
        <time>2020-10-31T10:20:00Z</time>
      </trkpt>
      <trkpt lat="46.80736" lon="-0.73947">
        <ele>193.9</ele>
        <time>2020-10-31T10:20:07Z</time>
      </trkpt>
      <trkpt lat="46.8075" lon="-0.73939">
        <ele>194.3</ele>
        <time>2020-10-31T10:20:12Z</time>
      </trkpt>
      <trkpt lat="46.80768" lon="-0.73925">
        <ele>194.9</ele>
        <time>2020-10-31T10:20:19Z</time>
      </trkpt>
      <trkpt lat="46.8079" lon="-0.73908">
        <ele>195.8</ele>
        <time>2020-10-31T10:20:27Z</time>
      </trkpt>
      <trkpt lat="46.80809" lon="-0.73896">
        <ele>197</ele>
        <time>2020-10-31T10:20:33Z</time>
      </trkpt>
      <trkpt lat="46.80828" lon="-0.73894">
        <ele>198</ele>
        <time>2020-10-31T10:20:39Z</time>
      </trkpt>
      <trkpt lat="46.80843" lon="-0.73903">
        <ele>199</ele>
        <time>2020-10-31T10:20:44Z</time>
      </trkpt>
      <trkpt lat="46.80846" lon="-0.73902">
        <ele>198.9</ele>
        <time>2020-10-31T10:20:45Z</time>
      </trkpt>
      <trkpt lat="46.80848" lon="-0.73895">
        <ele>198.9</ele>
        <time>2020-10-31T10:20:47Z</time>
      </trkpt>
      <trkpt lat="46.80856" lon="-0.73866">
        <ele>198.5</ele>
        <time>2020-10-31T10:20:53Z</time>
      </trkpt>
      <trkpt lat="46.8086" lon="-0.73855">
        <ele>198.3</ele>
        <time>2020-10-31T10:20:55Z</time>
      </trkpt>
      <trkpt lat="46.80864" lon="-0.73844">
        <ele>198.1</ele>
        <time>2020-10-31T10:20:57Z</time>
      </trkpt>
      <trkpt lat="46.80867" lon="-0.73832">
        <ele>197.9</ele>
        <time>2020-10-31T10:20:59Z</time>
      </trkpt>
      <trkpt lat="46.80871" lon="-0.73822">
        <ele>197.7</ele>
        <time>2020-10-31T10:21:01Z</time>
      </trkpt>
      <trkpt lat="46.80874" lon="-0.7382">
        <ele>197.7</ele>
        <time>2020-10-31T10:21:02Z</time>
      </trkpt>
      <trkpt lat="46.80882" lon="-0.73822">
        <ele>197.9</ele>
        <time>2020-10-31T10:21:04Z</time>
      </trkpt>
      <trkpt lat="46.80891" lon="-0.73828">
        <ele>198.2</ele>
        <time>2020-10-31T10:21:06Z</time>
      </trkpt>
      <trkpt lat="46.80925" lon="-0.73855">
        <ele>199.2</ele>
        <time>2020-10-31T10:21:14Z</time>
      </trkpt>
      <trkpt lat="46.80957" lon="-0.7388">
        <ele>199.5</ele>
        <time>2020-10-31T10:21:21Z</time>
      </trkpt>
      <trkpt lat="46.80989" lon="-0.73905">
        <ele>200.1</ele>
        <time>2020-10-31T10:21:28Z</time>
      </trkpt>
      <trkpt lat="46.81017" lon="-0.73924">
        <ele>200.3</ele>
        <time>2020-10-31T10:21:35Z</time>
      </trkpt>
      <trkpt lat="46.81024" lon="-0.73941">
        <ele>200.1</ele>
        <time>2020-10-31T10:21:39Z</time>
      </trkpt>
      <trkpt lat="46.81028" lon="-0.73945">
        <ele>200</ele>
        <time>2020-10-31T10:21:43Z</time>
      </trkpt>
      <trkpt lat="46.81031" lon="-0.73948">
        <ele>199.9</ele>
        <time>2020-10-31T10:22:23Z</time>
      </trkpt>
      <trkpt lat="46.81034" lon="-0.73952">
        <ele>199.7</ele>
        <time>2020-10-31T10:22:25Z</time>
      </trkpt>
      <trkpt lat="46.81054" lon="-0.73968">
        <ele>198.8</ele>
        <time>2020-10-31T10:22:31Z</time>
      </trkpt>
      <trkpt lat="46.81079" lon="-0.7399">
        <ele>197.4</ele>
        <time>2020-10-31T10:22:37Z</time>
      </trkpt>
      <trkpt lat="46.81106" lon="-0.74023">
        <ele>195.5</ele>
        <time>2020-10-31T10:22:44Z</time>
      </trkpt>
      <trkpt lat="46.81109" lon="-0.74028">
        <ele>195.2</ele>
        <time>2020-10-31T10:22:45Z</time>
      </trkpt>
      <trkpt lat="46.81121" lon="-0.74044">
        <ele>194.2</ele>
        <time>2020-10-31T10:22:48Z</time>
      </trkpt>
      <trkpt lat="46.81148" lon="-0.74078">
        <ele>192.3</ele>
        <time>2020-10-31T10:22:54Z</time>
      </trkpt>
      <trkpt lat="46.81151" lon="-0.74085">
        <ele>192</ele>
        <time>2020-10-31T10:22:55Z</time>
      </trkpt>
      <trkpt lat="46.81169" lon="-0.74126">
        <ele>190.2</ele>
        <time>2020-10-31T10:23:01Z</time>
      </trkpt>
      <trkpt lat="46.81175" lon="-0.74136">
        <ele>190</ele>
        <time>2020-10-31T10:23:03Z</time>
      </trkpt>
      <trkpt lat="46.81184" lon="-0.7417">
        <ele>188.8</ele>
        <time>2020-10-31T10:23:08Z</time>
      </trkpt>
      <trkpt lat="46.81188" lon="-0.74182">
        <ele>188.5</ele>
        <time>2020-10-31T10:23:10Z</time>
      </trkpt>
      <trkpt lat="46.81192" lon="-0.74192">
        <ele>188.3</ele>
        <time>2020-10-31T10:23:12Z</time>
      </trkpt>
      <trkpt lat="46.81196" lon="-0.74203">
        <ele>188.1</ele>
        <time>2020-10-31T10:23:14Z</time>
      </trkpt>
      <trkpt lat="46.81201" lon="-0.74216">
        <ele>187.9</ele>
        <time>2020-10-31T10:23:16Z</time>
      </trkpt>
      <trkpt lat="46.81203" lon="-0.74222">
        <ele>187.9</ele>
        <time>2020-10-31T10:23:17Z</time>
      </trkpt>
      <trkpt lat="46.81208" lon="-0.74234">
        <ele>187.4</ele>
        <time>2020-10-31T10:23:19Z</time>
      </trkpt>
      <trkpt lat="46.81215" lon="-0.74251">
        <ele>187.1</ele>
        <time>2020-10-31T10:23:22Z</time>
      </trkpt>
      <trkpt lat="46.8122" lon="-0.74261">
        <ele>186.9</ele>
        <time>2020-10-31T10:23:24Z</time>
      </trkpt>
      <trkpt lat="46.81225" lon="-0.74272">
        <ele>186.9</ele>
        <time>2020-10-31T10:23:26Z</time>
      </trkpt>
      <trkpt lat="46.8123" lon="-0.74282">
        <ele>187</ele>
        <time>2020-10-31T10:23:28Z</time>
      </trkpt>
      <trkpt lat="46.81235" lon="-0.74292">
        <ele>187.1</ele>
        <time>2020-10-31T10:23:30Z</time>
      </trkpt>
      <trkpt lat="46.81252" lon="-0.74322">
        <ele>187.6</ele>
        <time>2020-10-31T10:23:36Z</time>
      </trkpt>
      <trkpt lat="46.8127" lon="-0.74356">
        <ele>188.4</ele>
        <time>2020-10-31T10:23:43Z</time>
      </trkpt>
      <trkpt lat="46.81279" lon="-0.7437">
        <ele>188.7</ele>
        <time>2020-10-31T10:23:47Z</time>
      </trkpt>
      <trkpt lat="46.81293" lon="-0.74388">
        <ele>189.2</ele>
        <time>2020-10-31T10:23:52Z</time>
      </trkpt>
      <trkpt lat="46.81298" lon="-0.74397">
        <ele>189.5</ele>
        <time>2020-10-31T10:23:55Z</time>
      </trkpt>
      <trkpt lat="46.813" lon="-0.74401">
        <ele>189.7</ele>
        <time>2020-10-31T10:23:56Z</time>
      </trkpt>
      <trkpt lat="46.8131" lon="-0.7442">
        <ele>190.5</ele>
        <time>2020-10-31T10:24:01Z</time>
      </trkpt>
      <trkpt lat="46.81329" lon="-0.74443">
        <ele>191.4</ele>
        <time>2020-10-31T10:24:06Z</time>
      </trkpt>
      <trkpt lat="46.81344" lon="-0.74467">
        <ele>192.2</ele>
        <time>2020-10-31T10:24:11Z</time>
      </trkpt>
      <trkpt lat="46.81355" lon="-0.74492">
        <ele>192.7</ele>
        <time>2020-10-31T10:24:16Z</time>
      </trkpt>
      <trkpt lat="46.81366" lon="-0.74514">
        <ele>193</ele>
        <time>2020-10-31T10:24:21Z</time>
      </trkpt>
      <trkpt lat="46.81377" lon="-0.74536">
        <ele>193.1</ele>
        <time>2020-10-31T10:24:27Z</time>
      </trkpt>
      <trkpt lat="46.81385" lon="-0.74558">
        <ele>193.5</ele>
        <time>2020-10-31T10:24:32Z</time>
      </trkpt>
      <trkpt lat="46.81394" lon="-0.7458">
        <ele>193.5</ele>
        <time>2020-10-31T10:24:37Z</time>
      </trkpt>
      <trkpt lat="46.81404" lon="-0.74595">
        <ele>193.5</ele>
        <time>2020-10-31T10:24:41Z</time>
      </trkpt>
      <trkpt lat="46.81419" lon="-0.74624">
        <ele>194.1</ele>
        <time>2020-10-31T10:24:47Z</time>
      </trkpt>
      <trkpt lat="46.81431" lon="-0.74644">
        <ele>194.4</ele>
        <time>2020-10-31T10:24:52Z</time>
      </trkpt>
      <trkpt lat="46.81446" lon="-0.74671">
        <ele>194.9</ele>
        <time>2020-10-31T10:24:58Z</time>
      </trkpt>
      <trkpt lat="46.81454" lon="-0.74694">
        <ele>195.4</ele>
        <time>2020-10-31T10:25:02Z</time>
      </trkpt>
      <trkpt lat="46.81462" lon="-0.74712">
        <ele>196</ele>
        <time>2020-10-31T10:25:05Z</time>
      </trkpt>
      <trkpt lat="46.81468" lon="-0.74723">
        <ele>196.3</ele>
        <time>2020-10-31T10:25:07Z</time>
      </trkpt>
      <trkpt lat="46.81488" lon="-0.74766">
        <ele>196.8</ele>
        <time>2020-10-31T10:25:15Z</time>
      </trkpt>
      <trkpt lat="46.81507" lon="-0.74806">
        <ele>196.4</ele>
        <time>2020-10-31T10:25:22Z</time>
      </trkpt>
      <trkpt lat="46.81513" lon="-0.74819">
        <ele>196.2</ele>
        <time>2020-10-31T10:25:24Z</time>
      </trkpt>
      <trkpt lat="46.81526" lon="-0.74846">
        <ele>195.4</ele>
        <time>2020-10-31T10:25:28Z</time>
      </trkpt>
      <trkpt lat="46.81542" lon="-0.74886">
        <ele>194.2</ele>
        <time>2020-10-31T10:25:33Z</time>
      </trkpt>
      <trkpt lat="46.81568" lon="-0.74961">
        <ele>191</ele>
        <time>2020-10-31T10:25:41Z</time>
      </trkpt>
      <trkpt lat="46.81571" lon="-0.74981">
        <ele>190.9</ele>
        <time>2020-10-31T10:25:43Z</time>
      </trkpt>
      <trkpt lat="46.81574" lon="-0.75001">
        <ele>190.8</ele>
        <time>2020-10-31T10:25:45Z</time>
      </trkpt>
      <trkpt lat="46.81587" lon="-0.75072">
        <ele>190.3</ele>
        <time>2020-10-31T10:25:52Z</time>
      </trkpt>
      <trkpt lat="46.81607" lon="-0.75154">
        <ele>189.1</ele>
        <time>2020-10-31T10:26:00Z</time>
      </trkpt>
      <trkpt lat="46.81611" lon="-0.75175">
        <ele>188.8</ele>
        <time>2020-10-31T10:26:02Z</time>
      </trkpt>
      <trkpt lat="46.8163" lon="-0.75261">
        <ele>186.7</ele>
        <time>2020-10-31T10:26:09Z</time>
      </trkpt>
      <trkpt lat="46.81633" lon="-0.75272">
        <ele>186.6</ele>
        <time>2020-10-31T10:26:10Z</time>
      </trkpt>
      <trkpt lat="46.81639" lon="-0.7533">
        <ele>186.1</ele>
        <time>2020-10-31T10:26:15Z</time>
      </trkpt>
      <trkpt lat="46.81634" lon="-0.75373">
        <ele>186.2</ele>
        <time>2020-10-31T10:26:19Z</time>
      </trkpt>
      <trkpt lat="46.81632" lon="-0.75382">
        <ele>186.3</ele>
        <time>2020-10-31T10:26:20Z</time>
      </trkpt>
      <trkpt lat="46.81618" lon="-0.75446">
        <ele>186</ele>
        <time>2020-10-31T10:26:27Z</time>
      </trkpt>
      <trkpt lat="46.81614" lon="-0.75497">
        <ele>184.9</ele>
        <time>2020-10-31T10:26:32Z</time>
      </trkpt>
      <trkpt lat="46.81617" lon="-0.75577">
        <ele>181.9</ele>
        <time>2020-10-31T10:26:39Z</time>
      </trkpt>
      <trkpt lat="46.81625" lon="-0.75653">
        <ele>179.1</ele>
        <time>2020-10-31T10:26:45Z</time>
      </trkpt>
      <trkpt lat="46.8164" lon="-0.7573">
        <ele>176.5</ele>
        <time>2020-10-31T10:26:51Z</time>
      </trkpt>
      <trkpt lat="46.81662" lon="-0.75804">
        <ele>174.8</ele>
        <time>2020-10-31T10:26:57Z</time>
      </trkpt>
      <trkpt lat="46.81686" lon="-0.75885">
        <ele>174.4</ele>
        <time>2020-10-31T10:27:04Z</time>
      </trkpt>
      <trkpt lat="46.81702" lon="-0.75963">
        <ele>174</ele>
        <time>2020-10-31T10:27:11Z</time>
      </trkpt>
      <trkpt lat="46.8172" lon="-0.7602">
        <ele>174.7</ele>
        <time>2020-10-31T10:27:17Z</time>
      </trkpt>
      <trkpt lat="46.81743" lon="-0.76079">
        <ele>176.2</ele>
        <time>2020-10-31T10:27:24Z</time>
      </trkpt>
      <trkpt lat="46.81752" lon="-0.761">
        <ele>176.5</ele>
        <time>2020-10-31T10:27:27Z</time>
      </trkpt>
      <trkpt lat="46.81757" lon="-0.76122">
        <ele>177</ele>
        <time>2020-10-31T10:27:30Z</time>
      </trkpt>
      <trkpt lat="46.81776" lon="-0.76174">
        <ele>178</ele>
        <time>2020-10-31T10:27:38Z</time>
      </trkpt>
      <trkpt lat="46.81791" lon="-0.76212">
        <ele>177.4</ele>
        <time>2020-10-31T10:27:44Z</time>
      </trkpt>
      <trkpt lat="46.81806" lon="-0.7625">
        <ele>175.9</ele>
        <time>2020-10-31T10:27:49Z</time>
      </trkpt>
      <trkpt lat="46.81816" lon="-0.76288">
        <ele>173.9</ele>
        <time>2020-10-31T10:27:53Z</time>
      </trkpt>
      <trkpt lat="46.81818" lon="-0.763">
        <ele>173.4</ele>
        <time>2020-10-31T10:27:54Z</time>
      </trkpt>
      <trkpt lat="46.81827" lon="-0.76375">
        <ele>170.4</ele>
        <time>2020-10-31T10:28:00Z</time>
      </trkpt>
      <trkpt lat="46.8183" lon="-0.76449">
        <ele>168.8</ele>
        <time>2020-10-31T10:28:06Z</time>
      </trkpt>
      <trkpt lat="46.81843" lon="-0.76519">
        <ele>168</ele>
        <time>2020-10-31T10:28:12Z</time>
      </trkpt>
      <trkpt lat="46.81864" lon="-0.76597">
        <ele>167</ele>
        <time>2020-10-31T10:28:19Z</time>
      </trkpt>
      <trkpt lat="46.81867" lon="-0.76607">
        <ele>166.8</ele>
        <time>2020-10-31T10:28:20Z</time>
      </trkpt>
      <trkpt lat="46.81892" lon="-0.76681">
        <ele>165.5</ele>
        <time>2020-10-31T10:28:27Z</time>
      </trkpt>
      <trkpt lat="46.81896" lon="-0.76691">
        <ele>165.3</ele>
        <time>2020-10-31T10:28:28Z</time>
      </trkpt>
      <trkpt lat="46.81924" lon="-0.76762">
        <ele>164.7</ele>
        <time>2020-10-31T10:28:35Z</time>
      </trkpt>
      <trkpt lat="46.81928" lon="-0.76772">
        <ele>164.8</ele>
        <time>2020-10-31T10:28:36Z</time>
      </trkpt>
      <trkpt lat="46.81953" lon="-0.76834">
        <ele>165.4</ele>
        <time>2020-10-31T10:28:43Z</time>
      </trkpt>
      <trkpt lat="46.81981" lon="-0.76902">
        <ele>166.5</ele>
        <time>2020-10-31T10:28:52Z</time>
      </trkpt>
      <trkpt lat="46.82004" lon="-0.76958">
        <ele>167.1</ele>
        <time>2020-10-31T10:29:00Z</time>
      </trkpt>
      <trkpt lat="46.82026" lon="-0.77013">
        <ele>167.1</ele>
        <time>2020-10-31T10:29:08Z</time>
      </trkpt>
      <trkpt lat="46.8205" lon="-0.77072">
        <ele>166.8</ele>
        <time>2020-10-31T10:29:16Z</time>
      </trkpt>
      <trkpt lat="46.8208" lon="-0.77143">
        <ele>165.9</ele>
        <time>2020-10-31T10:29:25Z</time>
      </trkpt>
      <trkpt lat="46.82084" lon="-0.77151">
        <ele>165.8</ele>
        <time>2020-10-31T10:29:26Z</time>
      </trkpt>
      <trkpt lat="46.82109" lon="-0.77214">
        <ele>165.8</ele>
        <time>2020-10-31T10:29:34Z</time>
      </trkpt>
      <trkpt lat="46.82129" lon="-0.77257">
        <ele>165.8</ele>
        <time>2020-10-31T10:29:40Z</time>
      </trkpt>
      <trkpt lat="46.82134" lon="-0.77263">
        <ele>165.8</ele>
        <time>2020-10-31T10:29:41Z</time>
      </trkpt>
      <trkpt lat="46.82139" lon="-0.77268">
        <ele>165.9</ele>
        <time>2020-10-31T10:29:42Z</time>
      </trkpt>
      <trkpt lat="46.82151" lon="-0.77273">
        <ele>166</ele>
        <time>2020-10-31T10:29:44Z</time>
      </trkpt>
      <trkpt lat="46.82157" lon="-0.77273">
        <ele>165.9</ele>
        <time>2020-10-31T10:29:45Z</time>
      </trkpt>
      <trkpt lat="46.82164" lon="-0.77273">
        <ele>165.9</ele>
        <time>2020-10-31T10:29:46Z</time>
      </trkpt>
      <trkpt lat="46.82183" lon="-0.7727">
        <ele>165.7</ele>
        <time>2020-10-31T10:29:49Z</time>
      </trkpt>
      <trkpt lat="46.82189" lon="-0.7727">
        <ele>165.6</ele>
        <time>2020-10-31T10:29:50Z</time>
      </trkpt>
      <trkpt lat="46.82195" lon="-0.77272">
        <ele>165.4</ele>
        <time>2020-10-31T10:29:51Z</time>
      </trkpt>
      <trkpt lat="46.82213" lon="-0.77282">
        <ele>165.1</ele>
        <time>2020-10-31T10:29:54Z</time>
      </trkpt>
      <trkpt lat="46.82223" lon="-0.77294">
        <ele>164.8</ele>
        <time>2020-10-31T10:29:56Z</time>
      </trkpt>
      <trkpt lat="46.82231" lon="-0.7731">
        <ele>164.5</ele>
        <time>2020-10-31T10:29:58Z</time>
      </trkpt>
      <trkpt lat="46.82251" lon="-0.77368">
        <ele>161.6</ele>
        <time>2020-10-31T10:30:04Z</time>
      </trkpt>
      <trkpt lat="46.82264" lon="-0.77409">
        <ele>158.8</ele>
        <time>2020-10-31T10:30:08Z</time>
      </trkpt>
      <trkpt lat="46.82266" lon="-0.7742">
        <ele>158.1</ele>
        <time>2020-10-31T10:30:09Z</time>
      </trkpt>
      <trkpt lat="46.82266" lon="-0.7743">
        <ele>157.5</ele>
        <time>2020-10-31T10:30:10Z</time>
      </trkpt>
      <trkpt lat="46.82261" lon="-0.77448">
        <ele>157.8</ele>
        <time>2020-10-31T10:30:12Z</time>
      </trkpt>
      <trkpt lat="46.8225" lon="-0.77469">
        <ele>159.1</ele>
        <time>2020-10-31T10:30:15Z</time>
      </trkpt>
      <trkpt lat="46.82247" lon="-0.77475">
        <ele>159.5</ele>
        <time>2020-10-31T10:30:16Z</time>
      </trkpt>
      <trkpt lat="46.8223" lon="-0.77489">
        <ele>161</ele>
        <time>2020-10-31T10:30:21Z</time>
      </trkpt>
      <trkpt lat="46.82206" lon="-0.775">
        <ele>162.7</ele>
        <time>2020-10-31T10:30:27Z</time>
      </trkpt>
      <trkpt lat="46.82203" lon="-0.77504">
        <ele>162.9</ele>
        <time>2020-10-31T10:30:28Z</time>
      </trkpt>
      <trkpt lat="46.82199" lon="-0.77508">
        <ele>163.1</ele>
        <time>2020-10-31T10:30:29Z</time>
      </trkpt>
      <trkpt lat="46.82194" lon="-0.77518">
        <ele>163.3</ele>
        <time>2020-10-31T10:30:31Z</time>
      </trkpt>
      <trkpt lat="46.8219" lon="-0.77529">
        <ele>163.5</ele>
        <time>2020-10-31T10:30:33Z</time>
      </trkpt>
      <trkpt lat="46.82189" lon="-0.77541">
        <ele>163.6</ele>
        <time>2020-10-31T10:30:35Z</time>
      </trkpt>
      <trkpt lat="46.8219" lon="-0.77554">
        <ele>163.6</ele>
        <time>2020-10-31T10:30:37Z</time>
      </trkpt>
      <trkpt lat="46.82194" lon="-0.77572">
        <ele>163.1</ele>
        <time>2020-10-31T10:30:40Z</time>
      </trkpt>
      <trkpt lat="46.822" lon="-0.77584">
        <ele>162.5</ele>
        <time>2020-10-31T10:30:42Z</time>
      </trkpt>
      <trkpt lat="46.8222" lon="-0.77621">
        <ele>160.4</ele>
        <time>2020-10-31T10:30:47Z</time>
      </trkpt>
      <trkpt lat="46.82222" lon="-0.77629">
        <ele>160</ele>
        <time>2020-10-31T10:30:48Z</time>
      </trkpt>
      <trkpt lat="46.82221" lon="-0.77647">
        <ele>159.2</ele>
        <time>2020-10-31T10:30:50Z</time>
      </trkpt>
      <trkpt lat="46.82212" lon="-0.7766">
        <ele>158.1</ele>
        <time>2020-10-31T10:30:52Z</time>
      </trkpt>
      <trkpt lat="46.82207" lon="-0.77665">
        <ele>157.4</ele>
        <time>2020-10-31T10:30:53Z</time>
      </trkpt>
      <trkpt lat="46.82204" lon="-0.77671">
        <ele>156.8</ele>
        <time>2020-10-31T10:30:54Z</time>
      </trkpt>
      <trkpt lat="46.82204" lon="-0.77678">
        <ele>156.1</ele>
        <time>2020-10-31T10:30:55Z</time>
      </trkpt>
      <trkpt lat="46.82213" lon="-0.77689">
        <ele>154.7</ele>
        <time>2020-10-31T10:30:57Z</time>
      </trkpt>
      <trkpt lat="46.82235" lon="-0.77695">
        <ele>152.3</ele>
        <time>2020-10-31T10:31:00Z</time>
      </trkpt>
      <trkpt lat="46.82243" lon="-0.77692">
        <ele>151.4</ele>
        <time>2020-10-31T10:31:01Z</time>
      </trkpt>
      <trkpt lat="46.82251" lon="-0.77685">
        <ele>150.7</ele>
        <time>2020-10-31T10:31:02Z</time>
      </trkpt>
      <trkpt lat="46.82264" lon="-0.7767">
        <ele>150.1</ele>
        <time>2020-10-31T10:31:04Z</time>
      </trkpt>
      <trkpt lat="46.82306" lon="-0.77622">
        <ele>149.3</ele>
        <time>2020-10-31T10:31:11Z</time>
      </trkpt>
      <trkpt lat="46.82317" lon="-0.77609">
        <ele>149.1</ele>
        <time>2020-10-31T10:31:13Z</time>
      </trkpt>
      <trkpt lat="46.82332" lon="-0.77591">
        <ele>149.1</ele>
        <time>2020-10-31T10:31:16Z</time>
      </trkpt>
      <trkpt lat="46.82347" lon="-0.77575">
        <ele>149.2</ele>
        <time>2020-10-31T10:31:19Z</time>
      </trkpt>
      <trkpt lat="46.82352" lon="-0.77572">
        <ele>149.3</ele>
        <time>2020-10-31T10:31:20Z</time>
      </trkpt>
      <trkpt lat="46.82357" lon="-0.77572">
        <ele>149.3</ele>
        <time>2020-10-31T10:31:21Z</time>
      </trkpt>
      <trkpt lat="46.82368" lon="-0.77576">
        <ele>149.3</ele>
        <time>2020-10-31T10:31:23Z</time>
      </trkpt>
      <trkpt lat="46.82402" lon="-0.77591">
        <ele>149.4</ele>
        <time>2020-10-31T10:31:29Z</time>
      </trkpt>
      <trkpt lat="46.82442" lon="-0.77608">
        <ele>151</ele>
        <time>2020-10-31T10:31:37Z</time>
      </trkpt>
      <trkpt lat="46.82456" lon="-0.77616">
        <ele>152</ele>
        <time>2020-10-31T10:31:40Z</time>
      </trkpt>
      <trkpt lat="46.82463" lon="-0.77624">
        <ele>152.7</ele>
        <time>2020-10-31T10:31:42Z</time>
      </trkpt>
      <trkpt lat="46.82467" lon="-0.77627">
        <ele>153.2</ele>
        <time>2020-10-31T10:31:43Z</time>
      </trkpt>
      <trkpt lat="46.8247" lon="-0.77626">
        <ele>153.6</ele>
        <time>2020-10-31T10:31:44Z</time>
      </trkpt>
      <trkpt lat="46.82472" lon="-0.77612">
        <ele>154.2</ele>
        <time>2020-10-31T10:31:47Z</time>
      </trkpt>
      <trkpt lat="46.82466" lon="-0.77582">
        <ele>152.9</ele>
        <time>2020-10-31T10:31:53Z</time>
      </trkpt>
      <trkpt lat="46.82467" lon="-0.77577">
        <ele>152.9</ele>
        <time>2020-10-31T10:31:54Z</time>
      </trkpt>
      <trkpt lat="46.82471" lon="-0.77566">
        <ele>153.6</ele>
        <time>2020-10-31T10:31:56Z</time>
      </trkpt>
      <trkpt lat="46.82492" lon="-0.77531">
        <ele>154.9</ele>
        <time>2020-10-31T10:32:04Z</time>
      </trkpt>
      <trkpt lat="46.82504" lon="-0.7751">
        <ele>155.1</ele>
        <time>2020-10-31T10:32:09Z</time>
      </trkpt>
      <trkpt lat="46.82514" lon="-0.77492">
        <ele>154.5</ele>
        <time>2020-10-31T10:32:13Z</time>
      </trkpt>
      <trkpt lat="46.82517" lon="-0.77487">
        <ele>154.5</ele>
        <time>2020-10-31T10:32:14Z</time>
      </trkpt>
      <trkpt lat="46.82535" lon="-0.77456">
        <ele>154.3</ele>
        <time>2020-10-31T10:32:21Z</time>
      </trkpt>
      <trkpt lat="46.82549" lon="-0.77435">
        <ele>153.7</ele>
        <time>2020-10-31T10:32:26Z</time>
      </trkpt>
      <trkpt lat="46.82568" lon="-0.77403">
        <ele>153.1</ele>
        <time>2020-10-31T10:32:33Z</time>
      </trkpt>
      <trkpt lat="46.8258" lon="-0.77382">
        <ele>152</ele>
        <time>2020-10-31T10:32:38Z</time>
      </trkpt>
      <trkpt lat="46.82586" lon="-0.77372">
        <ele>151.6</ele>
        <time>2020-10-31T10:32:40Z</time>
      </trkpt>
      <trkpt lat="46.82598" lon="-0.77354">
        <ele>150.6</ele>
        <time>2020-10-31T10:32:44Z</time>
      </trkpt>
      <trkpt lat="46.82617" lon="-0.77322">
        <ele>149.9</ele>
        <time>2020-10-31T10:32:51Z</time>
      </trkpt>
      <trkpt lat="46.82631" lon="-0.77299">
        <ele>149.3</ele>
        <time>2020-10-31T10:32:56Z</time>
      </trkpt>
      <trkpt lat="46.82649" lon="-0.77274">
        <ele>148.4</ele>
        <time>2020-10-31T10:33:02Z</time>
      </trkpt>
      <trkpt lat="46.82663" lon="-0.77258">
        <ele>147.3</ele>
        <time>2020-10-31T10:33:08Z</time>
      </trkpt>
      <trkpt lat="46.82676" lon="-0.77246">
        <ele>146.9</ele>
        <time>2020-10-31T10:33:13Z</time>
      </trkpt>
      <trkpt lat="46.82696" lon="-0.77225">
        <ele>146.8</ele>
        <time>2020-10-31T10:33:20Z</time>
      </trkpt>
      <trkpt lat="46.82715" lon="-0.77204">
        <ele>147.2</ele>
        <time>2020-10-31T10:33:26Z</time>
      </trkpt>
      <trkpt lat="46.82728" lon="-0.77186">
        <ele>147.5</ele>
        <time>2020-10-31T10:33:30Z</time>
      </trkpt>
      <trkpt lat="46.82739" lon="-0.77167">
        <ele>147.7</ele>
        <time>2020-10-31T10:33:35Z</time>
      </trkpt>
      <trkpt lat="46.82748" lon="-0.77152">
        <ele>147.8</ele>
        <time>2020-10-31T10:33:40Z</time>
      </trkpt>
      <trkpt lat="46.82755" lon="-0.77138">
        <ele>148</ele>
        <time>2020-10-31T10:33:44Z</time>
      </trkpt>
      <trkpt lat="46.82764" lon="-0.77125">
        <ele>148.1</ele>
        <time>2020-10-31T10:33:49Z</time>
      </trkpt>
      <trkpt lat="46.82777" lon="-0.77107">
        <ele>148.2</ele>
        <time>2020-10-31T10:33:55Z</time>
      </trkpt>
      <trkpt lat="46.82789" lon="-0.77091">
        <ele>148.4</ele>
        <time>2020-10-31T10:34:00Z</time>
      </trkpt>
      <trkpt lat="46.82802" lon="-0.77074">
        <ele>148.7</ele>
        <time>2020-10-31T10:34:05Z</time>
      </trkpt>
      <trkpt lat="46.82814" lon="-0.7705">
        <ele>148.7</ele>
        <time>2020-10-31T10:34:11Z</time>
      </trkpt>
      <trkpt lat="46.82825" lon="-0.77024">
        <ele>148.5</ele>
        <time>2020-10-31T10:34:17Z</time>
      </trkpt>
      <trkpt lat="46.82833" lon="-0.76995">
        <ele>148.3</ele>
        <time>2020-10-31T10:34:23Z</time>
      </trkpt>
      <trkpt lat="46.82836" lon="-0.76976">
        <ele>147.8</ele>
        <time>2020-10-31T10:34:27Z</time>
      </trkpt>
      <trkpt lat="46.82839" lon="-0.76947">
        <ele>146.9</ele>
        <time>2020-10-31T10:34:33Z</time>
      </trkpt>
      <trkpt lat="46.82839" lon="-0.76943">
        <ele>146.8</ele>
        <time>2020-10-31T10:34:34Z</time>
      </trkpt>
      <trkpt lat="46.82844" lon="-0.76928">
        <ele>146.5</ele>
        <time>2020-10-31T10:34:37Z</time>
      </trkpt>
      <trkpt lat="46.82853" lon="-0.76902">
        <ele>145.7</ele>
        <time>2020-10-31T10:34:42Z</time>
      </trkpt>
      <trkpt lat="46.82858" lon="-0.76881">
        <ele>145.7</ele>
        <time>2020-10-31T10:34:46Z</time>
      </trkpt>
      <trkpt lat="46.82859" lon="-0.76876">
        <ele>145.8</ele>
        <time>2020-10-31T10:34:47Z</time>
      </trkpt>
      <trkpt lat="46.82862" lon="-0.76867">
        <ele>145.9</ele>
        <time>2020-10-31T10:34:49Z</time>
      </trkpt>
      <trkpt lat="46.82869" lon="-0.76842">
        <ele>146.3</ele>
        <time>2020-10-31T10:34:53Z</time>
      </trkpt>
      <trkpt lat="46.82877" lon="-0.76816">
        <ele>146.6</ele>
        <time>2020-10-31T10:34:58Z</time>
      </trkpt>
      <trkpt lat="46.82886" lon="-0.76789">
        <ele>146.7</ele>
        <time>2020-10-31T10:35:03Z</time>
      </trkpt>
      <trkpt lat="46.82895" lon="-0.76768">
        <ele>146.9</ele>
        <time>2020-10-31T10:35:07Z</time>
      </trkpt>
      <trkpt lat="46.82899" lon="-0.76754">
        <ele>147</ele>
        <time>2020-10-31T10:35:10Z</time>
      </trkpt>
      <trkpt lat="46.82903" lon="-0.76738">
        <ele>147</ele>
        <time>2020-10-31T10:35:14Z</time>
      </trkpt>
      <trkpt lat="46.82904" lon="-0.76735">
        <ele>147</ele>
        <time>2020-10-31T10:35:16Z</time>
      </trkpt>
      <trkpt lat="46.82918" lon="-0.76729">
        <ele>147.2</ele>
        <time>2020-10-31T10:35:40Z</time>
      </trkpt>
      <trkpt lat="46.8292" lon="-0.76731">
        <ele>147.3</ele>
        <time>2020-10-31T10:35:41Z</time>
      </trkpt>
      <trkpt lat="46.82932" lon="-0.76742">
        <ele>147.3</ele>
        <time>2020-10-31T10:35:46Z</time>
      </trkpt>
      <trkpt lat="46.82942" lon="-0.76751">
        <ele>147.3</ele>
        <time>2020-10-31T10:35:50Z</time>
      </trkpt>
      <trkpt lat="46.82955" lon="-0.76765">
        <ele>147.3</ele>
        <time>2020-10-31T10:35:55Z</time>
      </trkpt>
      <trkpt lat="46.82968" lon="-0.76779">
        <ele>147.4</ele>
        <time>2020-10-31T10:36:00Z</time>
      </trkpt>
      <trkpt lat="46.82977" lon="-0.76789">
        <ele>147.6</ele>
        <time>2020-10-31T10:36:04Z</time>
      </trkpt>
      <trkpt lat="46.82982" lon="-0.76797">
        <ele>147.7</ele>
        <time>2020-10-31T10:36:07Z</time>
      </trkpt>
      <trkpt lat="46.82983" lon="-0.76799">
        <ele>147.8</ele>
        <time>2020-10-31T10:36:08Z</time>
      </trkpt>
      <trkpt lat="46.82992" lon="-0.76808">
        <ele>148</ele>
        <time>2020-10-31T10:36:12Z</time>
      </trkpt>
      <trkpt lat="46.82994" lon="-0.76809">
        <ele>148</ele>
        <time>2020-10-31T10:36:13Z</time>
      </trkpt>
      <trkpt lat="46.83004" lon="-0.76817">
        <ele>148.2</ele>
        <time>2020-10-31T10:36:18Z</time>
      </trkpt>
      <trkpt lat="46.83013" lon="-0.76827">
        <ele>148.4</ele>
        <time>2020-10-31T10:36:24Z</time>
      </trkpt>
      <trkpt lat="46.83013" lon="-0.76829">
        <ele>148.5</ele>
        <time>2020-10-31T10:36:25Z</time>
      </trkpt>
      <trkpt lat="46.83015" lon="-0.76832">
        <ele>148.6</ele>
        <time>2020-10-31T10:36:27Z</time>
      </trkpt>
      <trkpt lat="46.83017" lon="-0.76834">
        <ele>148.6</ele>
        <time>2020-10-31T10:36:28Z</time>
      </trkpt>
      <trkpt lat="46.83032" lon="-0.76849">
        <ele>148.9</ele>
        <time>2020-10-31T10:36:33Z</time>
      </trkpt>
      <trkpt lat="46.83052" lon="-0.76865">
        <ele>149.2</ele>
        <time>2020-10-31T10:36:38Z</time>
      </trkpt>
      <trkpt lat="46.83076" lon="-0.76893">
        <ele>149.5</ele>
        <time>2020-10-31T10:36:45Z</time>
      </trkpt>
      <trkpt lat="46.83094" lon="-0.76915">
        <ele>149.9</ele>
        <time>2020-10-31T10:36:50Z</time>
      </trkpt>
      <trkpt lat="46.83098" lon="-0.7692">
        <ele>150</ele>
        <time>2020-10-31T10:36:52Z</time>
      </trkpt>
      <trkpt lat="46.83097" lon="-0.76923">
        <ele>150.1</ele>
        <time>2020-10-31T10:36:53Z</time>
      </trkpt>
      <trkpt lat="46.83088" lon="-0.76933">
        <ele>150.3</ele>
        <time>2020-10-31T10:36:57Z</time>
      </trkpt>
      <trkpt lat="46.83083" lon="-0.76943">
        <ele>150.4</ele>
        <time>2020-10-31T10:37:00Z</time>
      </trkpt>
      <trkpt lat="46.83084" lon="-0.76947">
        <ele>150.5</ele>
        <time>2020-10-31T10:37:01Z</time>
      </trkpt>
      <trkpt lat="46.83094" lon="-0.76965">
        <ele>150.9</ele>
        <time>2020-10-31T10:37:05Z</time>
      </trkpt>
      <trkpt lat="46.83107" lon="-0.76993">
        <ele>151.5</ele>
        <time>2020-10-31T10:37:11Z</time>
      </trkpt>
      <trkpt lat="46.83122" lon="-0.77023">
        <ele>152.2</ele>
        <time>2020-10-31T10:37:18Z</time>
      </trkpt>
      <trkpt lat="46.83141" lon="-0.77063">
        <ele>152.7</ele>
        <time>2020-10-31T10:37:27Z</time>
      </trkpt>
      <trkpt lat="46.83159" lon="-0.77099">
        <ele>153.6</ele>
        <time>2020-10-31T10:37:35Z</time>
      </trkpt>
      <trkpt lat="46.83176" lon="-0.77136">
        <ele>155.2</ele>
        <time>2020-10-31T10:37:43Z</time>
      </trkpt>
      <trkpt lat="46.8318" lon="-0.77142">
        <ele>155.4</ele>
        <time>2020-10-31T10:37:45Z</time>
      </trkpt>
      <trkpt lat="46.83183" lon="-0.77142">
        <ele>155.5</ele>
        <time>2020-10-31T10:37:46Z</time>
      </trkpt>
      <trkpt lat="46.83201" lon="-0.77129">
        <ele>155</ele>
        <time>2020-10-31T10:37:51Z</time>
      </trkpt>
      <trkpt lat="46.83228" lon="-0.77107">
        <ele>154.1</ele>
        <time>2020-10-31T10:37:58Z</time>
      </trkpt>
      <trkpt lat="46.83252" lon="-0.77087">
        <ele>153.4</ele>
        <time>2020-10-31T10:38:04Z</time>
      </trkpt>
      <trkpt lat="46.83263" lon="-0.77076">
        <ele>153.2</ele>
        <time>2020-10-31T10:38:07Z</time>
      </trkpt>
      <trkpt lat="46.83275" lon="-0.77068">
        <ele>153</ele>
        <time>2020-10-31T10:38:10Z</time>
      </trkpt>
      <trkpt lat="46.83278" lon="-0.77066">
        <ele>152.9</ele>
        <time>2020-10-31T10:38:11Z</time>
      </trkpt>
      <trkpt lat="46.83284" lon="-0.77068">
        <ele>152.9</ele>
        <time>2020-10-31T10:38:13Z</time>
      </trkpt>
      <trkpt lat="46.83289" lon="-0.7708">
        <ele>153</ele>
        <time>2020-10-31T10:38:15Z</time>
      </trkpt>
      <trkpt lat="46.83293" lon="-0.77095">
        <ele>153.2</ele>
        <time>2020-10-31T10:38:17Z</time>
      </trkpt>
      <trkpt lat="46.83311" lon="-0.77147">
        <ele>153.6</ele>
        <time>2020-10-31T10:38:24Z</time>
      </trkpt>
      <trkpt lat="46.83326" lon="-0.77187">
        <ele>153.3</ele>
        <time>2020-10-31T10:38:30Z</time>
      </trkpt>
      <trkpt lat="46.83332" lon="-0.77199">
        <ele>153</ele>
        <time>2020-10-31T10:38:32Z</time>
      </trkpt>
      <trkpt lat="46.83332" lon="-0.77211">
        <ele>152.9</ele>
        <time>2020-10-31T10:38:34Z</time>
      </trkpt>
      <trkpt lat="46.83321" lon="-0.77219">
        <ele>153.1</ele>
        <time>2020-10-31T10:38:37Z</time>
      </trkpt>
      <trkpt lat="46.83317" lon="-0.77221">
        <ele>153.2</ele>
        <time>2020-10-31T10:38:38Z</time>
      </trkpt>
      <trkpt lat="46.83316" lon="-0.77229">
        <ele>153.2</ele>
        <time>2020-10-31T10:38:40Z</time>
      </trkpt>
      <trkpt lat="46.83326" lon="-0.77258">
        <ele>152.8</ele>
        <time>2020-10-31T10:38:45Z</time>
      </trkpt>
      <trkpt lat="46.83329" lon="-0.77264">
        <ele>152.7</ele>
        <time>2020-10-31T10:38:46Z</time>
      </trkpt>
      <trkpt lat="46.83337" lon="-0.77269">
        <ele>152.5</ele>
        <time>2020-10-31T10:38:48Z</time>
      </trkpt>
      <trkpt lat="46.83347" lon="-0.77267">
        <ele>152.3</ele>
        <time>2020-10-31T10:38:50Z</time>
      </trkpt>
      <trkpt lat="46.83358" lon="-0.7727">
        <ele>151.9</ele>
        <time>2020-10-31T10:38:52Z</time>
      </trkpt>
      <trkpt lat="46.83394" lon="-0.77292">
        <ele>151</ele>
        <time>2020-10-31T10:38:59Z</time>
      </trkpt>
      <trkpt lat="46.83409" lon="-0.77301">
        <ele>150.9</ele>
        <time>2020-10-31T10:39:02Z</time>
      </trkpt>
      <trkpt lat="46.83418" lon="-0.77306">
        <ele>150.7</ele>
        <time>2020-10-31T10:39:04Z</time>
      </trkpt>
      <trkpt lat="46.83444" lon="-0.77324">
        <ele>149.9</ele>
        <time>2020-10-31T10:39:09Z</time>
      </trkpt>
      <trkpt lat="46.83449" lon="-0.77327">
        <ele>149.7</ele>
        <time>2020-10-31T10:39:10Z</time>
      </trkpt>
      <trkpt lat="46.83468" lon="-0.77332">
        <ele>149.4</ele>
        <time>2020-10-31T10:39:13Z</time>
      </trkpt>
      <trkpt lat="46.8348" lon="-0.77335">
        <ele>149.3</ele>
        <time>2020-10-31T10:39:15Z</time>
      </trkpt>
      <trkpt lat="46.8349" lon="-0.77391">
        <ele>148.7</ele>
        <time>2020-10-31T08:04:36Z</time>
      </trkpt>
      <trkpt lat="46.83478" lon="-0.77401">
        <ele>148.7</ele>
        <time>2020-10-31T08:04:40Z</time>
      </trkpt>
      <trkpt lat="46.83467" lon="-0.77425">
        <ele>148.7</ele>
        <time>2020-10-31T08:04:46Z</time>
      </trkpt>
      <trkpt lat="46.83452" lon="-0.77429">
        <ele>148.7</ele>
        <time>2020-10-31T08:04:50Z</time>
      </trkpt>
      <trkpt lat="46.83415" lon="-0.77426">
        <ele>149.2</ele>
        <time>2020-10-31T08:04:59Z</time>
      </trkpt>
      <trkpt lat="46.83394" lon="-0.77426">
        <ele>149.6</ele>
        <time>2020-10-31T08:05:05Z</time>
      </trkpt>
      <trkpt lat="46.8339" lon="-0.77441">
        <ele>149.6</ele>
        <time>2020-10-31T08:05:08Z</time>
      </trkpt>
      <trkpt lat="46.83384" lon="-0.7748">
        <ele>149.5</ele>
        <time>2020-10-31T08:05:15Z</time>
      </trkpt>
      <trkpt lat="46.83377" lon="-0.77524">
        <ele>149.7</ele>
        <time>2020-10-31T08:05:23Z</time>
      </trkpt>
      <trkpt lat="46.83373" lon="-0.77555">
        <ele>149.9</ele>
        <time>2020-10-31T08:05:29Z</time>
      </trkpt>
      <trkpt lat="46.83367" lon="-0.77585">
        <ele>150.4</ele>
        <time>2020-10-31T08:05:36Z</time>
      </trkpt>
      <trkpt lat="46.83366" lon="-0.77589">
        <ele>150.5</ele>
        <time>2020-10-31T08:05:37Z</time>
      </trkpt>
      <trkpt lat="46.83367" lon="-0.77594">
        <ele>150.5</ele>
        <time>2020-10-31T08:05:39Z</time>
      </trkpt>
      <trkpt lat="46.83362" lon="-0.77621">
        <ele>150.9</ele>
        <time>2020-10-31T08:05:45Z</time>
      </trkpt>
      <trkpt lat="46.83358" lon="-0.7765">
        <ele>151.3</ele>
        <time>2020-10-31T08:05:51Z</time>
      </trkpt>
      <trkpt lat="46.83353" lon="-0.77674">
        <ele>151.8</ele>
        <time>2020-10-31T08:05:56Z</time>
      </trkpt>
      <trkpt lat="46.83349" lon="-0.77709">
        <ele>152.4</ele>
        <time>2020-10-31T08:06:03Z</time>
      </trkpt>
      <trkpt lat="46.83343" lon="-0.77744">
        <ele>153</ele>
        <time>2020-10-31T08:06:10Z</time>
      </trkpt>
      <trkpt lat="46.83335" lon="-0.77789">
        <ele>153.8</ele>
        <time>2020-10-31T08:06:19Z</time>
      </trkpt>
      <trkpt lat="46.8333" lon="-0.77808">
        <ele>154.1</ele>
        <time>2020-10-31T08:06:24Z</time>
      </trkpt>
      <trkpt lat="46.83327" lon="-0.77807">
        <ele>154.2</ele>
        <time>2020-10-31T08:06:25Z</time>
      </trkpt>
      <trkpt lat="46.83317" lon="-0.77798">
        <ele>154.2</ele>
        <time>2020-10-31T08:06:29Z</time>
      </trkpt>
      <trkpt lat="46.83305" lon="-0.77775">
        <ele>154.4</ele>
        <time>2020-10-31T08:06:34Z</time>
      </trkpt>
      <trkpt lat="46.83303" lon="-0.7777">
        <ele>154.4</ele>
        <time>2020-10-31T08:06:35Z</time>
      </trkpt>
      <trkpt lat="46.833" lon="-0.77764">
        <ele>154.5</ele>
        <time>2020-10-31T08:06:36Z</time>
      </trkpt>
      <trkpt lat="46.83287" lon="-0.77738">
        <ele>154.6</ele>
        <time>2020-10-31T08:06:41Z</time>
      </trkpt>
      <trkpt lat="46.83284" lon="-0.77733">
        <ele>154.6</ele>
        <time>2020-10-31T08:06:42Z</time>
      </trkpt>
      <trkpt lat="46.83266" lon="-0.77713">
        <ele>154.8</ele>
        <time>2020-10-31T08:06:47Z</time>
      </trkpt>
      <trkpt lat="46.83245" lon="-0.77697">
        <ele>155.1</ele>
        <time>2020-10-31T08:06:53Z</time>
      </trkpt>
      <trkpt lat="46.83233" lon="-0.77691">
        <ele>156.1</ele>
        <time>2020-10-31T08:06:57Z</time>
      </trkpt>
      <trkpt lat="46.83222" lon="-0.77685">
        <ele>157</ele>
        <time>2020-10-31T08:07:01Z</time>
      </trkpt>
      <trkpt lat="46.8321" lon="-0.77679">
        <ele>158.1</ele>
        <time>2020-10-31T08:07:06Z</time>
      </trkpt>
      <trkpt lat="46.83199" lon="-0.77672">
        <ele>158.7</ele>
        <time>2020-10-31T08:07:11Z</time>
      </trkpt>
      <trkpt lat="46.83187" lon="-0.77666">
        <ele>159.6</ele>
        <time>2020-10-31T08:07:16Z</time>
      </trkpt>
      <trkpt lat="46.83174" lon="-0.77659">
        <ele>160.9</ele>
        <time>2020-10-31T08:07:20Z</time>
      </trkpt>
      <trkpt lat="46.83155" lon="-0.77649">
        <ele>162.6</ele>
        <time>2020-10-31T08:07:27Z</time>
      </trkpt>
      <trkpt lat="46.83142" lon="-0.77647">
        <ele>163.8</ele>
        <time>2020-10-31T08:07:33Z</time>
      </trkpt>
      <trkpt lat="46.83133" lon="-0.77646">
        <ele>164.1</ele>
        <time>2020-10-31T08:07:38Z</time>
      </trkpt>
      <trkpt lat="46.8313" lon="-0.77645">
        <ele>164.4</ele>
        <time>2020-10-31T08:07:39Z</time>
      </trkpt>
      <trkpt lat="46.83121" lon="-0.77644">
        <ele>164.6</ele>
        <time>2020-10-31T08:07:44Z</time>
      </trkpt>
      <trkpt lat="46.83111" lon="-0.77643">
        <ele>164.9</ele>
        <time>2020-10-31T08:07:49Z</time>
      </trkpt>
      <trkpt lat="46.83101" lon="-0.7764">
        <ele>165.2</ele>
        <time>2020-10-31T08:07:54Z</time>
      </trkpt>
      <trkpt lat="46.83088" lon="-0.77633">
        <ele>166.9</ele>
        <time>2020-10-31T08:08:00Z</time>
      </trkpt>
      <trkpt lat="46.83073" lon="-0.77624">
        <ele>168.3</ele>
        <time>2020-10-31T08:08:06Z</time>
      </trkpt>
      <trkpt lat="46.8305" lon="-0.77612">
        <ele>169.3</ele>
        <time>2020-10-31T08:08:14Z</time>
      </trkpt>
      <trkpt lat="46.83032" lon="-0.77604">
        <ele>169.8</ele>
        <time>2020-10-31T08:08:21Z</time>
      </trkpt>
      <trkpt lat="46.8301" lon="-0.77599">
        <ele>170.1</ele>
        <time>2020-10-31T08:08:28Z</time>
      </trkpt>
      <trkpt lat="46.82988" lon="-0.77604">
        <ele>170.3</ele>
        <time>2020-10-31T08:08:35Z</time>
      </trkpt>
      <trkpt lat="46.8296" lon="-0.77616">
        <ele>170.4</ele>
        <time>2020-10-31T08:08:44Z</time>
      </trkpt>
      <trkpt lat="46.82934" lon="-0.77625">
        <ele>170.3</ele>
        <time>2020-10-31T08:08:52Z</time>
      </trkpt>
      <trkpt lat="46.82912" lon="-0.77638">
        <ele>169.8</ele>
        <time>2020-10-31T08:08:59Z</time>
      </trkpt>
      <trkpt lat="46.82883" lon="-0.77657">
        <ele>171.3</ele>
        <time>2020-10-31T08:09:08Z</time>
      </trkpt>
      <trkpt lat="46.82866" lon="-0.77661">
        <ele>171.7</ele>
        <time>2020-10-31T08:09:13Z</time>
      </trkpt>
      <trkpt lat="46.82847" lon="-0.77662">
        <ele>171.9</ele>
        <time>2020-10-31T08:09:20Z</time>
      </trkpt>
      <trkpt lat="46.82829" lon="-0.77662">
        <ele>171.8</ele>
        <time>2020-10-31T08:09:27Z</time>
      </trkpt>
      <trkpt lat="46.82815" lon="-0.77663">
        <ele>171.8</ele>
        <time>2020-10-31T08:09:33Z</time>
      </trkpt>
      <trkpt lat="46.82805" lon="-0.77662">
        <ele>171.9</ele>
        <time>2020-10-31T08:09:38Z</time>
      </trkpt>
      <trkpt lat="46.82803" lon="-0.77661">
        <ele>171.8</ele>
        <time>2020-10-31T08:09:39Z</time>
      </trkpt>
      <trkpt lat="46.82794" lon="-0.77661">
        <ele>171.9</ele>
        <time>2020-10-31T08:09:43Z</time>
      </trkpt>
      <trkpt lat="46.82782" lon="-0.7766">
        <ele>172.1</ele>
        <time>2020-10-31T08:09:49Z</time>
      </trkpt>
      <trkpt lat="46.82767" lon="-0.77658">
        <ele>172.5</ele>
        <time>2020-10-31T08:09:55Z</time>
      </trkpt>
      <trkpt lat="46.82751" lon="-0.77657">
        <ele>173.3</ele>
        <time>2020-10-31T08:10:01Z</time>
      </trkpt>
      <trkpt lat="46.82738" lon="-0.77656">
        <ele>173.9</ele>
        <time>2020-10-31T08:10:06Z</time>
      </trkpt>
      <trkpt lat="46.8272" lon="-0.77654">
        <ele>174.5</ele>
        <time>2020-10-31T08:10:12Z</time>
      </trkpt>
      <trkpt lat="46.82706" lon="-0.77646">
        <ele>174.4</ele>
        <time>2020-10-31T08:10:17Z</time>
      </trkpt>
      <trkpt lat="46.82694" lon="-0.77635">
        <ele>174.1</ele>
        <time>2020-10-31T08:10:21Z</time>
      </trkpt>
      <trkpt lat="46.82677" lon="-0.77624">
        <ele>173.4</ele>
        <time>2020-10-31T08:10:26Z</time>
      </trkpt>
      <trkpt lat="46.82658" lon="-0.77615">
        <ele>172.6</ele>
        <time>2020-10-31T08:10:31Z</time>
      </trkpt>
      <trkpt lat="46.82647" lon="-0.77616">
        <ele>172.2</ele>
        <time>2020-10-31T08:10:33Z</time>
      </trkpt>
      <trkpt lat="46.82634" lon="-0.77622">
        <ele>172</ele>
        <time>2020-10-31T08:10:36Z</time>
      </trkpt>
      <trkpt lat="46.82617" lon="-0.77633">
        <ele>171.7</ele>
        <time>2020-10-31T08:10:40Z</time>
      </trkpt>
      <trkpt lat="46.82607" lon="-0.77636">
        <ele>171</ele>
        <time>2020-10-31T08:10:42Z</time>
      </trkpt>
      <trkpt lat="46.82601" lon="-0.77637">
        <ele>170.4</ele>
        <time>2020-10-31T08:10:43Z</time>
      </trkpt>
      <trkpt lat="46.82583" lon="-0.77635">
        <ele>168.5</ele>
        <time>2020-10-31T08:10:46Z</time>
      </trkpt>
      <trkpt lat="46.82577" lon="-0.77633">
        <ele>167.5</ele>
        <time>2020-10-31T08:10:47Z</time>
      </trkpt>
      <trkpt lat="46.82566" lon="-0.77628">
        <ele>165.9</ele>
        <time>2020-10-31T08:10:49Z</time>
      </trkpt>
      <trkpt lat="46.82549" lon="-0.77622">
        <ele>163.8</ele>
        <time>2020-10-31T08:10:52Z</time>
      </trkpt>
      <trkpt lat="46.82528" lon="-0.77618">
        <ele>161.5</ele>
        <time>2020-10-31T08:10:55Z</time>
      </trkpt>
      <trkpt lat="46.82504" lon="-0.77614">
        <ele>159</ele>
        <time>2020-10-31T08:10:58Z</time>
      </trkpt>
      <trkpt lat="46.82491" lon="-0.7761">
        <ele>157.5</ele>
        <time>2020-10-31T08:11:00Z</time>
      </trkpt>
      <trkpt lat="46.82482" lon="-0.77612">
        <ele>155.9</ele>
        <time>2020-10-31T08:11:02Z</time>
      </trkpt>
      <trkpt lat="46.82474" lon="-0.77625">
        <ele>154.8</ele>
        <time>2020-10-31T08:11:05Z</time>
      </trkpt>
      <trkpt lat="46.82464" lon="-0.77624">
        <ele>152.9</ele>
        <time>2020-10-31T08:11:08Z</time>
      </trkpt>
      <trkpt lat="46.82455" lon="-0.77617">
        <ele>152.1</ele>
        <time>2020-10-31T08:11:10Z</time>
      </trkpt>
      <trkpt lat="46.82444" lon="-0.7761">
        <ele>151.2</ele>
        <time>2020-10-31T08:11:12Z</time>
      </trkpt>
      <trkpt lat="46.82404" lon="-0.77592">
        <ele>149.5</ele>
        <time>2020-10-31T08:11:18Z</time>
      </trkpt>
      <trkpt lat="46.82353" lon="-0.7757">
        <ele>149.3</ele>
        <time>2020-10-31T08:11:26Z</time>
      </trkpt>
      <trkpt lat="46.82337" lon="-0.7756">
        <ele>149.6</ele>
        <time>2020-10-31T08:11:29Z</time>
      </trkpt>
      <trkpt lat="46.82327" lon="-0.7755">
        <ele>150</ele>
        <time>2020-10-31T08:11:31Z</time>
      </trkpt>
      <trkpt lat="46.82317" lon="-0.77533">
        <ele>150.7</ele>
        <time>2020-10-31T08:11:34Z</time>
      </trkpt>
      <trkpt lat="46.82313" lon="-0.77521">
        <ele>151.2</ele>
        <time>2020-10-31T08:11:36Z</time>
      </trkpt>
      <trkpt lat="46.823" lon="-0.77492">
        <ele>152.8</ele>
        <time>2020-10-31T08:11:42Z</time>
      </trkpt>
      <trkpt lat="46.82287" lon="-0.77463">
        <ele>154.7</ele>
        <time>2020-10-31T08:11:48Z</time>
      </trkpt>
      <trkpt lat="46.82277" lon="-0.77439">
        <ele>156.5</ele>
        <time>2020-10-31T08:11:54Z</time>
      </trkpt>
      <trkpt lat="46.82269" lon="-0.77424">
        <ele>157.7</ele>
        <time>2020-10-31T08:11:58Z</time>
      </trkpt>
      <trkpt lat="46.82258" lon="-0.77397">
        <ele>159.7</ele>
        <time>2020-10-31T08:12:04Z</time>
      </trkpt>
      <trkpt lat="46.8225" lon="-0.77373">
        <ele>161.4</ele>
        <time>2020-10-31T08:12:09Z</time>
      </trkpt>
      <trkpt lat="46.82237" lon="-0.77334">
        <ele>163.6</ele>
        <time>2020-10-31T08:12:17Z</time>
      </trkpt>
      <trkpt lat="46.82225" lon="-0.77304">
        <ele>164.7</ele>
        <time>2020-10-31T08:12:23Z</time>
      </trkpt>
      <trkpt lat="46.8221" lon="-0.77285">
        <ele>165.1</ele>
        <time>2020-10-31T08:12:28Z</time>
      </trkpt>
      <trkpt lat="46.82207" lon="-0.77282">
        <ele>165.2</ele>
        <time>2020-10-31T08:12:29Z</time>
      </trkpt>
      <trkpt lat="46.82199" lon="-0.77276">
        <ele>165.3</ele>
        <time>2020-10-31T08:12:31Z</time>
      </trkpt>
      <trkpt lat="46.82186" lon="-0.77272">
        <ele>165.6</ele>
        <time>2020-10-31T08:12:34Z</time>
      </trkpt>
      <trkpt lat="46.82177" lon="-0.77272">
        <ele>165.8</ele>
        <time>2020-10-31T08:12:36Z</time>
      </trkpt>
      <trkpt lat="46.8216" lon="-0.77277">
        <ele>165.9</ele>
        <time>2020-10-31T08:12:40Z</time>
      </trkpt>
      <trkpt lat="46.82155" lon="-0.77277">
        <ele>165.9</ele>
        <time>2020-10-31T08:12:41Z</time>
      </trkpt>
      <trkpt lat="46.82146" lon="-0.77275">
        <ele>166</ele>
        <time>2020-10-31T08:12:43Z</time>
      </trkpt>
      <trkpt lat="46.82138" lon="-0.77271">
        <ele>165.9</ele>
        <time>2020-10-31T08:12:45Z</time>
      </trkpt>
      <trkpt lat="46.8213" lon="-0.77263">
        <ele>165.8</ele>
        <time>2020-10-31T08:12:47Z</time>
      </trkpt>
      <trkpt lat="46.82123" lon="-0.77253">
        <ele>165.8</ele>
        <time>2020-10-31T08:12:49Z</time>
      </trkpt>
      <trkpt lat="46.82104" lon="-0.77208">
        <ele>165.7</ele>
        <time>2020-10-31T08:12:56Z</time>
      </trkpt>
      <trkpt lat="46.8208" lon="-0.77149">
        <ele>165.8</ele>
        <time>2020-10-31T08:13:05Z</time>
      </trkpt>
      <trkpt lat="46.82056" lon="-0.77089">
        <ele>166.6</ele>
        <time>2020-10-31T08:13:14Z</time>
      </trkpt>
      <trkpt lat="46.82028" lon="-0.77023">
        <ele>167.1</ele>
        <time>2020-10-31T08:13:24Z</time>
      </trkpt>
      <trkpt lat="46.82017" lon="-0.76996">
        <ele>167.2</ele>
        <time>2020-10-31T08:13:28Z</time>
      </trkpt>
      <trkpt lat="46.82012" lon="-0.76982">
        <ele>167.2</ele>
        <time>2020-10-31T08:13:30Z</time>
      </trkpt>
      <trkpt lat="46.81986" lon="-0.76916">
        <ele>166.7</ele>
        <time>2020-10-31T08:13:39Z</time>
      </trkpt>
      <trkpt lat="46.81963" lon="-0.76862">
        <ele>165.7</ele>
        <time>2020-10-31T08:13:46Z</time>
      </trkpt>
      <trkpt lat="46.81933" lon="-0.76789">
        <ele>164.8</ele>
        <time>2020-10-31T08:13:55Z</time>
      </trkpt>
      <trkpt lat="46.8193" lon="-0.76781">
        <ele>164.8</ele>
        <time>2020-10-31T08:13:56Z</time>
      </trkpt>
      <trkpt lat="46.81911" lon="-0.76734">
        <ele>164.8</ele>
        <time>2020-10-31T08:14:02Z</time>
      </trkpt>
      <trkpt lat="46.81895" lon="-0.76693">
        <ele>165.3</ele>
        <time>2020-10-31T08:14:08Z</time>
      </trkpt>
      <trkpt lat="46.81875" lon="-0.76634">
        <ele>166.3</ele>
        <time>2020-10-31T08:14:17Z</time>
      </trkpt>
      <trkpt lat="46.81856" lon="-0.76573">
        <ele>167.3</ele>
        <time>2020-10-31T08:14:26Z</time>
      </trkpt>
      <trkpt lat="46.81842" lon="-0.76523">
        <ele>167.9</ele>
        <time>2020-10-31T08:14:33Z</time>
      </trkpt>
      <trkpt lat="46.81839" lon="-0.76509">
        <ele>168.1</ele>
        <time>2020-10-31T08:14:35Z</time>
      </trkpt>
      <trkpt lat="46.81829" lon="-0.76451">
        <ele>168.8</ele>
        <time>2020-10-31T08:14:43Z</time>
      </trkpt>
      <trkpt lat="46.81825" lon="-0.76394">
        <ele>169.8</ele>
        <time>2020-10-31T08:14:51Z</time>
      </trkpt>
      <trkpt lat="46.81824" lon="-0.76355">
        <ele>171.1</ele>
        <time>2020-10-31T08:14:57Z</time>
      </trkpt>
      <trkpt lat="46.81822" lon="-0.76343">
        <ele>171.6</ele>
        <time>2020-10-31T08:14:59Z</time>
      </trkpt>
      <trkpt lat="46.81814" lon="-0.76285">
        <ele>174.1</ele>
        <time>2020-10-31T08:15:08Z</time>
      </trkpt>
      <trkpt lat="46.81812" lon="-0.76279">
        <ele>174.5</ele>
        <time>2020-10-31T08:15:09Z</time>
      </trkpt>
      <trkpt lat="46.81806" lon="-0.76257">
        <ele>175.6</ele>
        <time>2020-10-31T08:15:13Z</time>
      </trkpt>
      <trkpt lat="46.81793" lon="-0.76224">
        <ele>177.1</ele>
        <time>2020-10-31T08:15:19Z</time>
      </trkpt>
      <trkpt lat="46.81791" lon="-0.76218">
        <ele>177.3</ele>
        <time>2020-10-31T08:15:20Z</time>
      </trkpt>
      <trkpt lat="46.81785" lon="-0.76203">
        <ele>177.6</ele>
        <time>2020-10-31T08:15:23Z</time>
      </trkpt>
      <trkpt lat="46.81771" lon="-0.76159">
        <ele>177.9</ele>
        <time>2020-10-31T08:15:30Z</time>
      </trkpt>
      <trkpt lat="46.81769" lon="-0.76152">
        <ele>177.8</ele>
        <time>2020-10-31T08:15:31Z</time>
      </trkpt>
      <trkpt lat="46.81761" lon="-0.76132">
        <ele>177.3</ele>
        <time>2020-10-31T08:15:34Z</time>
      </trkpt>
      <trkpt lat="46.81758" lon="-0.76125">
        <ele>177.1</ele>
        <time>2020-10-31T08:15:35Z</time>
      </trkpt>
      <trkpt lat="46.8174" lon="-0.76074">
        <ele>176.1</ele>
        <time>2020-10-31T08:15:42Z</time>
      </trkpt>
      <trkpt lat="46.81713" lon="-0.76003">
        <ele>174.3</ele>
        <time>2020-10-31T08:15:51Z</time>
      </trkpt>
      <trkpt lat="46.81696" lon="-0.75947">
        <ele>174.1</ele>
        <time>2020-10-31T08:15:58Z</time>
      </trkpt>
      <trkpt lat="46.81687" lon="-0.759">
        <ele>174.3</ele>
        <time>2020-10-31T08:16:04Z</time>
      </trkpt>
      <trkpt lat="46.81681" lon="-0.7587">
        <ele>174.5</ele>
        <time>2020-10-31T08:16:08Z</time>
      </trkpt>
      <trkpt lat="46.81668" lon="-0.75819">
        <ele>174.6</ele>
        <time>2020-10-31T08:16:15Z</time>
      </trkpt>
      <trkpt lat="46.81665" lon="-0.75812">
        <ele>174.7</ele>
        <time>2020-10-31T08:16:16Z</time>
      </trkpt>
      <trkpt lat="46.81663" lon="-0.75806">
        <ele>174.8</ele>
        <time>2020-10-31T08:16:17Z</time>
      </trkpt>
      <trkpt lat="46.81653" lon="-0.75778">
        <ele>175.3</ele>
        <time>2020-10-31T08:16:21Z</time>
      </trkpt>
      <trkpt lat="46.81637" lon="-0.75723">
        <ele>176.8</ele>
        <time>2020-10-31T08:16:29Z</time>
      </trkpt>
      <trkpt lat="46.81625" lon="-0.75662">
        <ele>178.8</ele>
        <time>2020-10-31T08:16:38Z</time>
      </trkpt>
      <trkpt lat="46.81619" lon="-0.7562">
        <ele>180.3</ele>
        <time>2020-10-31T08:16:44Z</time>
      </trkpt>
      <trkpt lat="46.81615" lon="-0.75561">
        <ele>182.5</ele>
        <time>2020-10-31T08:16:52Z</time>
      </trkpt>
      <trkpt lat="46.81613" lon="-0.75502">
        <ele>184.7</ele>
        <time>2020-10-31T08:17:00Z</time>
      </trkpt>
      <trkpt lat="46.81614" lon="-0.75459">
        <ele>185.8</ele>
        <time>2020-10-31T08:17:06Z</time>
      </trkpt>
      <trkpt lat="46.81621" lon="-0.75419">
        <ele>186.2</ele>
        <time>2020-10-31T08:17:12Z</time>
      </trkpt>
      <trkpt lat="46.81623" lon="-0.75412">
        <ele>186.2</ele>
        <time>2020-10-31T08:17:13Z</time>
      </trkpt>
      <trkpt lat="46.81626" lon="-0.75399">
        <ele>186.3</ele>
        <time>2020-10-31T08:17:15Z</time>
      </trkpt>
      <trkpt lat="46.81631" lon="-0.75374">
        <ele>186.3</ele>
        <time>2020-10-31T08:17:19Z</time>
      </trkpt>
      <trkpt lat="46.81637" lon="-0.75333">
        <ele>186.1</ele>
        <time>2020-10-31T08:17:25Z</time>
      </trkpt>
      <trkpt lat="46.81636" lon="-0.75319">
        <ele>186.1</ele>
        <time>2020-10-31T08:17:27Z</time>
      </trkpt>
      <trkpt lat="46.81638" lon="-0.75307">
        <ele>186.1</ele>
        <time>2020-10-31T08:17:29Z</time>
      </trkpt>
      <trkpt lat="46.8164" lon="-0.75302">
        <ele>186.2</ele>
        <time>2020-10-31T08:17:30Z</time>
      </trkpt>
      <trkpt lat="46.81646" lon="-0.75289">
        <ele>186.1</ele>
        <time>2020-10-31T08:17:33Z</time>
      </trkpt>
      <trkpt lat="46.81654" lon="-0.7528">
        <ele>186.1</ele>
        <time>2020-10-31T08:17:35Z</time>
      </trkpt>
      <trkpt lat="46.81663" lon="-0.7527">
        <ele>186</ele>
        <time>2020-10-31T08:17:38Z</time>
      </trkpt>
      <trkpt lat="46.81676" lon="-0.75278">
        <ele>185.6</ele>
        <time>2020-10-31T08:17:41Z</time>
      </trkpt>
      <trkpt lat="46.81694" lon="-0.75292">
        <ele>184.7</ele>
        <time>2020-10-31T08:17:44Z</time>
      </trkpt>
      <trkpt lat="46.817" lon="-0.75296">
        <ele>184.2</ele>
        <time>2020-10-31T08:17:45Z</time>
      </trkpt>
      <trkpt lat="46.81724" lon="-0.75308">
        <ele>181.6</ele>
        <time>2020-10-31T08:17:49Z</time>
      </trkpt>
      <trkpt lat="46.81736" lon="-0.75314">
        <ele>179.9</ele>
        <time>2020-10-31T08:17:51Z</time>
      </trkpt>
      <trkpt lat="46.8175" lon="-0.75321">
        <ele>178.1</ele>
        <time>2020-10-31T08:17:54Z</time>
      </trkpt>
      <trkpt lat="46.81756" lon="-0.75323">
        <ele>177.4</ele>
        <time>2020-10-31T08:17:55Z</time>
      </trkpt>
      <trkpt lat="46.81767" lon="-0.75329">
        <ele>176.2</ele>
        <time>2020-10-31T08:17:57Z</time>
      </trkpt>
      <trkpt lat="46.81788" lon="-0.75337">
        <ele>174.2</ele>
        <time>2020-10-31T08:18:00Z</time>
      </trkpt>
      <trkpt lat="46.81795" lon="-0.75337">
        <ele>173.7</ele>
        <time>2020-10-31T08:18:01Z</time>
      </trkpt>
      <trkpt lat="46.81802" lon="-0.75335">
        <ele>173.3</ele>
        <time>2020-10-31T08:18:02Z</time>
      </trkpt>
      <trkpt lat="46.81811" lon="-0.75327">
        <ele>173</ele>
        <time>2020-10-31T08:18:04Z</time>
      </trkpt>
      <trkpt lat="46.81831" lon="-0.75296">
        <ele>172.8</ele>
        <time>2020-10-31T08:18:10Z</time>
      </trkpt>
      <trkpt lat="46.81838" lon="-0.75285">
        <ele>173</ele>
        <time>2020-10-31T08:18:12Z</time>
      </trkpt>
      <trkpt lat="46.81845" lon="-0.75273">
        <ele>173</ele>
        <time>2020-10-31T08:18:15Z</time>
      </trkpt>
      <trkpt lat="46.81856" lon="-0.75265">
        <ele>173</ele>
        <time>2020-10-31T08:18:19Z</time>
      </trkpt>
      <trkpt lat="46.81873" lon="-0.75259">
        <ele>172.4</ele>
        <time>2020-10-31T08:18:22Z</time>
      </trkpt>
      <trkpt lat="46.81877" lon="-0.75258">
        <ele>172.3</ele>
        <time>2020-10-31T08:18:23Z</time>
      </trkpt>
      <trkpt lat="46.81897" lon="-0.75252">
        <ele>171.8</ele>
        <time>2020-10-31T08:18:27Z</time>
      </trkpt>
      <trkpt lat="46.81903" lon="-0.75251">
        <ele>171.7</ele>
        <time>2020-10-31T08:18:28Z</time>
      </trkpt>
      <trkpt lat="46.81912" lon="-0.75249">
        <ele>171.4</ele>
        <time>2020-10-31T08:18:30Z</time>
      </trkpt>
      <trkpt lat="46.81919" lon="-0.75249">
        <ele>171</ele>
        <time>2020-10-31T08:18:33Z</time>
      </trkpt>
      <trkpt lat="46.81938" lon="-0.75243">
        <ele>170.4</ele>
        <time>2020-10-31T08:18:55Z</time>
      </trkpt>
      <trkpt lat="46.8194" lon="-0.75243">
        <ele>170.3</ele>
        <time>2020-10-31T08:18:56Z</time>
      </trkpt>
      <trkpt lat="46.81953" lon="-0.75239">
        <ele>169.8</ele>
        <time>2020-10-31T08:19:00Z</time>
      </trkpt>
      <trkpt lat="46.81972" lon="-0.75235">
        <ele>168.9</ele>
        <time>2020-10-31T08:19:05Z</time>
      </trkpt>
      <trkpt lat="46.8199" lon="-0.75232">
        <ele>168.1</ele>
        <time>2020-10-31T08:19:09Z</time>
      </trkpt>
      <trkpt lat="46.82005" lon="-0.7523">
        <ele>167.5</ele>
        <time>2020-10-31T08:19:12Z</time>
      </trkpt>
      <trkpt lat="46.8201" lon="-0.75229">
        <ele>167.2</ele>
        <time>2020-10-31T08:19:13Z</time>
      </trkpt>
      <trkpt lat="46.82014" lon="-0.75229">
        <ele>167.1</ele>
        <time>2020-10-31T08:19:14Z</time>
      </trkpt>
      <trkpt lat="46.82026" lon="-0.75228">
        <ele>166.4</ele>
        <time>2020-10-31T08:19:17Z</time>
      </trkpt>
      <trkpt lat="46.82028" lon="-0.75226">
        <ele>166.3</ele>
        <time>2020-10-31T08:19:18Z</time>
      </trkpt>
      <trkpt lat="46.82029" lon="-0.75225">
        <ele>166.3</ele>
        <time>2020-10-31T08:19:20Z</time>
      </trkpt>
      <trkpt lat="46.82036" lon="-0.75222">
        <ele>166</ele>
        <time>2020-10-31T08:19:23Z</time>
      </trkpt>
      <trkpt lat="46.82048" lon="-0.75215">
        <ele>165.5</ele>
        <time>2020-10-31T08:19:27Z</time>
      </trkpt>
      <trkpt lat="46.82052" lon="-0.75212">
        <ele>165.4</ele>
        <time>2020-10-31T08:19:28Z</time>
      </trkpt>
      <trkpt lat="46.8206" lon="-0.752">
        <ele>165.3</ele>
        <time>2020-10-31T08:19:31Z</time>
      </trkpt>
      <trkpt lat="46.8207" lon="-0.75182">
        <ele>165.3</ele>
        <time>2020-10-31T08:19:35Z</time>
      </trkpt>
      <trkpt lat="46.82073" lon="-0.75176">
        <ele>165.4</ele>
        <time>2020-10-31T08:19:36Z</time>
      </trkpt>
      <trkpt lat="46.82086" lon="-0.75165">
        <ele>165.2</ele>
        <time>2020-10-31T08:19:40Z</time>
      </trkpt>
      <trkpt lat="46.8209" lon="-0.75164">
        <ele>165.1</ele>
        <time>2020-10-31T08:19:43Z</time>
      </trkpt>
      <trkpt lat="46.82099" lon="-0.75164">
        <ele>164.9</ele>
        <time>2020-10-31T08:19:46Z</time>
      </trkpt>
      <trkpt lat="46.82104" lon="-0.75163">
        <ele>164.7</ele>
        <time>2020-10-31T08:19:48Z</time>
      </trkpt>
      <trkpt lat="46.82106" lon="-0.75162">
        <ele>164.7</ele>
        <time>2020-10-31T08:19:49Z</time>
      </trkpt>
      <trkpt lat="46.82119" lon="-0.75161">
        <ele>164.3</ele>
        <time>2020-10-31T08:19:54Z</time>
      </trkpt>
      <trkpt lat="46.8213" lon="-0.75159">
        <ele>163.9</ele>
        <time>2020-10-31T08:19:58Z</time>
      </trkpt>
      <trkpt lat="46.82139" lon="-0.75157">
        <ele>163.7</ele>
        <time>2020-10-31T08:20:01Z</time>
      </trkpt>
      <trkpt lat="46.82146" lon="-0.75157">
        <ele>163.5</ele>
        <time>2020-10-31T08:20:03Z</time>
      </trkpt>
      <trkpt lat="46.82159" lon="-0.75154">
        <ele>163.3</ele>
        <time>2020-10-31T08:20:07Z</time>
      </trkpt>
      <trkpt lat="46.82168" lon="-0.75153">
        <ele>163</ele>
        <time>2020-10-31T08:20:10Z</time>
      </trkpt>
      <trkpt lat="46.82183" lon="-0.75149">
        <ele>162.8</ele>
        <time>2020-10-31T08:20:14Z</time>
      </trkpt>
      <trkpt lat="46.82199" lon="-0.75146">
        <ele>162.6</ele>
        <time>2020-10-31T08:20:18Z</time>
      </trkpt>
      <trkpt lat="46.82215" lon="-0.75142">
        <ele>162.5</ele>
        <time>2020-10-31T08:20:22Z</time>
      </trkpt>
      <trkpt lat="46.82227" lon="-0.7514">
        <ele>162.3</ele>
        <time>2020-10-31T08:20:25Z</time>
      </trkpt>
      <trkpt lat="46.8223" lon="-0.7514">
        <ele>162.3</ele>
        <time>2020-10-31T08:20:26Z</time>
      </trkpt>
      <trkpt lat="46.82239" lon="-0.75139">
        <ele>162.1</ele>
        <time>2020-10-31T08:20:30Z</time>
      </trkpt>
      <trkpt lat="46.82249" lon="-0.75138">
        <ele>162</ele>
        <time>2020-10-31T08:20:35Z</time>
      </trkpt>
      <trkpt lat="46.82251" lon="-0.75139">
        <ele>161.9</ele>
        <time>2020-10-31T08:20:36Z</time>
      </trkpt>
      <trkpt lat="46.82261" lon="-0.75141">
        <ele>161.7</ele>
        <time>2020-10-31T08:20:39Z</time>
      </trkpt>
      <trkpt lat="46.8227" lon="-0.75144">
        <ele>161.5</ele>
        <time>2020-10-31T08:20:42Z</time>
      </trkpt>
      <trkpt lat="46.82271" lon="-0.75147">
        <ele>161.5</ele>
        <time>2020-10-31T08:20:43Z</time>
      </trkpt>
      <trkpt lat="46.82282" lon="-0.75159">
        <ele>161.2</ele>
        <time>2020-10-31T08:20:48Z</time>
      </trkpt>
      <trkpt lat="46.8229" lon="-0.75174">
        <ele>160.9</ele>
        <time>2020-10-31T08:20:57Z</time>
      </trkpt>
      <trkpt lat="46.82298" lon="-0.75195">
        <ele>160.5</ele>
        <time>2020-10-31T08:21:02Z</time>
      </trkpt>
      <trkpt lat="46.82309" lon="-0.75214">
        <ele>160</ele>
        <time>2020-10-31T08:21:06Z</time>
      </trkpt>
      <trkpt lat="46.82317" lon="-0.7522">
        <ele>159.9</ele>
        <time>2020-10-31T08:21:08Z</time>
      </trkpt>
      <trkpt lat="46.82331" lon="-0.75229">
        <ele>159.6</ele>
        <time>2020-10-31T08:21:11Z</time>
      </trkpt>
      <trkpt lat="46.82339" lon="-0.75233">
        <ele>159.2</ele>
        <time>2020-10-31T08:21:13Z</time>
      </trkpt>
      <trkpt lat="46.82349" lon="-0.75235">
        <ele>158.7</ele>
        <time>2020-10-31T08:21:15Z</time>
      </trkpt>
      <trkpt lat="46.82361" lon="-0.75238">
        <ele>158.3</ele>
        <time>2020-10-31T08:21:18Z</time>
      </trkpt>
      <trkpt lat="46.82382" lon="-0.75238">
        <ele>157.8</ele>
        <time>2020-10-31T08:21:22Z</time>
      </trkpt>
      <trkpt lat="46.82407" lon="-0.75232">
        <ele>158.1</ele>
        <time>2020-10-31T08:21:27Z</time>
      </trkpt>
      <trkpt lat="46.82426" lon="-0.75231">
        <ele>158.5</ele>
        <time>2020-10-31T08:21:32Z</time>
      </trkpt>
      <trkpt lat="46.82452" lon="-0.75232">
        <ele>158.8</ele>
        <time>2020-10-31T08:21:38Z</time>
      </trkpt>
      <trkpt lat="46.82465" lon="-0.75229">
        <ele>158.7</ele>
        <time>2020-10-31T08:21:41Z</time>
      </trkpt>
      <trkpt lat="46.82473" lon="-0.7522">
        <ele>158.5</ele>
        <time>2020-10-31T08:21:43Z</time>
      </trkpt>
      <trkpt lat="46.8248" lon="-0.75203">
        <ele>158</ele>
        <time>2020-10-31T08:21:46Z</time>
      </trkpt>
      <trkpt lat="46.82484" lon="-0.75191">
        <ele>157.7</ele>
        <time>2020-10-31T08:21:48Z</time>
      </trkpt>
      <trkpt lat="46.82487" lon="-0.75185">
        <ele>157.6</ele>
        <time>2020-10-31T08:21:49Z</time>
      </trkpt>
      <trkpt lat="46.82492" lon="-0.75174">
        <ele>157.3</ele>
        <time>2020-10-31T08:21:51Z</time>
      </trkpt>
      <trkpt lat="46.82499" lon="-0.75157">
        <ele>156.9</ele>
        <time>2020-10-31T08:21:54Z</time>
      </trkpt>
      <trkpt lat="46.82508" lon="-0.7514">
        <ele>156.4</ele>
        <time>2020-10-31T08:21:57Z</time>
      </trkpt>
      <trkpt lat="46.82513" lon="-0.7513">
        <ele>156.2</ele>
        <time>2020-10-31T08:21:59Z</time>
      </trkpt>
      <trkpt lat="46.82516" lon="-0.75124">
        <ele>156.1</ele>
        <time>2020-10-31T08:22:00Z</time>
      </trkpt>
      <trkpt lat="46.82523" lon="-0.75112">
        <ele>156</ele>
        <time>2020-10-31T08:22:02Z</time>
      </trkpt>
      <trkpt lat="46.82527" lon="-0.75099">
        <ele>156</ele>
        <time>2020-10-31T08:22:04Z</time>
      </trkpt>
      <trkpt lat="46.82528" lon="-0.75085">
        <ele>156.1</ele>
        <time>2020-10-31T08:22:06Z</time>
      </trkpt>
      <trkpt lat="46.82525" lon="-0.75082">
        <ele>156.6</ele>
        <time>2020-10-31T08:22:07Z</time>
      </trkpt>
      <trkpt lat="46.82499" lon="-0.75071">
        <ele>158</ele>
        <time>2020-10-31T08:22:13Z</time>
      </trkpt>
      <trkpt lat="46.82489" lon="-0.75068">
        <ele>158.5</ele>
        <time>2020-10-31T08:22:16Z</time>
      </trkpt>
      <trkpt lat="46.82487" lon="-0.75071">
        <ele>158.7</ele>
        <time>2020-10-31T08:22:17Z</time>
      </trkpt>
      <trkpt lat="46.82483" lon="-0.75076">
        <ele>159</ele>
        <time>2020-10-31T08:22:19Z</time>
      </trkpt>
      <trkpt lat="46.82481" lon="-0.75076">
        <ele>159.1</ele>
        <time>2020-10-31T08:22:20Z</time>
      </trkpt>
      <trkpt lat="46.8247" lon="-0.75069">
        <ele>159.7</ele>
        <time>2020-10-31T08:22:24Z</time>
      </trkpt>
      <trkpt lat="46.8245" lon="-0.75053">
        <ele>160.8</ele>
        <time>2020-10-31T08:22:30Z</time>
      </trkpt>
      <trkpt lat="46.82425" lon="-0.75031">
        <ele>161.9</ele>
        <time>2020-10-31T08:22:38Z</time>
      </trkpt>
      <trkpt lat="46.82409" lon="-0.75012">
        <ele>162.3</ele>
        <time>2020-10-31T08:22:44Z</time>
      </trkpt>
      <trkpt lat="46.82398" lon="-0.75002">
        <ele>162.4</ele>
        <time>2020-10-31T08:22:48Z</time>
      </trkpt>
      <trkpt lat="46.82382" lon="-0.74986">
        <ele>162.5</ele>
        <time>2020-10-31T08:22:53Z</time>
      </trkpt>
      <trkpt lat="46.82369" lon="-0.74974">
        <ele>162.6</ele>
        <time>2020-10-31T08:22:57Z</time>
      </trkpt>
      <trkpt lat="46.82355" lon="-0.7496">
        <ele>162.7</ele>
        <time>2020-10-31T08:23:02Z</time>
      </trkpt>
      <trkpt lat="46.82339" lon="-0.74945">
        <ele>162.8</ele>
        <time>2020-10-31T08:23:07Z</time>
      </trkpt>
      <trkpt lat="46.82324" lon="-0.7493">
        <ele>162.9</ele>
        <time>2020-10-31T08:23:12Z</time>
      </trkpt>
      <trkpt lat="46.82307" lon="-0.74917">
        <ele>163.2</ele>
        <time>2020-10-31T08:23:17Z</time>
      </trkpt>
      <trkpt lat="46.82289" lon="-0.74902">
        <ele>163.5</ele>
        <time>2020-10-31T08:23:23Z</time>
      </trkpt>
      <trkpt lat="46.82275" lon="-0.74891">
        <ele>164</ele>
        <time>2020-10-31T08:23:28Z</time>
      </trkpt>
      <trkpt lat="46.82262" lon="-0.74883">
        <ele>164.5</ele>
        <time>2020-10-31T08:23:33Z</time>
      </trkpt>
      <trkpt lat="46.82242" lon="-0.74866">
        <ele>165.2</ele>
        <time>2020-10-31T08:23:40Z</time>
      </trkpt>
      <trkpt lat="46.82229" lon="-0.74857">
        <ele>165.5</ele>
        <time>2020-10-31T08:23:45Z</time>
      </trkpt>
      <trkpt lat="46.82226" lon="-0.74855">
        <ele>165.6</ele>
        <time>2020-10-31T08:23:46Z</time>
      </trkpt>
      <trkpt lat="46.82225" lon="-0.74848">
        <ele>165.7</ele>
        <time>2020-10-31T08:23:48Z</time>
      </trkpt>
      <trkpt lat="46.8223" lon="-0.74846">
        <ele>165.8</ele>
        <time>2020-10-31T08:23:50Z</time>
      </trkpt>
      <trkpt lat="46.82233" lon="-0.74846">
        <ele>165.9</ele>
        <time>2020-10-31T08:23:51Z</time>
      </trkpt>
      <trkpt lat="46.82241" lon="-0.74836">
        <ele>165.9</ele>
        <time>2020-10-31T08:23:54Z</time>
      </trkpt>
      <trkpt lat="46.82249" lon="-0.74821">
        <ele>165.9</ele>
        <time>2020-10-31T08:23:58Z</time>
      </trkpt>
      <trkpt lat="46.82262" lon="-0.74798">
        <ele>166.3</ele>
        <time>2020-10-31T08:24:05Z</time>
      </trkpt>
      <trkpt lat="46.82271" lon="-0.74778">
        <ele>167</ele>
        <time>2020-10-31T08:24:11Z</time>
      </trkpt>
      <trkpt lat="46.82278" lon="-0.74762">
        <ele>167.9</ele>
        <time>2020-10-31T08:24:16Z</time>
      </trkpt>
      <trkpt lat="46.82283" lon="-0.74751">
        <ele>168.7</ele>
        <time>2020-10-31T08:24:20Z</time>
      </trkpt>
      <trkpt lat="46.82285" lon="-0.74748">
        <ele>168.9</ele>
        <time>2020-10-31T08:24:21Z</time>
      </trkpt>
      <trkpt lat="46.82292" lon="-0.74737">
        <ele>169.8</ele>
        <time>2020-10-31T08:24:25Z</time>
      </trkpt>
      <trkpt lat="46.82302" lon="-0.74714">
        <ele>171.1</ele>
        <time>2020-10-31T08:24:32Z</time>
      </trkpt>
      <trkpt lat="46.82313" lon="-0.74693">
        <ele>171.8</ele>
        <time>2020-10-31T08:24:38Z</time>
      </trkpt>
      <trkpt lat="46.82327" lon="-0.74666">
        <ele>172.1</ele>
        <time>2020-10-31T08:24:45Z</time>
      </trkpt>
      <trkpt lat="46.82338" lon="-0.74647">
        <ele>172.1</ele>
        <time>2020-10-31T08:24:50Z</time>
      </trkpt>
      <trkpt lat="46.82343" lon="-0.74628">
        <ele>171.7</ele>
        <time>2020-10-31T08:24:54Z</time>
      </trkpt>
      <trkpt lat="46.8235" lon="-0.74603">
        <ele>170.6</ele>
        <time>2020-10-31T08:24:59Z</time>
      </trkpt>
      <trkpt lat="46.82354" lon="-0.74586">
        <ele>169.6</ele>
        <time>2020-10-31T08:25:02Z</time>
      </trkpt>
      <trkpt lat="46.82358" lon="-0.74566">
        <ele>168.4</ele>
        <time>2020-10-31T08:25:05Z</time>
      </trkpt>
      <trkpt lat="46.82365" lon="-0.74545">
        <ele>167.2</ele>
        <time>2020-10-31T08:25:08Z</time>
      </trkpt>
      <trkpt lat="46.82367" lon="-0.74537">
        <ele>166.9</ele>
        <time>2020-10-31T08:25:09Z</time>
      </trkpt>
      <trkpt lat="46.82376" lon="-0.74487">
        <ele>165.8</ele>
        <time>2020-10-31T08:25:16Z</time>
      </trkpt>
      <trkpt lat="46.82384" lon="-0.74434">
        <ele>165.8</ele>
        <time>2020-10-31T08:25:24Z</time>
      </trkpt>
      <trkpt lat="46.82392" lon="-0.74396">
        <ele>165.7</ele>
        <time>2020-10-31T08:25:30Z</time>
      </trkpt>
      <trkpt lat="46.82398" lon="-0.7436">
        <ele>165.9</ele>
        <time>2020-10-31T08:25:36Z</time>
      </trkpt>
      <trkpt lat="46.82405" lon="-0.74312">
        <ele>166.4</ele>
        <time>2020-10-31T08:25:45Z</time>
      </trkpt>
      <trkpt lat="46.82409" lon="-0.74281">
        <ele>167.4</ele>
        <time>2020-10-31T08:25:51Z</time>
      </trkpt>
      <trkpt lat="46.82406" lon="-0.74277">
        <ele>167.4</ele>
        <time>2020-10-31T08:25:52Z</time>
      </trkpt>
      <trkpt lat="46.82399" lon="-0.74272">
        <ele>167.5</ele>
        <time>2020-10-31T08:25:54Z</time>
      </trkpt>
      <trkpt lat="46.82374" lon="-0.74264">
        <ele>167.5</ele>
        <time>2020-10-31T08:26:00Z</time>
      </trkpt>
      <trkpt lat="46.8237" lon="-0.74263">
        <ele>167.5</ele>
        <time>2020-10-31T08:26:01Z</time>
      </trkpt>
      <trkpt lat="46.82365" lon="-0.74262">
        <ele>167.5</ele>
        <time>2020-10-31T08:26:02Z</time>
      </trkpt>
      <trkpt lat="46.82348" lon="-0.74252">
        <ele>167.8</ele>
        <time>2020-10-31T08:26:06Z</time>
      </trkpt>
      <trkpt lat="46.82319" lon="-0.74234">
        <ele>168.4</ele>
        <time>2020-10-31T08:26:13Z</time>
      </trkpt>
      <trkpt lat="46.82316" lon="-0.74231">
        <ele>168.5</ele>
        <time>2020-10-31T08:26:14Z</time>
      </trkpt>
      <trkpt lat="46.82288" lon="-0.7421">
        <ele>169.1</ele>
        <time>2020-10-31T08:26:21Z</time>
      </trkpt>
      <trkpt lat="46.82285" lon="-0.74207">
        <ele>169.2</ele>
        <time>2020-10-31T08:26:22Z</time>
      </trkpt>
      <trkpt lat="46.82278" lon="-0.74198">
        <ele>169.3</ele>
        <time>2020-10-31T08:26:24Z</time>
      </trkpt>
      <trkpt lat="46.82276" lon="-0.74193">
        <ele>169.1</ele>
        <time>2020-10-31T08:26:25Z</time>
      </trkpt>
      <trkpt lat="46.82275" lon="-0.74186">
        <ele>169</ele>
        <time>2020-10-31T08:26:26Z</time>
      </trkpt>
      <trkpt lat="46.82274" lon="-0.74164">
        <ele>168.5</ele>
        <time>2020-10-31T08:26:29Z</time>
      </trkpt>
      <trkpt lat="46.82268" lon="-0.74104">
        <ele>166.4</ele>
        <time>2020-10-31T08:26:37Z</time>
      </trkpt>
      <trkpt lat="46.82261" lon="-0.74036">
        <ele>163</ele>
        <time>2020-10-31T08:26:44Z</time>
      </trkpt>
      <trkpt lat="46.82261" lon="-0.73976">
        <ele>160.6</ele>
        <time>2020-10-31T08:26:49Z</time>
      </trkpt>
      <trkpt lat="46.8227" lon="-0.73913">
        <ele>159.1</ele>
        <time>2020-10-31T08:26:54Z</time>
      </trkpt>
      <trkpt lat="46.82274" lon="-0.73902">
        <ele>158.8</ele>
        <time>2020-10-31T08:26:55Z</time>
      </trkpt>
      <trkpt lat="46.8228" lon="-0.73892">
        <ele>158.6</ele>
        <time>2020-10-31T08:26:56Z</time>
      </trkpt>
      <trkpt lat="46.82294" lon="-0.73878">
        <ele>158.3</ele>
        <time>2020-10-31T08:26:58Z</time>
      </trkpt>
      <trkpt lat="46.82344" lon="-0.73842">
        <ele>157.8</ele>
        <time>2020-10-31T08:27:05Z</time>
      </trkpt>
      <trkpt lat="46.82351" lon="-0.73837">
        <ele>157.7</ele>
        <time>2020-10-31T08:27:06Z</time>
      </trkpt>
      <trkpt lat="46.82361" lon="-0.73823">
        <ele>157.3</ele>
        <time>2020-10-31T08:27:08Z</time>
      </trkpt>
      <trkpt lat="46.82366" lon="-0.73814">
        <ele>157</ele>
        <time>2020-10-31T08:27:09Z</time>
      </trkpt>
      <trkpt lat="46.82368" lon="-0.73804">
        <ele>156.8</ele>
        <time>2020-10-31T08:27:10Z</time>
      </trkpt>
      <trkpt lat="46.82372" lon="-0.73782">
        <ele>156.2</ele>
        <time>2020-10-31T08:27:12Z</time>
      </trkpt>
      <trkpt lat="46.82382" lon="-0.73729">
        <ele>154.6</ele>
        <time>2020-10-31T08:27:17Z</time>
      </trkpt>
      <trkpt lat="46.82383" lon="-0.73718">
        <ele>154.1</ele>
        <time>2020-10-31T08:27:18Z</time>
      </trkpt>
      <trkpt lat="46.82381" lon="-0.73708">
        <ele>153.5</ele>
        <time>2020-10-31T08:27:19Z</time>
      </trkpt>
      <trkpt lat="46.82376" lon="-0.73699">
        <ele>152.8</ele>
        <time>2020-10-31T08:27:20Z</time>
      </trkpt>
      <trkpt lat="46.8237" lon="-0.7369">
        <ele>152.1</ele>
        <time>2020-10-31T08:27:21Z</time>
      </trkpt>
      <trkpt lat="46.82348" lon="-0.73666">
        <ele>150</ele>
        <time>2020-10-31T08:27:24Z</time>
      </trkpt>
      <trkpt lat="46.82317" lon="-0.73641">
        <ele>148.6</ele>
        <time>2020-10-31T08:27:28Z</time>
      </trkpt>
      <trkpt lat="46.82284" lon="-0.73618">
        <ele>148.2</ele>
        <time>2020-10-31T08:27:33Z</time>
      </trkpt>
      <trkpt lat="46.82272" lon="-0.73614">
        <ele>148.5</ele>
        <time>2020-10-31T08:27:35Z</time>
      </trkpt>
      <trkpt lat="46.82252" lon="-0.73609">
        <ele>149.3</ele>
        <time>2020-10-31T08:27:39Z</time>
      </trkpt>
      <trkpt lat="46.82217" lon="-0.736">
        <ele>151.4</ele>
        <time>2020-10-31T08:27:47Z</time>
      </trkpt>
      <trkpt lat="46.82182" lon="-0.73589">
        <ele>152.5</ele>
        <time>2020-10-31T08:27:55Z</time>
      </trkpt>
      <trkpt lat="46.82151" lon="-0.7358">
        <ele>153.1</ele>
        <time>2020-10-31T08:28:02Z</time>
      </trkpt>
      <trkpt lat="46.82118" lon="-0.7358">
        <ele>154</ele>
        <time>2020-10-31T08:28:09Z</time>
      </trkpt>
      <trkpt lat="46.82091" lon="-0.73579">
        <ele>154.6</ele>
        <time>2020-10-31T08:28:15Z</time>
      </trkpt>
      <trkpt lat="46.82087" lon="-0.73577">
        <ele>154.7</ele>
        <time>2020-10-31T08:28:16Z</time>
      </trkpt>
      <trkpt lat="46.82078" lon="-0.73573">
        <ele>154.9</ele>
        <time>2020-10-31T08:28:18Z</time>
      </trkpt>
      <trkpt lat="46.82069" lon="-0.73567">
        <ele>155.1</ele>
        <time>2020-10-31T08:28:20Z</time>
      </trkpt>
      <trkpt lat="46.82065" lon="-0.73564">
        <ele>155.3</ele>
        <time>2020-10-31T08:28:21Z</time>
      </trkpt>
      <trkpt lat="46.82046" lon="-0.73549">
        <ele>155.9</ele>
        <time>2020-10-31T08:28:26Z</time>
      </trkpt>
      <trkpt lat="46.82037" lon="-0.73544">
        <ele>156.3</ele>
        <time>2020-10-31T08:28:28Z</time>
      </trkpt>
      <trkpt lat="46.82024" lon="-0.73532">
        <ele>157.2</ele>
        <time>2020-10-31T08:28:32Z</time>
      </trkpt>
      <trkpt lat="46.82007" lon="-0.73518">
        <ele>158.4</ele>
        <time>2020-10-31T08:28:37Z</time>
      </trkpt>
      <trkpt lat="46.81988" lon="-0.73502">
        <ele>160</ele>
        <time>2020-10-31T08:28:44Z</time>
      </trkpt>
      <trkpt lat="46.81971" lon="-0.73486">
        <ele>161.7</ele>
        <time>2020-10-31T08:28:51Z</time>
      </trkpt>
      <trkpt lat="46.81957" lon="-0.73468">
        <ele>163.3</ele>
        <time>2020-10-31T08:28:57Z</time>
      </trkpt>
      <trkpt lat="46.81948" lon="-0.73447">
        <ele>164.8</ele>
        <time>2020-10-31T08:29:03Z</time>
      </trkpt>
      <trkpt lat="46.81935" lon="-0.7342">
        <ele>166.8</ele>
        <time>2020-10-31T08:29:11Z</time>
      </trkpt>
      <trkpt lat="46.81929" lon="-0.73409">
        <ele>167.6</ele>
        <time>2020-10-31T08:29:15Z</time>
      </trkpt>
      <trkpt lat="46.81926" lon="-0.73404">
        <ele>168</ele>
        <time>2020-10-31T08:29:17Z</time>
      </trkpt>
      <trkpt lat="46.81916" lon="-0.73392">
        <ele>169</ele>
        <time>2020-10-31T08:29:22Z</time>
      </trkpt>
      <trkpt lat="46.81902" lon="-0.73381">
        <ele>170.3</ele>
        <time>2020-10-31T08:29:28Z</time>
      </trkpt>
      <trkpt lat="46.81884" lon="-0.7337">
        <ele>171.5</ele>
        <time>2020-10-31T08:29:35Z</time>
      </trkpt>
      <trkpt lat="46.81863" lon="-0.73366">
        <ele>172.6</ele>
        <time>2020-10-31T08:29:42Z</time>
      </trkpt>
      <trkpt lat="46.81837" lon="-0.73363">
        <ele>173.7</ele>
        <time>2020-10-31T08:29:50Z</time>
      </trkpt>
      <trkpt lat="46.8181" lon="-0.73361">
        <ele>174.6</ele>
        <time>2020-10-31T08:29:58Z</time>
      </trkpt>
      <trkpt lat="46.81786" lon="-0.73357">
        <ele>175.8</ele>
        <time>2020-10-31T08:30:05Z</time>
      </trkpt>
      <trkpt lat="46.81773" lon="-0.73354">
        <ele>176.6</ele>
        <time>2020-10-31T08:30:09Z</time>
      </trkpt>
      <trkpt lat="46.8177" lon="-0.73351">
        <ele>176.8</ele>
        <time>2020-10-31T08:30:10Z</time>
      </trkpt>
      <trkpt lat="46.81751" lon="-0.73338">
        <ele>178.1</ele>
        <time>2020-10-31T08:30:16Z</time>
      </trkpt>
      <trkpt lat="46.81732" lon="-0.73321">
        <ele>179.5</ele>
        <time>2020-10-31T08:30:22Z</time>
      </trkpt>
      <trkpt lat="46.81717" lon="-0.73308">
        <ele>180.6</ele>
        <time>2020-10-31T08:30:27Z</time>
      </trkpt>
      <trkpt lat="46.81696" lon="-0.73293">
        <ele>182.1</ele>
        <time>2020-10-31T08:30:33Z</time>
      </trkpt>
      <trkpt lat="46.81681" lon="-0.7328">
        <ele>183.4</ele>
        <time>2020-10-31T08:30:38Z</time>
      </trkpt>
      <trkpt lat="46.81673" lon="-0.73272">
        <ele>183.7</ele>
        <time>2020-10-31T08:30:41Z</time>
      </trkpt>
      <trkpt lat="46.8167" lon="-0.73271">
        <ele>183.9</ele>
        <time>2020-10-31T08:30:42Z</time>
      </trkpt>
      <trkpt lat="46.81656" lon="-0.7326">
        <ele>184.5</ele>
        <time>2020-10-31T08:30:47Z</time>
      </trkpt>
      <trkpt lat="46.81647" lon="-0.73247">
        <ele>184.3</ele>
        <time>2020-10-31T08:30:51Z</time>
      </trkpt>
      <trkpt lat="46.81645" lon="-0.73244">
        <ele>184.4</ele>
        <time>2020-10-31T08:30:52Z</time>
      </trkpt>
      <trkpt lat="46.81637" lon="-0.73233">
        <ele>184.1</ele>
        <time>2020-10-31T08:30:55Z</time>
      </trkpt>
      <trkpt lat="46.81624" lon="-0.73218">
        <ele>184.1</ele>
        <time>2020-10-31T08:30:59Z</time>
      </trkpt>
      <trkpt lat="46.81617" lon="-0.73211">
        <ele>184</ele>
        <time>2020-10-31T08:31:01Z</time>
      </trkpt>
      <trkpt lat="46.81609" lon="-0.73204">
        <ele>183.8</ele>
        <time>2020-10-31T08:31:03Z</time>
      </trkpt>
      <trkpt lat="46.81604" lon="-0.732">
        <ele>183.7</ele>
        <time>2020-10-31T08:31:04Z</time>
      </trkpt>
      <trkpt lat="46.81594" lon="-0.73192">
        <ele>183.4</ele>
        <time>2020-10-31T08:31:06Z</time>
      </trkpt>
      <trkpt lat="46.81589" lon="-0.73189">
        <ele>183.5</ele>
        <time>2020-10-31T08:31:07Z</time>
      </trkpt>
      <trkpt lat="46.8157" lon="-0.73179">
        <ele>183.3</ele>
        <time>2020-10-31T08:31:10Z</time>
      </trkpt>
      <trkpt lat="46.81563" lon="-0.73175">
        <ele>183.3</ele>
        <time>2020-10-31T08:31:11Z</time>
      </trkpt>
      <trkpt lat="46.81542" lon="-0.73166">
        <ele>183.1</ele>
        <time>2020-10-31T08:31:14Z</time>
      </trkpt>
      <trkpt lat="46.81536" lon="-0.73164">
        <ele>183.2</ele>
        <time>2020-10-31T08:31:15Z</time>
      </trkpt>
      <trkpt lat="46.81523" lon="-0.73156">
        <ele>182.8</ele>
        <time>2020-10-31T08:31:17Z</time>
      </trkpt>
      <trkpt lat="46.81513" lon="-0.73141">
        <ele>182.3</ele>
        <time>2020-10-31T08:31:19Z</time>
      </trkpt>
      <trkpt lat="46.81505" lon="-0.73125">
        <ele>181.8</ele>
        <time>2020-10-31T08:31:21Z</time>
      </trkpt>
      <trkpt lat="46.81496" lon="-0.73115">
        <ele>181.5</ele>
        <time>2020-10-31T08:31:23Z</time>
      </trkpt>
      <trkpt lat="46.81487" lon="-0.73099">
        <ele>180.5</ele>
        <time>2020-10-31T08:31:26Z</time>
      </trkpt>
      <trkpt lat="46.81486" lon="-0.73091">
        <ele>179.9</ele>
        <time>2020-10-31T08:31:27Z</time>
      </trkpt>
      <trkpt lat="46.81485" lon="-0.73073">
        <ele>178.7</ele>
        <time>2020-10-31T08:31:29Z</time>
      </trkpt>
      <trkpt lat="46.81483" lon="-0.73052">
        <ele>177.2</ele>
        <time>2020-10-31T08:31:31Z</time>
      </trkpt>
      <trkpt lat="46.81481" lon="-0.73043">
        <ele>176.6</ele>
        <time>2020-10-31T08:31:32Z</time>
      </trkpt>
      <trkpt lat="46.81474" lon="-0.73029">
        <ele>175.2</ele>
        <time>2020-10-31T08:31:34Z</time>
      </trkpt>
      <trkpt lat="46.81458" lon="-0.73023">
        <ele>174.6</ele>
        <time>2020-10-31T08:31:37Z</time>
      </trkpt>
      <trkpt lat="46.81448" lon="-0.73017">
        <ele>174</ele>
        <time>2020-10-31T08:31:39Z</time>
      </trkpt>
      <trkpt lat="46.81439" lon="-0.73014">
        <ele>173.4</ele>
        <time>2020-10-31T08:31:41Z</time>
      </trkpt>
      <trkpt lat="46.81428" lon="-0.73021">
        <ele>173.9</ele>
        <time>2020-10-31T08:31:44Z</time>
      </trkpt>
      <trkpt lat="46.81419" lon="-0.73036">
        <ele>174.6</ele>
        <time>2020-10-31T08:31:49Z</time>
      </trkpt>
      <trkpt lat="46.81412" lon="-0.73055">
        <ele>175.5</ele>
        <time>2020-10-31T08:31:55Z</time>
      </trkpt>
      <trkpt lat="46.81411" lon="-0.73074">
        <ele>177.4</ele>
        <time>2020-10-31T08:32:01Z</time>
      </trkpt>
      <trkpt lat="46.81417" lon="-0.73094">
        <ele>179.7</ele>
        <time>2020-10-31T08:32:08Z</time>
      </trkpt>
      <trkpt lat="46.81421" lon="-0.73108">
        <ele>180.8</ele>
        <time>2020-10-31T08:32:13Z</time>
      </trkpt>
      <trkpt lat="46.81421" lon="-0.73121">
        <ele>181.5</ele>
        <time>2020-10-31T08:32:18Z</time>
      </trkpt>
      <trkpt lat="46.81421" lon="-0.73124">
        <ele>181.7</ele>
        <time>2020-10-31T08:32:19Z</time>
      </trkpt>
      <trkpt lat="46.81419" lon="-0.73131">
        <ele>181.9</ele>
        <time>2020-10-31T08:32:22Z</time>
      </trkpt>
      <trkpt lat="46.81419" lon="-0.73143">
        <ele>182.3</ele>
        <time>2020-10-31T08:32:26Z</time>
      </trkpt>
      <trkpt lat="46.81418" lon="-0.73146">
        <ele>182.5</ele>
        <time>2020-10-31T08:32:27Z</time>
      </trkpt>
      <trkpt lat="46.81417" lon="-0.7316">
        <ele>183.1</ele>
        <time>2020-10-31T08:32:32Z</time>
      </trkpt>
      <trkpt lat="46.81416" lon="-0.73162">
        <ele>183.3</ele>
        <time>2020-10-31T08:32:33Z</time>
      </trkpt>
      <trkpt lat="46.81416" lon="-0.7318">
        <ele>184.1</ele>
        <time>2020-10-31T08:32:39Z</time>
      </trkpt>
      <trkpt lat="46.81412" lon="-0.73193">
        <ele>184.7</ele>
        <time>2020-10-31T08:32:44Z</time>
      </trkpt>
      <trkpt lat="46.81401" lon="-0.73203">
        <ele>184.9</ele>
        <time>2020-10-31T08:32:49Z</time>
      </trkpt>
      <trkpt lat="46.8139" lon="-0.73216">
        <ele>185.4</ele>
        <time>2020-10-31T08:32:54Z</time>
      </trkpt>
      <trkpt lat="46.81388" lon="-0.73219">
        <ele>185.5</ele>
        <time>2020-10-31T08:32:55Z</time>
      </trkpt>
      <trkpt lat="46.81378" lon="-0.73236">
        <ele>185.9</ele>
        <time>2020-10-31T08:33:01Z</time>
      </trkpt>
      <trkpt lat="46.81368" lon="-0.73248">
        <ele>185.7</ele>
        <time>2020-10-31T08:33:06Z</time>
      </trkpt>
      <trkpt lat="46.81354" lon="-0.73261">
        <ele>185.3</ele>
        <time>2020-10-31T08:33:11Z</time>
      </trkpt>
      <trkpt lat="46.81345" lon="-0.7328">
        <ele>185</ele>
        <time>2020-10-31T08:33:15Z</time>
      </trkpt>
      <trkpt lat="46.81333" lon="-0.73313">
        <ele>184.8</ele>
        <time>2020-10-31T08:33:21Z</time>
      </trkpt>
      <trkpt lat="46.81325" lon="-0.73332">
        <ele>184.8</ele>
        <time>2020-10-31T08:33:25Z</time>
      </trkpt>
      <trkpt lat="46.81314" lon="-0.73357">
        <ele>185.1</ele>
        <time>2020-10-31T08:33:30Z</time>
      </trkpt>
      <trkpt lat="46.81309" lon="-0.73371">
        <ele>185.3</ele>
        <time>2020-10-31T08:33:33Z</time>
      </trkpt>
      <trkpt lat="46.81303" lon="-0.7339">
        <ele>185.8</ele>
        <time>2020-10-31T08:33:38Z</time>
      </trkpt>
      <trkpt lat="46.813" lon="-0.73404">
        <ele>186.2</ele>
        <time>2020-10-31T08:33:42Z</time>
      </trkpt>
      <trkpt lat="46.81298" lon="-0.73417">
        <ele>186.6</ele>
        <time>2020-10-31T08:33:46Z</time>
      </trkpt>
      <trkpt lat="46.81294" lon="-0.73437">
        <ele>187.4</ele>
        <time>2020-10-31T08:33:51Z</time>
      </trkpt>
      <trkpt lat="46.81287" lon="-0.7346">
        <ele>188.2</ele>
        <time>2020-10-31T08:33:57Z</time>
      </trkpt>
      <trkpt lat="46.81283" lon="-0.73476">
        <ele>189.1</ele>
        <time>2020-10-31T08:34:01Z</time>
      </trkpt>
      <trkpt lat="46.8128" lon="-0.73501">
        <ele>190.3</ele>
        <time>2020-10-31T08:34:07Z</time>
      </trkpt>
      <trkpt lat="46.81281" lon="-0.73529">
        <ele>191.2</ele>
        <time>2020-10-31T08:34:14Z</time>
      </trkpt>
      <trkpt lat="46.81284" lon="-0.73555">
        <ele>191.6</ele>
        <time>2020-10-31T08:34:20Z</time>
      </trkpt>
      <trkpt lat="46.81288" lon="-0.73583">
        <ele>191.8</ele>
        <time>2020-10-31T08:34:27Z</time>
      </trkpt>
      <trkpt lat="46.8129" lon="-0.73591">
        <ele>191.9</ele>
        <time>2020-10-31T08:34:29Z</time>
      </trkpt>
      <trkpt lat="46.8129" lon="-0.736">
        <ele>192.1</ele>
        <time>2020-10-31T08:34:31Z</time>
      </trkpt>
      <trkpt lat="46.81287" lon="-0.73633">
        <ele>192.4</ele>
        <time>2020-10-31T08:34:37Z</time>
      </trkpt>
      <trkpt lat="46.81276" lon="-0.73658">
        <ele>192.4</ele>
        <time>2020-10-31T08:34:42Z</time>
      </trkpt>
      <trkpt lat="46.81272" lon="-0.73662">
        <ele>192.3</ele>
        <time>2020-10-31T08:34:43Z</time>
      </trkpt>
      <trkpt lat="46.81267" lon="-0.73664">
        <ele>192.3</ele>
        <time>2020-10-31T08:34:44Z</time>
      </trkpt>
      <trkpt lat="46.81258" lon="-0.73665">
        <ele>192.2</ele>
        <time>2020-10-31T08:34:46Z</time>
      </trkpt>
      <trkpt lat="46.81253" lon="-0.73665">
        <ele>192.2</ele>
        <time>2020-10-31T08:34:47Z</time>
      </trkpt>
      <trkpt lat="46.81211" lon="-0.73663">
        <ele>192.4</ele>
        <time>2020-10-31T08:34:55Z</time>
      </trkpt>
      <trkpt lat="46.81175" lon="-0.73659">
        <ele>192.8</ele>
        <time>2020-10-31T08:35:02Z</time>
      </trkpt>
      <trkpt lat="46.81133" lon="-0.73652">
        <ele>193.2</ele>
        <time>2020-10-31T08:35:10Z</time>
      </trkpt>
      <trkpt lat="46.81123" lon="-0.73652">
        <ele>193.2</ele>
        <time>2020-10-31T08:35:12Z</time>
      </trkpt>
      <trkpt lat="46.81109" lon="-0.73657">
        <ele>193.4</ele>
        <time>2020-10-31T08:35:15Z</time>
      </trkpt>
      <trkpt lat="46.81104" lon="-0.7366">
        <ele>193.4</ele>
        <time>2020-10-31T08:35:16Z</time>
      </trkpt>
      <trkpt lat="46.81081" lon="-0.73678">
        <ele>193.9</ele>
        <time>2020-10-31T08:35:21Z</time>
      </trkpt>
      <trkpt lat="46.81041" lon="-0.73709">
        <ele>194.6</ele>
        <time>2020-10-31T08:35:30Z</time>
      </trkpt>
      <trkpt lat="46.81009" lon="-0.73733">
        <ele>195.2</ele>
        <time>2020-10-31T08:35:37Z</time>
      </trkpt>
      <trkpt lat="46.80976" lon="-0.73756">
        <ele>195.6</ele>
        <time>2020-10-31T08:35:44Z</time>
      </trkpt>
      <trkpt lat="46.80948" lon="-0.73775">
        <ele>195.9</ele>
        <time>2020-10-31T08:35:50Z</time>
      </trkpt>
      <trkpt lat="46.80944" lon="-0.73777">
        <ele>196</ele>
        <time>2020-10-31T08:35:51Z</time>
      </trkpt>
      <trkpt lat="46.80934" lon="-0.73776">
        <ele>196</ele>
        <time>2020-10-31T08:35:53Z</time>
      </trkpt>
      <trkpt lat="46.80927" lon="-0.73766">
        <ele>195.6</ele>
        <time>2020-10-31T08:35:55Z</time>
      </trkpt>
      <trkpt lat="46.80925" lon="-0.73758">
        <ele>195.4</ele>
        <time>2020-10-31T08:35:56Z</time>
      </trkpt>
      <trkpt lat="46.80922" lon="-0.73743">
        <ele>194.9</ele>
        <time>2020-10-31T08:35:58Z</time>
      </trkpt>
      <trkpt lat="46.80915" lon="-0.7372">
        <ele>194.3</ele>
        <time>2020-10-31T08:36:01Z</time>
      </trkpt>
      <trkpt lat="46.80907" lon="-0.73697">
        <ele>193.8</ele>
        <time>2020-10-31T08:36:04Z</time>
      </trkpt>
      <trkpt lat="46.809" lon="-0.73683">
        <ele>193.5</ele>
        <time>2020-10-31T08:36:06Z</time>
      </trkpt>
      <trkpt lat="46.80871" lon="-0.73638">
        <ele>192.6</ele>
        <time>2020-10-31T08:36:13Z</time>
      </trkpt>
      <trkpt lat="46.80832" lon="-0.73583">
        <ele>190.9</ele>
        <time>2020-10-31T08:36:22Z</time>
      </trkpt>
      <trkpt lat="46.80818" lon="-0.73553">
        <ele>190.1</ele>
        <time>2020-10-31T08:36:26Z</time>
      </trkpt>
      <trkpt lat="46.80814" lon="-0.73537">
        <ele>189.7</ele>
        <time>2020-10-31T08:36:28Z</time>
      </trkpt>
      <trkpt lat="46.80812" lon="-0.7352">
        <ele>189.3</ele>
        <time>2020-10-31T08:36:30Z</time>
      </trkpt>
      <trkpt lat="46.80807" lon="-0.73493">
        <ele>188.6</ele>
        <time>2020-10-31T08:36:33Z</time>
      </trkpt>
      <trkpt lat="46.80795" lon="-0.73438">
        <ele>187.4</ele>
        <time>2020-10-31T08:36:39Z</time>
      </trkpt>
      <trkpt lat="46.80776" lon="-0.73373">
        <ele>186.1</ele>
        <time>2020-10-31T08:36:46Z</time>
      </trkpt>
      <trkpt lat="46.80769" lon="-0.73345">
        <ele>185.7</ele>
        <time>2020-10-31T08:36:49Z</time>
      </trkpt>
      <trkpt lat="46.80761" lon="-0.73318">
        <ele>185.5</ele>
        <time>2020-10-31T08:36:52Z</time>
      </trkpt>
      <trkpt lat="46.80758" lon="-0.7331">
        <ele>185.4</ele>
        <time>2020-10-31T08:36:53Z</time>
      </trkpt>
      <trkpt lat="46.80751" lon="-0.73287">
        <ele>185.3</ele>
        <time>2020-10-31T08:36:56Z</time>
      </trkpt>
      <trkpt lat="46.80745" lon="-0.73284">
        <ele>185.3</ele>
        <time>2020-10-31T08:36:58Z</time>
      </trkpt>
      <trkpt lat="46.8074" lon="-0.73292">
        <ele>185.4</ele>
        <time>2020-10-31T08:37:00Z</time>
      </trkpt>
      <trkpt lat="46.80738" lon="-0.73298">
        <ele>185.5</ele>
        <time>2020-10-31T08:37:01Z</time>
      </trkpt>
      <trkpt lat="46.80731" lon="-0.7333">
        <ele>186</ele>
        <time>2020-10-31T08:37:06Z</time>
      </trkpt>
      <trkpt lat="46.80729" lon="-0.73343">
        <ele>186.2</ele>
        <time>2020-10-31T08:37:08Z</time>
      </trkpt>
      <trkpt lat="46.80725" lon="-0.73361">
        <ele>186.3</ele>
        <time>2020-10-31T08:37:11Z</time>
      </trkpt>
      <trkpt lat="46.80719" lon="-0.73379">
        <ele>186.4</ele>
        <time>2020-10-31T08:37:14Z</time>
      </trkpt>
      <trkpt lat="46.80715" lon="-0.73389">
        <ele>186.5</ele>
        <time>2020-10-31T08:37:16Z</time>
      </trkpt>
      <trkpt lat="46.80704" lon="-0.73421">
        <ele>186.8</ele>
        <time>2020-10-31T08:37:23Z</time>
      </trkpt>
      <trkpt lat="46.80692" lon="-0.73449">
        <ele>186.8</ele>
        <time>2020-10-31T08:37:29Z</time>
      </trkpt>
      <trkpt lat="46.80682" lon="-0.73473">
        <ele>186.9</ele>
        <time>2020-10-31T08:37:34Z</time>
      </trkpt>
      <trkpt lat="46.80668" lon="-0.73502">
        <ele>187.1</ele>
        <time>2020-10-31T08:37:40Z</time>
      </trkpt>
      <trkpt lat="46.80652" lon="-0.7352">
        <ele>187.1</ele>
        <time>2020-10-31T08:37:45Z</time>
      </trkpt>
      <trkpt lat="46.80644" lon="-0.73542">
        <ele>187.6</ele>
        <time>2020-10-31T08:37:50Z</time>
      </trkpt>
      <trkpt lat="46.8064" lon="-0.73561">
        <ele>187.9</ele>
        <time>2020-10-31T08:37:54Z</time>
      </trkpt>
      <trkpt lat="46.80632" lon="-0.73592">
        <ele>188.6</ele>
        <time>2020-10-31T08:38:00Z</time>
      </trkpt>
      <trkpt lat="46.80623" lon="-0.73621">
        <ele>188.8</ele>
        <time>2020-10-31T08:38:06Z</time>
      </trkpt>
      <trkpt lat="46.80613" lon="-0.7366">
        <ele>189.2</ele>
        <time>2020-10-31T08:38:14Z</time>
      </trkpt>
      <trkpt lat="46.8061" lon="-0.7369">
        <ele>189.7</ele>
        <time>2020-10-31T08:38:20Z</time>
      </trkpt>
      <trkpt lat="46.80607" lon="-0.73716">
        <ele>189.6</ele>
        <time>2020-10-31T08:38:26Z</time>
      </trkpt>
      <trkpt lat="46.80601" lon="-0.73755">
        <ele>189.5</ele>
        <time>2020-10-31T08:38:33Z</time>
      </trkpt>
      <trkpt lat="46.80597" lon="-0.73793">
        <ele>189.4</ele>
        <time>2020-10-31T08:38:40Z</time>
      </trkpt>
      <trkpt lat="46.80595" lon="-0.73819">
        <ele>189.3</ele>
        <time>2020-10-31T08:38:45Z</time>
      </trkpt>
      <trkpt lat="46.80589" lon="-0.7385">
        <ele>189.2</ele>
        <time>2020-10-31T08:38:51Z</time>
      </trkpt>
      <trkpt lat="46.80584" lon="-0.7388">
        <ele>189.1</ele>
        <time>2020-10-31T08:38:57Z</time>
      </trkpt>
      <trkpt lat="46.80584" lon="-0.73902">
        <ele>189</ele>
        <time>2020-10-31T08:39:01Z</time>
      </trkpt>
      <trkpt lat="46.80577" lon="-0.73941">
        <ele>188.9</ele>
        <time>2020-10-31T08:39:08Z</time>
      </trkpt>
      <trkpt lat="46.8057" lon="-0.73968">
        <ele>188.8</ele>
        <time>2020-10-31T08:39:13Z</time>
      </trkpt>
      <trkpt lat="46.80568" lon="-0.73999">
        <ele>188.7</ele>
        <time>2020-10-31T08:39:18Z</time>
      </trkpt>
      <trkpt lat="46.80569" lon="-0.74016">
        <ele>188.7</ele>
        <time>2020-10-31T08:39:21Z</time>
      </trkpt>
      <trkpt lat="46.80568" lon="-0.74019">
        <ele>188.6</ele>
        <time>2020-10-31T08:39:22Z</time>
      </trkpt>
      <trkpt lat="46.80567" lon="-0.74022">
        <ele>188.6</ele>
        <time>2020-10-31T08:39:23Z</time>
      </trkpt>
      <trkpt lat="46.80563" lon="-0.74024">
        <ele>188.6</ele>
        <time>2020-10-31T08:39:25Z</time>
      </trkpt>
      <trkpt lat="46.80561" lon="-0.74023">
        <ele>188.6</ele>
        <time>2020-10-31T08:39:26Z</time>
      </trkpt>
      <trkpt lat="46.80559" lon="-0.74022">
        <ele>188.6</ele>
        <time>2020-10-31T08:39:27Z</time>
      </trkpt>
      <trkpt lat="46.80557" lon="-0.74016">
        <ele>188.6</ele>
        <time>2020-10-31T08:39:29Z</time>
      </trkpt>
      <trkpt lat="46.80551" lon="-0.73993">
        <ele>188.5</ele>
        <time>2020-10-31T08:39:35Z</time>
      </trkpt>
      <trkpt lat="46.80543" lon="-0.73972">
        <ele>188.7</ele>
        <time>2020-10-31T08:39:40Z</time>
      </trkpt>
      <trkpt lat="46.80531" lon="-0.73945">
        <ele>189</ele>
        <time>2020-10-31T08:39:46Z</time>
      </trkpt>
      <trkpt lat="46.80525" lon="-0.73939">
        <ele>189.1</ele>
        <time>2020-10-31T08:39:48Z</time>
      </trkpt>
      <trkpt lat="46.80522" lon="-0.73939">
        <ele>189.2</ele>
        <time>2020-10-31T08:39:49Z</time>
      </trkpt>
      <trkpt lat="46.80504" lon="-0.73946">
        <ele>188.7</ele>
        <time>2020-10-31T08:39:54Z</time>
      </trkpt>
      <trkpt lat="46.80474" lon="-0.73958">
        <ele>187.9</ele>
        <time>2020-10-31T08:40:01Z</time>
      </trkpt>
      <trkpt lat="46.80458" lon="-0.73964">
        <ele>187.6</ele>
        <time>2020-10-31T08:40:05Z</time>
      </trkpt>
      <trkpt lat="46.80454" lon="-0.73966">
        <ele>187.6</ele>
        <time>2020-10-31T08:40:06Z</time>
      </trkpt>
      <trkpt lat="46.80437" lon="-0.73973">
        <ele>187.1</ele>
        <time>2020-10-31T08:40:10Z</time>
      </trkpt>
      <trkpt lat="46.80413" lon="-0.73984">
        <ele>186.6</ele>
        <time>2020-10-31T08:40:16Z</time>
      </trkpt>
      <trkpt lat="46.80391" lon="-0.73992">
        <ele>186.1</ele>
        <time>2020-10-31T08:40:21Z</time>
      </trkpt>
      <trkpt lat="46.80372" lon="-0.73997">
        <ele>185.6</ele>
        <time>2020-10-31T08:40:26Z</time>
      </trkpt>
      <trkpt lat="46.80369" lon="-0.73983">
        <ele>185.8</ele>
        <time>2020-10-31T08:40:29Z</time>
      </trkpt>
      <trkpt lat="46.80367" lon="-0.73969">
        <ele>186.2</ele>
        <time>2020-10-31T08:40:31Z</time>
      </trkpt>
      <trkpt lat="46.80364" lon="-0.73944">
        <ele>186.5</ele>
        <time>2020-10-31T08:40:35Z</time>
      </trkpt>
      <trkpt lat="46.80366" lon="-0.73913">
        <ele>187.6</ele>
        <time>2020-10-31T08:40:42Z</time>
      </trkpt>
      <trkpt lat="46.80369" lon="-0.73881">
        <ele>188.3</ele>
        <time>2020-10-31T08:40:48Z</time>
      </trkpt>
      <trkpt lat="46.80376" lon="-0.73862">
        <ele>188.9</ele>
        <time>2020-10-31T08:40:52Z</time>
      </trkpt>
      <trkpt lat="46.8038" lon="-0.7386">
        <ele>189.2</ele>
        <time>2020-10-31T08:40:53Z</time>
      </trkpt>
      <trkpt lat="46.80385" lon="-0.73855">
        <ele>189.4</ele>
        <time>2020-10-31T08:40:55Z</time>
      </trkpt>
      <trkpt lat="46.80385" lon="-0.73845">
        <ele>189.4</ele>
        <time>2020-10-31T08:40:57Z</time>
      </trkpt>
      <trkpt lat="46.80374" lon="-0.73826">
        <ele>188.8</ele>
        <time>2020-10-31T08:41:01Z</time>
      </trkpt>
      <trkpt lat="46.80365" lon="-0.7382">
        <ele>188.1</ele>
        <time>2020-10-31T08:41:03Z</time>
      </trkpt>
      <trkpt lat="46.80361" lon="-0.73821">
        <ele>187.9</ele>
        <time>2020-10-31T08:41:04Z</time>
      </trkpt>
      <trkpt lat="46.80356" lon="-0.73824">
        <ele>187.7</ele>
        <time>2020-10-31T08:41:05Z</time>
      </trkpt>
      <trkpt lat="46.8034" lon="-0.73836">
        <ele>186.8</ele>
        <time>2020-10-31T08:41:09Z</time>
      </trkpt>
      <trkpt lat="46.80336" lon="-0.73838">
        <ele>186.6</ele>
        <time>2020-10-31T08:41:10Z</time>
      </trkpt>
      <trkpt lat="46.80325" lon="-0.73839">
        <ele>186</ele>
        <time>2020-10-31T08:41:12Z</time>
      </trkpt>
      <trkpt lat="46.8032" lon="-0.73838">
        <ele>185.7</ele>
        <time>2020-10-31T08:41:13Z</time>
      </trkpt>
      <trkpt lat="46.80303" lon="-0.73837">
        <ele>184.8</ele>
        <time>2020-10-31T08:41:16Z</time>
      </trkpt>
      <trkpt lat="46.80286" lon="-0.73838">
        <ele>183.9</ele>
        <time>2020-10-31T08:41:19Z</time>
      </trkpt>
      <trkpt lat="46.80265" lon="-0.73842">
        <ele>182.7</ele>
        <time>2020-10-31T08:41:23Z</time>
      </trkpt>
      <trkpt lat="46.80256" lon="-0.73845">
        <ele>182</ele>
        <time>2020-10-31T08:41:25Z</time>
      </trkpt>
      <trkpt lat="46.80243" lon="-0.73849">
        <ele>181.1</ele>
        <time>2020-10-31T08:41:28Z</time>
      </trkpt>
      <trkpt lat="46.80232" lon="-0.73852">
        <ele>180.4</ele>
        <time>2020-10-31T08:41:30Z</time>
      </trkpt>
      <trkpt lat="46.80195" lon="-0.73868">
        <ele>178.2</ele>
        <time>2020-10-31T08:41:37Z</time>
      </trkpt>
      <trkpt lat="46.80158" lon="-0.73889">
        <ele>175.7</ele>
        <time>2020-10-31T08:41:45Z</time>
      </trkpt>
      <trkpt lat="46.80138" lon="-0.73899">
        <ele>174.1</ele>
        <time>2020-10-31T08:41:50Z</time>
      </trkpt>
      <trkpt lat="46.8013" lon="-0.73903">
        <ele>173.4</ele>
        <time>2020-10-31T08:41:52Z</time>
      </trkpt>
      <trkpt lat="46.80126" lon="-0.73905">
        <ele>173</ele>
        <time>2020-10-31T08:41:53Z</time>
      </trkpt>
      <trkpt lat="46.80108" lon="-0.73914">
        <ele>171.1</ele>
        <time>2020-10-31T08:41:58Z</time>
      </trkpt>
      <trkpt lat="46.80103" lon="-0.73919">
        <ele>171</ele>
        <time>2020-10-31T08:42:00Z</time>
      </trkpt>
      <trkpt lat="46.80102" lon="-0.73922">
        <ele>171</ele>
        <time>2020-10-31T08:42:01Z</time>
      </trkpt>
      <trkpt lat="46.8011" lon="-0.7394">
        <ele>170.9</ele>
        <time>2020-10-31T08:42:05Z</time>
      </trkpt>
      <trkpt lat="46.80125" lon="-0.73973">
        <ele>171.1</ele>
        <time>2020-10-31T08:42:11Z</time>
      </trkpt>
      <trkpt lat="46.80136" lon="-0.73998">
        <ele>171</ele>
        <time>2020-10-31T08:42:15Z</time>
      </trkpt>
      <trkpt lat="46.80144" lon="-0.74017">
        <ele>170.9</ele>
        <time>2020-10-31T08:42:18Z</time>
      </trkpt>
      <trkpt lat="46.80146" lon="-0.74024">
        <ele>171</ele>
        <time>2020-10-31T08:42:19Z</time>
      </trkpt>
      <trkpt lat="46.80151" lon="-0.74039">
        <ele>171</ele>
        <time>2020-10-31T08:42:21Z</time>
      </trkpt>
      <trkpt lat="46.80155" lon="-0.74051">
        <ele>170.9</ele>
        <time>2020-10-31T08:42:23Z</time>
      </trkpt>
      <trkpt lat="46.80156" lon="-0.74062">
        <ele>170.8</ele>
        <time>2020-10-31T08:42:25Z</time>
      </trkpt>
      <trkpt lat="46.80152" lon="-0.74068">
        <ele>170.6</ele>
        <time>2020-10-31T08:42:26Z</time>
      </trkpt>
      <trkpt lat="46.80149" lon="-0.74071">
        <ele>170.5</ele>
        <time>2020-10-31T08:42:27Z</time>
      </trkpt>
      <trkpt lat="46.80135" lon="-0.74082">
        <ele>170.2</ele>
        <time>2020-10-31T08:42:30Z</time>
      </trkpt>
      <trkpt lat="46.80107" lon="-0.741">
        <ele>170.4</ele>
        <time>2020-10-31T08:42:36Z</time>
      </trkpt>
      <trkpt lat="46.80103" lon="-0.741">
        <ele>170.4</ele>
        <time>2020-10-31T08:42:37Z</time>
      </trkpt>
      <trkpt lat="46.80097" lon="-0.74094">
        <ele>170.4</ele>
        <time>2020-10-31T08:42:39Z</time>
      </trkpt>
      <trkpt lat="46.80095" lon="-0.74088">
        <ele>170.3</ele>
        <time>2020-10-31T08:42:40Z</time>
      </trkpt>
      <trkpt lat="46.80095" lon="-0.7408">
        <ele>170.3</ele>
        <time>2020-10-31T08:42:41Z</time>
      </trkpt>
      <trkpt lat="46.80092" lon="-0.74047">
        <ele>170.1</ele>
        <time>2020-10-31T08:42:45Z</time>
      </trkpt>
      <trkpt lat="46.8009" lon="-0.74039">
        <ele>170.1</ele>
        <time>2020-10-31T08:42:46Z</time>
      </trkpt>
      <trkpt lat="46.80084" lon="-0.74025">
        <ele>170</ele>
        <time>2020-10-31T08:42:48Z</time>
      </trkpt>
      <trkpt lat="46.80074" lon="-0.74009">
        <ele>169.8</ele>
        <time>2020-10-31T08:42:51Z</time>
      </trkpt>
      <trkpt lat="46.80066" lon="-0.73999">
        <ele>169.7</ele>
        <time>2020-10-31T08:42:53Z</time>
      </trkpt>
      <trkpt lat="46.80059" lon="-0.73989">
        <ele>169.7</ele>
        <time>2020-10-31T08:42:55Z</time>
      </trkpt>
      <trkpt lat="46.80046" lon="-0.73974">
        <ele>169.7</ele>
        <time>2020-10-31T08:42:58Z</time>
      </trkpt>
      <trkpt lat="46.8002" lon="-0.73959">
        <ele>169.6</ele>
        <time>2020-10-31T08:43:03Z</time>
      </trkpt>
      <trkpt lat="46.80012" lon="-0.7395">
        <ele>169.6</ele>
        <time>2020-10-31T08:43:05Z</time>
      </trkpt>
      <trkpt lat="46.80006" lon="-0.73937">
        <ele>169.6</ele>
        <time>2020-10-31T08:43:07Z</time>
      </trkpt>
      <trkpt lat="46.79994" lon="-0.73903">
        <ele>169.5</ele>
        <time>2020-10-31T08:43:12Z</time>
      </trkpt>
      <trkpt lat="46.79991" lon="-0.73896">
        <ele>169.4</ele>
        <time>2020-10-31T08:43:13Z</time>
      </trkpt>
      <trkpt lat="46.79973" lon="-0.73847">
        <ele>169.3</ele>
        <time>2020-10-31T08:43:20Z</time>
      </trkpt>
      <trkpt lat="46.79963" lon="-0.73822">
        <ele>167.3</ele>
        <time>2020-10-31T08:43:24Z</time>
      </trkpt>
      <trkpt lat="46.79963" lon="-0.73806">
        <ele>165.5</ele>
        <time>2020-10-31T08:43:26Z</time>
      </trkpt>
      <trkpt lat="46.7997" lon="-0.73794">
        <ele>165.3</ele>
        <time>2020-10-31T08:43:28Z</time>
      </trkpt>
      <trkpt lat="46.79974" lon="-0.73789">
        <ele>165.1</ele>
        <time>2020-10-31T08:43:29Z</time>
      </trkpt>
      <trkpt lat="46.79984" lon="-0.73779">
        <ele>165.1</ele>
        <time>2020-10-31T08:43:31Z</time>
      </trkpt>
      <trkpt lat="46.79991" lon="-0.73764">
        <ele>164.9</ele>
        <time>2020-10-31T08:43:33Z</time>
      </trkpt>
      <trkpt lat="46.79991" lon="-0.73747">
        <ele>164.9</ele>
        <time>2020-10-31T08:43:35Z</time>
      </trkpt>
      <trkpt lat="46.79987" lon="-0.7374">
        <ele>164.7</ele>
        <time>2020-10-31T08:43:36Z</time>
      </trkpt>
      <trkpt lat="46.79982" lon="-0.73736">
        <ele>164.5</ele>
        <time>2020-10-31T08:43:37Z</time>
      </trkpt>
      <trkpt lat="46.7997" lon="-0.73726">
        <ele>164.2</ele>
        <time>2020-10-31T08:43:39Z</time>
      </trkpt>
      <trkpt lat="46.79955" lon="-0.73706">
        <ele>163.8</ele>
        <time>2020-10-31T08:43:42Z</time>
      </trkpt>
      <trkpt lat="46.7995" lon="-0.73703">
        <ele>163.8</ele>
        <time>2020-10-31T08:43:43Z</time>
      </trkpt>
      <trkpt lat="46.79945" lon="-0.73702">
        <ele>163.7</ele>
        <time>2020-10-31T08:43:44Z</time>
      </trkpt>
      <trkpt lat="46.79937" lon="-0.73703">
        <ele>163.5</ele>
        <time>2020-10-31T08:43:46Z</time>
      </trkpt>
      <trkpt lat="46.79928" lon="-0.73691">
        <ele>163.3</ele>
        <time>2020-10-31T08:43:49Z</time>
      </trkpt>
      <trkpt lat="46.79925" lon="-0.73686">
        <ele>163.3</ele>
        <time>2020-10-31T08:43:50Z</time>
      </trkpt>
      <trkpt lat="46.79912" lon="-0.73665">
        <ele>162.8</ele>
        <time>2020-10-31T08:43:54Z</time>
      </trkpt>
      <trkpt lat="46.79908" lon="-0.73659">
        <ele>162.7</ele>
        <time>2020-10-31T08:43:55Z</time>
      </trkpt>
      <trkpt lat="46.79904" lon="-0.73645">
        <ele>162.4</ele>
        <time>2020-10-31T08:43:57Z</time>
      </trkpt>
      <trkpt lat="46.79903" lon="-0.73637">
        <ele>162.2</ele>
        <time>2020-10-31T08:43:58Z</time>
      </trkpt>
      <trkpt lat="46.79901" lon="-0.73613">
        <ele>161.9</ele>
        <time>2020-10-31T08:44:01Z</time>
      </trkpt>
      <trkpt lat="46.79897" lon="-0.73599">
        <ele>161.7</ele>
        <time>2020-10-31T08:44:03Z</time>
      </trkpt>
      <trkpt lat="46.7988" lon="-0.73569">
        <ele>161.4</ele>
        <time>2020-10-31T08:44:08Z</time>
      </trkpt>
      <trkpt lat="46.79878" lon="-0.73562">
        <ele>161.4</ele>
        <time>2020-10-31T08:44:09Z</time>
      </trkpt>
      <trkpt lat="46.79868" lon="-0.73536">
        <ele>161.5</ele>
        <time>2020-10-31T08:44:13Z</time>
      </trkpt>
      <trkpt lat="46.79861" lon="-0.73517">
        <ele>161.6</ele>
        <time>2020-10-31T08:44:16Z</time>
      </trkpt>
      <trkpt lat="46.79857" lon="-0.73514">
        <ele>161.6</ele>
        <time>2020-10-31T08:44:17Z</time>
      </trkpt>
      <trkpt lat="46.79852" lon="-0.73513">
        <ele>161.5</ele>
        <time>2020-10-31T08:44:18Z</time>
      </trkpt>
      <trkpt lat="46.79831" lon="-0.73512">
        <ele>161.1</ele>
        <time>2020-10-31T08:44:22Z</time>
      </trkpt>
      <trkpt lat="46.79819" lon="-0.73512">
        <ele>161.1</ele>
        <time>2020-10-31T08:44:24Z</time>
      </trkpt>
      <trkpt lat="46.79808" lon="-0.7351">
        <ele>161.1</ele>
        <time>2020-10-31T08:44:26Z</time>
      </trkpt>
      <trkpt lat="46.79778" lon="-0.735">
        <ele>161.4</ele>
        <time>2020-10-31T08:44:32Z</time>
      </trkpt>
      <trkpt lat="46.79741" lon="-0.73489">
        <ele>162.1</ele>
        <time>2020-10-31T08:44:39Z</time>
      </trkpt>
      <trkpt lat="46.797" lon="-0.73479">
        <ele>163.1</ele>
        <time>2020-10-31T08:44:47Z</time>
      </trkpt>
      <trkpt lat="46.7967" lon="-0.73467">
        <ele>163.7</ele>
        <time>2020-10-31T08:44:53Z</time>
      </trkpt>
      <trkpt lat="46.79656" lon="-0.7346">
        <ele>164</ele>
        <time>2020-10-31T08:44:56Z</time>
      </trkpt>
      <trkpt lat="46.79648" lon="-0.73462">
        <ele>164.6</ele>
        <time>2020-10-31T08:44:58Z</time>
      </trkpt>
      <trkpt lat="46.79644" lon="-0.73473">
        <ele>164.9</ele>
        <time>2020-10-31T08:45:00Z</time>
      </trkpt>
      <trkpt lat="46.79644" lon="-0.7348">
        <ele>165</ele>
        <time>2020-10-31T08:45:01Z</time>
      </trkpt>
      <trkpt lat="46.79638" lon="-0.73538">
        <ele>166.6</ele>
        <time>2020-10-31T08:45:09Z</time>
      </trkpt>
      <trkpt lat="46.79632" lon="-0.7359">
        <ele>167.8</ele>
        <time>2020-10-31T08:45:17Z</time>
      </trkpt>
      <trkpt lat="46.79629" lon="-0.73645">
        <ele>167.8</ele>
        <time>2020-10-31T08:45:25Z</time>
      </trkpt>
      <trkpt lat="46.79627" lon="-0.73696">
        <ele>166.8</ele>
        <time>2020-10-31T08:45:31Z</time>
      </trkpt>
      <trkpt lat="46.79626" lon="-0.73716">
        <ele>166.5</ele>
        <time>2020-10-31T08:45:33Z</time>
      </trkpt>
      <trkpt lat="46.79621" lon="-0.73735">
        <ele>166.6</ele>
        <time>2020-10-31T08:45:35Z</time>
      </trkpt>
      <trkpt lat="46.79612" lon="-0.73748">
        <ele>167</ele>
        <time>2020-10-31T08:45:37Z</time>
      </trkpt>
      <trkpt lat="46.79607" lon="-0.73752">
        <ele>167.3</ele>
        <time>2020-10-31T08:45:38Z</time>
      </trkpt>
      <trkpt lat="46.79589" lon="-0.73766">
        <ele>168.5</ele>
        <time>2020-10-31T08:45:43Z</time>
      </trkpt>
      <trkpt lat="46.79569" lon="-0.7378">
        <ele>170</ele>
        <time>2020-10-31T08:45:49Z</time>
      </trkpt>
      <trkpt lat="46.79548" lon="-0.73795">
        <ele>171.5</ele>
        <time>2020-10-31T08:45:55Z</time>
      </trkpt>
      <trkpt lat="46.79524" lon="-0.73814">
        <ele>172.8</ele>
        <time>2020-10-31T08:46:02Z</time>
      </trkpt>
      <trkpt lat="46.79504" lon="-0.73829">
        <ele>173.3</ele>
        <time>2020-10-31T08:46:07Z</time>
      </trkpt>
      <trkpt lat="46.79488" lon="-0.73841">
        <ele>173.7</ele>
        <time>2020-10-31T08:46:11Z</time>
      </trkpt>
      <trkpt lat="46.79484" lon="-0.73844">
        <ele>173.8</ele>
        <time>2020-10-31T08:46:12Z</time>
      </trkpt>
      <trkpt lat="46.7948" lon="-0.73847">
        <ele>173.9</ele>
        <time>2020-10-31T08:46:13Z</time>
      </trkpt>
      <trkpt lat="46.79472" lon="-0.73849">
        <ele>174</ele>
        <time>2020-10-31T08:46:15Z</time>
      </trkpt>
      <trkpt lat="46.79467" lon="-0.73847">
        <ele>174.1</ele>
        <time>2020-10-31T08:46:16Z</time>
      </trkpt>
      <trkpt lat="46.79463" lon="-0.73843">
        <ele>174.1</ele>
        <time>2020-10-31T08:46:17Z</time>
      </trkpt>
      <trkpt lat="46.79458" lon="-0.73832">
        <ele>174.2</ele>
        <time>2020-10-31T08:46:19Z</time>
      </trkpt>
      <trkpt lat="46.79431" lon="-0.73788">
        <ele>174.4</ele>
        <time>2020-10-31T08:46:27Z</time>
      </trkpt>
      <trkpt lat="46.79405" lon="-0.73757">
        <ele>173</ele>
        <time>2020-10-31T08:46:33Z</time>
      </trkpt>
      <trkpt lat="46.79368" lon="-0.73717">
        <ele>171.1</ele>
        <time>2020-10-31T08:46:40Z</time>
      </trkpt>
      <trkpt lat="46.79342" lon="-0.73689">
        <ele>170.5</ele>
        <time>2020-10-31T08:46:45Z</time>
      </trkpt>
      <trkpt lat="46.79338" lon="-0.73686">
        <ele>170.4</ele>
        <time>2020-10-31T08:46:46Z</time>
      </trkpt>
      <trkpt lat="46.79331" lon="-0.73679">
        <ele>170.1</ele>
        <time>2020-10-31T08:46:49Z</time>
      </trkpt>
      <trkpt lat="46.79324" lon="-0.73668">
        <ele>169.8</ele>
        <time>2020-10-31T08:46:51Z</time>
      </trkpt>
      <trkpt lat="46.79319" lon="-0.73663">
        <ele>169.6</ele>
        <time>2020-10-31T08:46:52Z</time>
      </trkpt>
      <trkpt lat="46.79282" lon="-0.73621">
        <ele>168.5</ele>
        <time>2020-10-31T08:46:59Z</time>
      </trkpt>
      <trkpt lat="46.79243" lon="-0.7357">
        <ele>167.4</ele>
        <time>2020-10-31T08:47:07Z</time>
      </trkpt>
      <trkpt lat="46.79237" lon="-0.73565">
        <ele>167.3</ele>
        <time>2020-10-31T08:47:08Z</time>
      </trkpt>
      <trkpt lat="46.79226" lon="-0.73564">
        <ele>167.1</ele>
        <time>2020-10-31T08:47:10Z</time>
      </trkpt>
      <trkpt lat="46.79211" lon="-0.73582">
        <ele>167.1</ele>
        <time>2020-10-31T08:47:13Z</time>
      </trkpt>
      <trkpt lat="46.79171" lon="-0.73637">
        <ele>167.4</ele>
        <time>2020-10-31T08:47:22Z</time>
      </trkpt>
      <trkpt lat="46.79167" lon="-0.73643">
        <ele>167.5</ele>
        <time>2020-10-31T08:47:23Z</time>
      </trkpt>
      <trkpt lat="46.79129" lon="-0.7369">
        <ele>167.7</ele>
        <time>2020-10-31T08:47:31Z</time>
      </trkpt>
      <trkpt lat="46.79115" lon="-0.7371">
        <ele>167.6</ele>
        <time>2020-10-31T08:47:34Z</time>
      </trkpt>
      <trkpt lat="46.79107" lon="-0.73725">
        <ele>167.4</ele>
        <time>2020-10-31T08:47:36Z</time>
      </trkpt>
      <trkpt lat="46.79079" lon="-0.73767">
        <ele>166.8</ele>
        <time>2020-10-31T08:47:42Z</time>
      </trkpt>
      <trkpt lat="46.79056" lon="-0.73803">
        <ele>166.6</ele>
        <time>2020-10-31T08:47:47Z</time>
      </trkpt>
      <trkpt lat="46.79049" lon="-0.7382">
        <ele>166.5</ele>
        <time>2020-10-31T08:47:49Z</time>
      </trkpt>
      <trkpt lat="46.79036" lon="-0.73854">
        <ele>166.3</ele>
        <time>2020-10-31T08:47:53Z</time>
      </trkpt>
      <trkpt lat="46.79033" lon="-0.73864">
        <ele>166.3</ele>
        <time>2020-10-31T08:47:54Z</time>
      </trkpt>
      <trkpt lat="46.79013" lon="-0.73937">
        <ele>166.1</ele>
        <time>2020-10-31T08:48:02Z</time>
      </trkpt>
      <trkpt lat="46.79007" lon="-0.73955">
        <ele>166</ele>
        <time>2020-10-31T08:48:04Z</time>
      </trkpt>
      <trkpt lat="46.78984" lon="-0.74025">
        <ele>165.7</ele>
        <time>2020-10-31T08:48:12Z</time>
      </trkpt>
      <trkpt lat="46.78968" lon="-0.7408">
        <ele>165.2</ele>
        <time>2020-10-31T08:48:18Z</time>
      </trkpt>
      <trkpt lat="46.78967" lon="-0.7409">
        <ele>165.2</ele>
        <time>2020-10-31T08:48:19Z</time>
      </trkpt>
      <trkpt lat="46.78965" lon="-0.7411">
        <ele>165.1</ele>
        <time>2020-10-31T08:48:21Z</time>
      </trkpt>
      <trkpt lat="46.78966" lon="-0.7414">
        <ele>165</ele>
        <time>2020-10-31T08:48:24Z</time>
      </trkpt>
      <trkpt lat="46.78966" lon="-0.7416">
        <ele>164.9</ele>
        <time>2020-10-31T08:48:26Z</time>
      </trkpt>
      <trkpt lat="46.78963" lon="-0.74178">
        <ele>164.9</ele>
        <time>2020-10-31T08:48:28Z</time>
      </trkpt>
      <trkpt lat="46.78954" lon="-0.74191">
        <ele>165</ele>
        <time>2020-10-31T08:48:30Z</time>
      </trkpt>
      <trkpt lat="46.78949" lon="-0.74195">
        <ele>165</ele>
        <time>2020-10-31T08:48:31Z</time>
      </trkpt>
      <trkpt lat="46.78927" lon="-0.74211">
        <ele>165.3</ele>
        <time>2020-10-31T08:48:35Z</time>
      </trkpt>
      <trkpt lat="46.78917" lon="-0.74221">
        <ele>165.6</ele>
        <time>2020-10-31T08:48:37Z</time>
      </trkpt>
      <trkpt lat="46.78899" lon="-0.74248">
        <ele>166.4</ele>
        <time>2020-10-31T08:48:42Z</time>
      </trkpt>
      <trkpt lat="46.78896" lon="-0.74254">
        <ele>166.6</ele>
        <time>2020-10-31T08:48:43Z</time>
      </trkpt>
      <trkpt lat="46.78874" lon="-0.74288">
        <ele>167.6</ele>
        <time>2020-10-31T08:48:50Z</time>
      </trkpt>
      <trkpt lat="46.78843" lon="-0.74333">
        <ele>169</ele>
        <time>2020-10-31T08:49:00Z</time>
      </trkpt>
      <trkpt lat="46.78838" lon="-0.74341">
        <ele>169.3</ele>
        <time>2020-10-31T08:49:02Z</time>
      </trkpt>
      <trkpt lat="46.78838" lon="-0.74346">
        <ele>169.5</ele>
        <time>2020-10-31T08:49:03Z</time>
      </trkpt>
      <trkpt lat="46.78843" lon="-0.74363">
        <ele>170.1</ele>
        <time>2020-10-31T08:49:07Z</time>
      </trkpt>
      <trkpt lat="46.78849" lon="-0.74378">
        <ele>170.5</ele>
        <time>2020-10-31T08:49:11Z</time>
      </trkpt>
      <trkpt lat="46.78852" lon="-0.74391">
        <ele>170.8</ele>
        <time>2020-10-31T08:49:14Z</time>
      </trkpt>
      <trkpt lat="46.78853" lon="-0.74402">
        <ele>170.9</ele>
        <time>2020-10-31T08:49:16Z</time>
      </trkpt>
      <trkpt lat="46.78853" lon="-0.74446">
        <ele>171.7</ele>
        <time>2020-10-31T08:49:24Z</time>
      </trkpt>
      <trkpt lat="46.78847" lon="-0.74474">
        <ele>172.1</ele>
        <time>2020-10-31T08:49:29Z</time>
      </trkpt>
      <trkpt lat="46.78843" lon="-0.74494">
        <ele>172.4</ele>
        <time>2020-10-31T08:49:33Z</time>
      </trkpt>
      <trkpt lat="46.7884" lon="-0.74513">
        <ele>172.7</ele>
        <time>2020-10-31T08:49:37Z</time>
      </trkpt>
      <trkpt lat="46.78835" lon="-0.74533">
        <ele>173</ele>
        <time>2020-10-31T08:49:41Z</time>
      </trkpt>
      <trkpt lat="46.78828" lon="-0.74563">
        <ele>173.5</ele>
        <time>2020-10-31T08:49:47Z</time>
      </trkpt>
      <trkpt lat="46.78822" lon="-0.74595">
        <ele>174.1</ele>
        <time>2020-10-31T08:49:54Z</time>
      </trkpt>
      <trkpt lat="46.7882" lon="-0.74617">
        <ele>174.6</ele>
        <time>2020-10-31T08:49:59Z</time>
      </trkpt>
      <trkpt lat="46.78819" lon="-0.74622">
        <ele>174.7</ele>
        <time>2020-10-31T08:50:00Z</time>
      </trkpt>
      <trkpt lat="46.78814" lon="-0.74635">
        <ele>175</ele>
        <time>2020-10-31T08:50:03Z</time>
      </trkpt>
      <trkpt lat="46.7881" lon="-0.74655">
        <ele>175.4</ele>
        <time>2020-10-31T08:50:07Z</time>
      </trkpt>
      <trkpt lat="46.78802" lon="-0.74685">
        <ele>175.9</ele>
        <time>2020-10-31T08:50:13Z</time>
      </trkpt>
      <trkpt lat="46.78796" lon="-0.7471">
        <ele>176.5</ele>
        <time>2020-10-31T08:50:18Z</time>
      </trkpt>
      <trkpt lat="46.7879" lon="-0.74729">
        <ele>177</ele>
        <time>2020-10-31T08:50:22Z</time>
      </trkpt>
      <trkpt lat="46.7878" lon="-0.74757">
        <ele>178</ele>
        <time>2020-10-31T08:50:28Z</time>
      </trkpt>
      <trkpt lat="46.78768" lon="-0.7479">
        <ele>179.2</ele>
        <time>2020-10-31T08:50:35Z</time>
      </trkpt>
      <trkpt lat="46.78755" lon="-0.7482">
        <ele>180.4</ele>
        <time>2020-10-31T08:50:42Z</time>
      </trkpt>
      <trkpt lat="46.78748" lon="-0.74841">
        <ele>181.2</ele>
        <time>2020-10-31T08:50:47Z</time>
      </trkpt>
      <trkpt lat="46.78742" lon="-0.74861">
        <ele>182.1</ele>
        <time>2020-10-31T08:50:52Z</time>
      </trkpt>
      <trkpt lat="46.78736" lon="-0.74882">
        <ele>183</ele>
        <time>2020-10-31T08:50:58Z</time>
      </trkpt>
      <trkpt lat="46.78728" lon="-0.74906">
        <ele>184.2</ele>
        <time>2020-10-31T08:51:05Z</time>
      </trkpt>
      <trkpt lat="46.78724" lon="-0.74917">
        <ele>184.8</ele>
        <time>2020-10-31T08:51:09Z</time>
      </trkpt>
      <trkpt lat="46.78717" lon="-0.74932">
        <ele>186.1</ele>
        <time>2020-10-31T08:51:15Z</time>
      </trkpt>
      <trkpt lat="46.78714" lon="-0.74941">
        <ele>186.9</ele>
        <time>2020-10-31T08:51:19Z</time>
      </trkpt>
      <trkpt lat="46.78708" lon="-0.74952">
        <ele>188.1</ele>
        <time>2020-10-31T08:51:24Z</time>
      </trkpt>
      <trkpt lat="46.78698" lon="-0.74963">
        <ele>189.5</ele>
        <time>2020-10-31T08:51:30Z</time>
      </trkpt>
      <trkpt lat="46.78697" lon="-0.74966">
        <ele>189.7</ele>
        <time>2020-10-31T08:51:31Z</time>
      </trkpt>
      <trkpt lat="46.78698" lon="-0.74974">
        <ele>190.2</ele>
        <time>2020-10-31T08:51:34Z</time>
      </trkpt>
      <trkpt lat="46.78698" lon="-0.74977">
        <ele>190.3</ele>
        <time>2020-10-31T08:51:35Z</time>
      </trkpt>
      <trkpt lat="46.78693" lon="-0.74989">
        <ele>190.8</ele>
        <time>2020-10-31T08:51:38Z</time>
      </trkpt>
      <trkpt lat="46.78685" lon="-0.75009">
        <ele>191.6</ele>
        <time>2020-10-31T08:51:43Z</time>
      </trkpt>
      <trkpt lat="46.78681" lon="-0.75028">
        <ele>192.4</ele>
        <time>2020-10-31T08:51:48Z</time>
      </trkpt>
      <trkpt lat="46.78677" lon="-0.75051">
        <ele>193.3</ele>
        <time>2020-10-31T08:51:54Z</time>
      </trkpt>
      <trkpt lat="46.78671" lon="-0.75072">
        <ele>194.1</ele>
        <time>2020-10-31T08:51:59Z</time>
      </trkpt>
      <trkpt lat="46.78666" lon="-0.75097">
        <ele>195.2</ele>
        <time>2020-10-31T08:52:05Z</time>
      </trkpt>
      <trkpt lat="46.78664" lon="-0.75103">
        <ele>195.1</ele>
        <time>2020-10-31T08:52:07Z</time>
      </trkpt>
      <trkpt lat="46.7866" lon="-0.75102">
        <ele>195</ele>
        <time>2020-10-31T08:52:09Z</time>
      </trkpt>
      <trkpt lat="46.78648" lon="-0.75085">
        <ele>194.6</ele>
        <time>2020-10-31T08:52:14Z</time>
      </trkpt>
      <trkpt lat="46.78627" lon="-0.75047">
        <ele>194.2</ele>
        <time>2020-10-31T08:52:22Z</time>
      </trkpt>
      <trkpt lat="46.78605" lon="-0.75012">
        <ele>193.4</ele>
        <time>2020-10-31T08:52:28Z</time>
      </trkpt>
      <trkpt lat="46.78578" lon="-0.74971">
        <ele>192.2</ele>
        <time>2020-10-31T08:52:35Z</time>
      </trkpt>
      <trkpt lat="46.78573" lon="-0.74967">
        <ele>192.1</ele>
        <time>2020-10-31T08:52:36Z</time>
      </trkpt>
      <trkpt lat="46.78558" lon="-0.74957">
        <ele>191.9</ele>
        <time>2020-10-31T08:52:39Z</time>
      </trkpt>
      <trkpt lat="46.78542" lon="-0.74955">
        <ele>192.1</ele>
        <time>2020-10-31T08:52:42Z</time>
      </trkpt>
      <trkpt lat="46.78532" lon="-0.74958">
        <ele>192.2</ele>
        <time>2020-10-31T08:52:44Z</time>
      </trkpt>
      <trkpt lat="46.78522" lon="-0.74959">
        <ele>192.2</ele>
        <time>2020-10-31T08:52:46Z</time>
      </trkpt>
      <trkpt lat="46.78514" lon="-0.74952">
        <ele>191.9</ele>
        <time>2020-10-31T08:52:48Z</time>
      </trkpt>
      <trkpt lat="46.7851" lon="-0.74937">
        <ele>191.5</ele>
        <time>2020-10-31T08:52:50Z</time>
      </trkpt>
      <trkpt lat="46.78509" lon="-0.74929">
        <ele>191.2</ele>
        <time>2020-10-31T08:52:51Z</time>
      </trkpt>
      <trkpt lat="46.78506" lon="-0.74922">
        <ele>191.1</ele>
        <time>2020-10-31T08:52:52Z</time>
      </trkpt>
      <trkpt lat="46.78499" lon="-0.74909">
        <ele>190.8</ele>
        <time>2020-10-31T08:52:54Z</time>
      </trkpt>
      <trkpt lat="46.78487" lon="-0.74901">
        <ele>190.3</ele>
        <time>2020-10-31T08:52:56Z</time>
      </trkpt>
      <trkpt lat="46.78481" lon="-0.74899">
        <ele>190</ele>
        <time>2020-10-31T08:52:57Z</time>
      </trkpt>
      <trkpt lat="46.78468" lon="-0.74897">
        <ele>189.1</ele>
        <time>2020-10-31T08:52:59Z</time>
      </trkpt>
      <trkpt lat="46.78448" lon="-0.74898">
        <ele>188.1</ele>
        <time>2020-10-31T08:53:02Z</time>
      </trkpt>
      <trkpt lat="46.7843" lon="-0.74898">
        <ele>187.3</ele>
        <time>2020-10-31T08:53:05Z</time>
      </trkpt>
      <trkpt lat="46.78426" lon="-0.74895">
        <ele>187.1</ele>
        <time>2020-10-31T08:53:06Z</time>
      </trkpt>
      <trkpt lat="46.78423" lon="-0.74888">
        <ele>186.9</ele>
        <time>2020-10-31T08:53:07Z</time>
      </trkpt>
      <trkpt lat="46.78423" lon="-0.7488">
        <ele>186.4</ele>
        <time>2020-10-31T08:53:08Z</time>
      </trkpt>
      <trkpt lat="46.78424" lon="-0.74871">
        <ele>186.2</ele>
        <time>2020-10-31T08:53:09Z</time>
      </trkpt>
      <trkpt lat="46.78427" lon="-0.74852">
        <ele>185.6</ele>
        <time>2020-10-31T08:53:11Z</time>
      </trkpt>
      <trkpt lat="46.78429" lon="-0.74842">
        <ele>185.2</ele>
        <time>2020-10-31T08:53:12Z</time>
      </trkpt>
      <trkpt lat="46.78429" lon="-0.74831">
        <ele>184.8</ele>
        <time>2020-10-31T08:53:13Z</time>
      </trkpt>
      <trkpt lat="46.78429" lon="-0.74783">
        <ele>183.4</ele>
        <time>2020-10-31T08:53:17Z</time>
      </trkpt>
      <trkpt lat="46.78423" lon="-0.74714">
        <ele>181.6</ele>
        <time>2020-10-31T08:53:23Z</time>
      </trkpt>
      <trkpt lat="46.78428" lon="-0.74655">
        <ele>179.8</ele>
        <time>2020-10-31T08:53:28Z</time>
      </trkpt>
      <trkpt lat="46.78429" lon="-0.74642">
        <ele>179.4</ele>
        <time>2020-10-31T08:53:29Z</time>
      </trkpt>
      <trkpt lat="46.78431" lon="-0.74594">
        <ele>178.3</ele>
        <time>2020-10-31T08:53:33Z</time>
      </trkpt>
      <trkpt lat="46.7843" lon="-0.74583">
        <ele>178</ele>
        <time>2020-10-31T08:53:34Z</time>
      </trkpt>
      <trkpt lat="46.78423" lon="-0.74564">
        <ele>177.4</ele>
        <time>2020-10-31T08:53:36Z</time>
      </trkpt>
      <trkpt lat="46.78413" lon="-0.74546">
        <ele>176.8</ele>
        <time>2020-10-31T08:53:38Z</time>
      </trkpt>
      <trkpt lat="46.78405" lon="-0.74525">
        <ele>176.3</ele>
        <time>2020-10-31T08:53:40Z</time>
      </trkpt>
      <trkpt lat="46.78383" lon="-0.74455">
        <ele>175.6</ele>
        <time>2020-10-31T08:53:47Z</time>
      </trkpt>
      <trkpt lat="46.78378" lon="-0.74447">
        <ele>175.7</ele>
        <time>2020-10-31T08:53:48Z</time>
      </trkpt>
      <trkpt lat="46.78355" lon="-0.74413">
        <ele>175.1</ele>
        <time>2020-10-31T08:53:53Z</time>
      </trkpt>
      <trkpt lat="46.78349" lon="-0.74407">
        <ele>174.8</ele>
        <time>2020-10-31T08:53:54Z</time>
      </trkpt>
      <trkpt lat="46.78342" lon="-0.74405">
        <ele>174.4</ele>
        <time>2020-10-31T08:53:55Z</time>
      </trkpt>
      <trkpt lat="46.78334" lon="-0.74406">
        <ele>173.9</ele>
        <time>2020-10-31T08:53:56Z</time>
      </trkpt>
      <trkpt lat="46.78327" lon="-0.74411">
        <ele>173.3</ele>
        <time>2020-10-31T08:53:57Z</time>
      </trkpt>
      <trkpt lat="46.78312" lon="-0.74425">
        <ele>172</ele>
        <time>2020-10-31T08:53:59Z</time>
      </trkpt>
      <trkpt lat="46.78295" lon="-0.74436">
        <ele>170.6</ele>
        <time>2020-10-31T08:54:01Z</time>
      </trkpt>
      <trkpt lat="46.78286" lon="-0.7444">
        <ele>169.9</ele>
        <time>2020-10-31T08:54:02Z</time>
      </trkpt>
      <trkpt lat="46.78229" lon="-0.74454">
        <ele>168.5</ele>
        <time>2020-10-31T08:54:08Z</time>
      </trkpt>
      <trkpt lat="46.78212" lon="-0.7446">
        <ele>169.1</ele>
        <time>2020-10-31T08:54:10Z</time>
      </trkpt>
      <trkpt lat="46.78199" lon="-0.74471">
        <ele>169.8</ele>
        <time>2020-10-31T08:54:12Z</time>
      </trkpt>
      <trkpt lat="46.78193" lon="-0.74488">
        <ele>170.7</ele>
        <time>2020-10-31T08:54:14Z</time>
      </trkpt>
      <trkpt lat="46.78192" lon="-0.74496">
        <ele>171.1</ele>
        <time>2020-10-31T08:54:15Z</time>
      </trkpt>
      <trkpt lat="46.78189" lon="-0.74504">
        <ele>171.4</ele>
        <time>2020-10-31T08:54:16Z</time>
      </trkpt>
      <trkpt lat="46.78182" lon="-0.74516">
        <ele>172</ele>
        <time>2020-10-31T08:54:18Z</time>
      </trkpt>
      <trkpt lat="46.78178" lon="-0.7452">
        <ele>172.2</ele>
        <time>2020-10-31T08:54:19Z</time>
      </trkpt>
      <trkpt lat="46.78147" lon="-0.74553">
        <ele>172.9</ele>
        <time>2020-10-31T08:54:26Z</time>
      </trkpt>
      <trkpt lat="46.78133" lon="-0.74564">
        <ele>173.1</ele>
        <time>2020-10-31T08:54:29Z</time>
      </trkpt>
      <trkpt lat="46.78123" lon="-0.74569">
        <ele>173.1</ele>
        <time>2020-10-31T08:54:31Z</time>
      </trkpt>
      <trkpt lat="46.78118" lon="-0.74571">
        <ele>173.1</ele>
        <time>2020-10-31T08:54:32Z</time>
      </trkpt>
      <trkpt lat="46.78095" lon="-0.74572">
        <ele>172.7</ele>
        <time>2020-10-31T08:54:36Z</time>
      </trkpt>
      <trkpt lat="46.78089" lon="-0.74571">
        <ele>172.6</ele>
        <time>2020-10-31T08:54:37Z</time>
      </trkpt>
      <trkpt lat="46.78078" lon="-0.74562">
        <ele>172.4</ele>
        <time>2020-10-31T08:54:39Z</time>
      </trkpt>
      <trkpt lat="46.78056" lon="-0.74535">
        <ele>172.2</ele>
        <time>2020-10-31T08:54:43Z</time>
      </trkpt>
      <trkpt lat="46.78047" lon="-0.74527">
        <ele>172.2</ele>
        <time>2020-10-31T08:54:46Z</time>
      </trkpt>
      <trkpt lat="46.78046" lon="-0.74517">
        <ele>172.2</ele>
        <time>2020-10-31T08:54:49Z</time>
      </trkpt>
      <trkpt lat="46.78042" lon="-0.74509">
        <ele>172.2</ele>
        <time>2020-10-31T08:54:52Z</time>
      </trkpt>
      <trkpt lat="46.78039" lon="-0.74498">
        <ele>172.2</ele>
        <time>2020-10-31T08:54:55Z</time>
      </trkpt>
      <trkpt lat="46.7804" lon="-0.74477">
        <ele>172.2</ele>
        <time>2020-10-31T08:55:00Z</time>
      </trkpt>
      <trkpt lat="46.78039" lon="-0.74473">
        <ele>171.3</ele>
        <time>2020-10-31T08:55:01Z</time>
      </trkpt>
      <trkpt lat="46.78037" lon="-0.74466">
        <ele>170.5</ele>
        <time>2020-10-31T08:55:03Z</time>
      </trkpt>
      <trkpt lat="46.7804" lon="-0.74445">
        <ele>170.3</ele>
        <time>2020-10-31T08:55:08Z</time>
      </trkpt>
      <trkpt lat="46.78038" lon="-0.74425">
        <ele>169.8</ele>
        <time>2020-10-31T08:55:14Z</time>
      </trkpt>
      <trkpt lat="46.78035" lon="-0.74412">
        <ele>169.2</ele>
        <time>2020-10-31T08:55:19Z</time>
      </trkpt>
      <trkpt lat="46.7803" lon="-0.74403">
        <ele>169.9</ele>
        <time>2020-10-31T08:55:23Z</time>
      </trkpt>
      <trkpt lat="46.78025" lon="-0.74396">
        <ele>170.4</ele>
        <time>2020-10-31T08:55:27Z</time>
      </trkpt>
      <trkpt lat="46.78022" lon="-0.74387">
        <ele>171</ele>
        <time>2020-10-31T08:55:30Z</time>
      </trkpt>
      <trkpt lat="46.78021" lon="-0.74384">
        <ele>171.2</ele>
        <time>2020-10-31T08:55:31Z</time>
      </trkpt>
      <trkpt lat="46.78012" lon="-0.74365">
        <ele>172.5</ele>
        <time>2020-10-31T08:55:38Z</time>
      </trkpt>
      <trkpt lat="46.78003" lon="-0.74351">
        <ele>173.5</ele>
        <time>2020-10-31T08:55:43Z</time>
      </trkpt>
      <trkpt lat="46.77998" lon="-0.74338">
        <ele>174.1</ele>
        <time>2020-10-31T08:55:47Z</time>
      </trkpt>
      <trkpt lat="46.77991" lon="-0.74317">
        <ele>174.6</ele>
        <time>2020-10-31T08:55:52Z</time>
      </trkpt>
      <trkpt lat="46.77984" lon="-0.74288">
        <ele>175.2</ele>
        <time>2020-10-31T08:55:58Z</time>
      </trkpt>
      <trkpt lat="46.77983" lon="-0.74284">
        <ele>175.2</ele>
        <time>2020-10-31T08:55:59Z</time>
      </trkpt>
      <trkpt lat="46.7798" lon="-0.74277">
        <ele>175.4</ele>
        <time>2020-10-31T08:56:01Z</time>
      </trkpt>
      <trkpt lat="46.77978" lon="-0.7427">
        <ele>175.5</ele>
        <time>2020-10-31T08:56:03Z</time>
      </trkpt>
      <trkpt lat="46.77976" lon="-0.74262">
        <ele>175.6</ele>
        <time>2020-10-31T08:56:05Z</time>
      </trkpt>
      <trkpt lat="46.7797" lon="-0.74238">
        <ele>175.7</ele>
        <time>2020-10-31T08:56:10Z</time>
      </trkpt>
      <trkpt lat="46.77963" lon="-0.74228">
        <ele>175.7</ele>
        <time>2020-10-31T08:56:13Z</time>
      </trkpt>
      <trkpt lat="46.7796" lon="-0.74227">
        <ele>175.7</ele>
        <time>2020-10-31T08:56:14Z</time>
      </trkpt>
      <trkpt lat="46.77958" lon="-0.74227">
        <ele>175.6</ele>
        <time>2020-10-31T08:56:15Z</time>
      </trkpt>
      <trkpt lat="46.77948" lon="-0.74228">
        <ele>175.6</ele>
        <time>2020-10-31T08:56:18Z</time>
      </trkpt>
      <trkpt lat="46.77939" lon="-0.74225">
        <ele>175.7</ele>
        <time>2020-10-31T08:56:21Z</time>
      </trkpt>
      <trkpt lat="46.7793" lon="-0.74217">
        <ele>175.8</ele>
        <time>2020-10-31T08:56:25Z</time>
      </trkpt>
      <trkpt lat="46.77922" lon="-0.74196">
        <ele>175.8</ele>
        <time>2020-10-31T08:56:30Z</time>
      </trkpt>
      <trkpt lat="46.77915" lon="-0.7418">
        <ele>175.9</ele>
        <time>2020-10-31T08:56:34Z</time>
      </trkpt>
      <trkpt lat="46.77907" lon="-0.74161">
        <ele>176.1</ele>
        <time>2020-10-31T08:56:39Z</time>
      </trkpt>
      <trkpt lat="46.77904" lon="-0.74151">
        <ele>176.3</ele>
        <time>2020-10-31T08:56:42Z</time>
      </trkpt>
      <trkpt lat="46.77902" lon="-0.74149">
        <ele>176.4</ele>
        <time>2020-10-31T08:56:43Z</time>
      </trkpt>
      <trkpt lat="46.77898" lon="-0.74135">
        <ele>176.6</ele>
        <time>2020-10-31T08:56:47Z</time>
      </trkpt>
      <trkpt lat="46.77893" lon="-0.74121">
        <ele>176.8</ele>
        <time>2020-10-31T08:56:51Z</time>
      </trkpt>
      <trkpt lat="46.77885" lon="-0.74107">
        <ele>176.8</ele>
        <time>2020-10-31T08:56:56Z</time>
      </trkpt>
      <trkpt lat="46.77883" lon="-0.74105">
        <ele>176.8</ele>
        <time>2020-10-31T08:56:57Z</time>
      </trkpt>
      <trkpt lat="46.77878" lon="-0.741">
        <ele>176.9</ele>
        <time>2020-10-31T08:57:00Z</time>
      </trkpt>
      <trkpt lat="46.77875" lon="-0.74093">
        <ele>177</ele>
        <time>2020-10-31T08:57:02Z</time>
      </trkpt>
      <trkpt lat="46.77865" lon="-0.74084">
        <ele>177.3</ele>
        <time>2020-10-31T08:57:05Z</time>
      </trkpt>
      <trkpt lat="46.77858" lon="-0.74069">
        <ele>177.9</ele>
        <time>2020-10-31T08:57:08Z</time>
      </trkpt>
      <trkpt lat="46.77855" lon="-0.74064">
        <ele>178.1</ele>
        <time>2020-10-31T08:57:10Z</time>
      </trkpt>
      <trkpt lat="46.77854" lon="-0.7406">
        <ele>178.3</ele>
        <time>2020-10-31T08:57:11Z</time>
      </trkpt>
      <trkpt lat="46.77848" lon="-0.74048">
        <ele>178.9</ele>
        <time>2020-10-31T08:57:15Z</time>
      </trkpt>
      <trkpt lat="46.77845" lon="-0.7404">
        <ele>179.3</ele>
        <time>2020-10-31T08:57:18Z</time>
      </trkpt>
      <trkpt lat="46.77842" lon="-0.74034">
        <ele>179.7</ele>
        <time>2020-10-31T08:57:20Z</time>
      </trkpt>
      <trkpt lat="46.77836" lon="-0.74026">
        <ele>180.2</ele>
        <time>2020-10-31T08:57:23Z</time>
      </trkpt>
      <trkpt lat="46.77828" lon="-0.74013">
        <ele>180.9</ele>
        <time>2020-10-31T08:57:28Z</time>
      </trkpt>
      <trkpt lat="46.77817" lon="-0.74">
        <ele>182</ele>
        <time>2020-10-31T08:57:34Z</time>
      </trkpt>
      <trkpt lat="46.77809" lon="-0.73992">
        <ele>183.2</ele>
        <time>2020-10-31T08:57:39Z</time>
      </trkpt>
      <trkpt lat="46.77797" lon="-0.73983">
        <ele>185</ele>
        <time>2020-10-31T08:57:44Z</time>
      </trkpt>
      <trkpt lat="46.77791" lon="-0.73979">
        <ele>185.9</ele>
        <time>2020-10-31T08:57:47Z</time>
      </trkpt>
      <trkpt lat="46.77789" lon="-0.73976">
        <ele>186.3</ele>
        <time>2020-10-31T08:57:48Z</time>
      </trkpt>
      <trkpt lat="46.77788" lon="-0.73975">
        <ele>186.4</ele>
        <time>2020-10-31T08:57:49Z</time>
      </trkpt>
      <trkpt lat="46.77783" lon="-0.73969">
        <ele>187.1</ele>
        <time>2020-10-31T08:57:52Z</time>
      </trkpt>
      <trkpt lat="46.77771" lon="-0.73957">
        <ele>188.7</ele>
        <time>2020-10-31T08:57:58Z</time>
      </trkpt>
      <trkpt lat="46.77755" lon="-0.73943">
        <ele>190.4</ele>
        <time>2020-10-31T08:58:05Z</time>
      </trkpt>
      <trkpt lat="46.77745" lon="-0.73933">
        <ele>191</ele>
        <time>2020-10-31T08:58:10Z</time>
      </trkpt>
      <trkpt lat="46.77729" lon="-0.73926">
        <ele>191.2</ele>
        <time>2020-10-31T08:58:15Z</time>
      </trkpt>
      <trkpt lat="46.77713" lon="-0.73911">
        <ele>190.6</ele>
        <time>2020-10-31T08:58:20Z</time>
      </trkpt>
      <trkpt lat="46.77705" lon="-0.73903">
        <ele>190.3</ele>
        <time>2020-10-31T08:58:22Z</time>
      </trkpt>
      <trkpt lat="46.77698" lon="-0.73892">
        <ele>190</ele>
        <time>2020-10-31T08:58:24Z</time>
      </trkpt>
      <trkpt lat="46.77695" lon="-0.73885">
        <ele>189.8</ele>
        <time>2020-10-31T08:58:25Z</time>
      </trkpt>
      <trkpt lat="46.77692" lon="-0.73878">
        <ele>189.7</ele>
        <time>2020-10-31T08:58:26Z</time>
      </trkpt>
      <trkpt lat="46.77683" lon="-0.73844">
        <ele>188.7</ele>
        <time>2020-10-31T08:58:30Z</time>
      </trkpt>
      <trkpt lat="46.7767" lon="-0.73791">
        <ele>187.7</ele>
        <time>2020-10-31T08:58:36Z</time>
      </trkpt>
      <trkpt lat="46.77654" lon="-0.73745">
        <ele>186.6</ele>
        <time>2020-10-31T08:58:42Z</time>
      </trkpt>
      <trkpt lat="46.77638" lon="-0.73691">
        <ele>184.6</ele>
        <time>2020-10-31T08:58:48Z</time>
      </trkpt>
      <trkpt lat="46.7762" lon="-0.73615">
        <ele>182.3</ele>
        <time>2020-10-31T08:58:55Z</time>
      </trkpt>
      <trkpt lat="46.77615" lon="-0.73595">
        <ele>182.2</ele>
        <time>2020-10-31T08:58:57Z</time>
      </trkpt>
      <trkpt lat="46.77611" lon="-0.73588">
        <ele>182.3</ele>
        <time>2020-10-31T08:58:58Z</time>
      </trkpt>
      <trkpt lat="46.77605" lon="-0.73584">
        <ele>182.4</ele>
        <time>2020-10-31T08:58:59Z</time>
      </trkpt>
      <trkpt lat="46.77599" lon="-0.73582">
        <ele>182.4</ele>
        <time>2020-10-31T08:59:00Z</time>
      </trkpt>
      <trkpt lat="46.77593" lon="-0.7358">
        <ele>182.5</ele>
        <time>2020-10-31T08:59:01Z</time>
      </trkpt>
      <trkpt lat="46.77586" lon="-0.73566">
        <ele>181.6</ele>
        <time>2020-10-31T08:59:03Z</time>
      </trkpt>
      <trkpt lat="46.77586" lon="-0.73523">
        <ele>179.6</ele>
        <time>2020-10-31T08:59:07Z</time>
      </trkpt>
      <trkpt lat="46.7759" lon="-0.73443">
        <ele>178.2</ele>
        <time>2020-10-31T08:59:14Z</time>
      </trkpt>
      <trkpt lat="46.77591" lon="-0.7342">
        <ele>177.8</ele>
        <time>2020-10-31T08:59:16Z</time>
      </trkpt>
      <trkpt lat="46.77596" lon="-0.73362">
        <ele>177.2</ele>
        <time>2020-10-31T08:59:21Z</time>
      </trkpt>
      <trkpt lat="46.77601" lon="-0.73284">
        <ele>176.4</ele>
        <time>2020-10-31T08:59:28Z</time>
      </trkpt>
      <trkpt lat="46.77595" lon="-0.73241">
        <ele>175.8</ele>
        <time>2020-10-31T08:59:32Z</time>
      </trkpt>
      <trkpt lat="46.77583" lon="-0.73192">
        <ele>175.6</ele>
        <time>2020-10-31T08:59:37Z</time>
      </trkpt>
      <trkpt lat="46.77579" lon="-0.73172">
        <ele>175.4</ele>
        <time>2020-10-31T08:59:39Z</time>
      </trkpt>
      <trkpt lat="46.77569" lon="-0.73134">
        <ele>174.6</ele>
        <time>2020-10-31T08:59:43Z</time>
      </trkpt>
      <trkpt lat="46.77566" lon="-0.73126">
        <ele>174.4</ele>
        <time>2020-10-31T08:59:44Z</time>
      </trkpt>
      <trkpt lat="46.77563" lon="-0.73117">
        <ele>174.2</ele>
        <time>2020-10-31T08:59:45Z</time>
      </trkpt>
      <trkpt lat="46.77563" lon="-0.73098">
        <ele>173.8</ele>
        <time>2020-10-31T08:59:47Z</time>
      </trkpt>
      <trkpt lat="46.77575" lon="-0.73062">
        <ele>173.2</ele>
        <time>2020-10-31T08:59:51Z</time>
      </trkpt>
      <trkpt lat="46.7758" lon="-0.73043">
        <ele>172.8</ele>
        <time>2020-10-31T08:59:53Z</time>
      </trkpt>
      <trkpt lat="46.7758" lon="-0.73022">
        <ele>172.4</ele>
        <time>2020-10-31T08:59:55Z</time>
      </trkpt>
      <trkpt lat="46.77576" lon="-0.73002">
        <ele>172.1</ele>
        <time>2020-10-31T08:59:57Z</time>
      </trkpt>
      <trkpt lat="46.77569" lon="-0.72973">
        <ele>171.6</ele>
        <time>2020-10-31T09:00:00Z</time>
      </trkpt>
      <trkpt lat="46.77556" lon="-0.72907">
        <ele>171.1</ele>
        <time>2020-10-31T09:00:07Z</time>
      </trkpt>
      <trkpt lat="46.77543" lon="-0.72862">
        <ele>170.8</ele>
        <time>2020-10-31T09:00:12Z</time>
      </trkpt>
      <trkpt lat="46.77539" lon="-0.72855">
        <ele>170.7</ele>
        <time>2020-10-31T09:00:13Z</time>
      </trkpt>
      <trkpt lat="46.77534" lon="-0.72849">
        <ele>170.5</ele>
        <time>2020-10-31T09:00:14Z</time>
      </trkpt>
      <trkpt lat="46.77514" lon="-0.72827">
        <ele>170.2</ele>
        <time>2020-10-31T09:00:18Z</time>
      </trkpt>
      <trkpt lat="46.77484" lon="-0.72797">
        <ele>169.8</ele>
        <time>2020-10-31T09:00:24Z</time>
      </trkpt>
      <trkpt lat="46.7748" lon="-0.72792">
        <ele>169.7</ele>
        <time>2020-10-31T09:00:25Z</time>
      </trkpt>
      <trkpt lat="46.77476" lon="-0.72785">
        <ele>169.6</ele>
        <time>2020-10-31T09:00:26Z</time>
      </trkpt>
      <trkpt lat="46.77471" lon="-0.7277">
        <ele>169.2</ele>
        <time>2020-10-31T09:00:28Z</time>
      </trkpt>
      <trkpt lat="46.7747" lon="-0.72761">
        <ele>169</ele>
        <time>2020-10-31T09:00:29Z</time>
      </trkpt>
      <trkpt lat="46.7747" lon="-0.72753">
        <ele>168.8</ele>
        <time>2020-10-31T09:00:30Z</time>
      </trkpt>
      <trkpt lat="46.77473" lon="-0.72708">
        <ele>167.3</ele>
        <time>2020-10-31T09:00:35Z</time>
      </trkpt>
      <trkpt lat="46.77478" lon="-0.72641">
        <ele>165.6</ele>
        <time>2020-10-31T09:00:42Z</time>
      </trkpt>
      <trkpt lat="46.77479" lon="-0.72625">
        <ele>165.5</ele>
        <time>2020-10-31T09:00:44Z</time>
      </trkpt>
      <trkpt lat="46.77477" lon="-0.72618">
        <ele>165.5</ele>
        <time>2020-10-31T09:00:45Z</time>
      </trkpt>
      <trkpt lat="46.77475" lon="-0.72612">
        <ele>165.5</ele>
        <time>2020-10-31T09:00:46Z</time>
      </trkpt>
      <trkpt lat="46.77466" lon="-0.72597">
        <ele>165.6</ele>
        <time>2020-10-31T09:00:49Z</time>
      </trkpt>
      <trkpt lat="46.77459" lon="-0.72581">
        <ele>166.2</ele>
        <time>2020-10-31T09:00:53Z</time>
      </trkpt>
      <trkpt lat="46.77451" lon="-0.72552">
        <ele>167.7</ele>
        <time>2020-10-31T09:00:59Z</time>
      </trkpt>
      <trkpt lat="46.77441" lon="-0.72525">
        <ele>169.8</ele>
        <time>2020-10-31T09:01:05Z</time>
      </trkpt>
      <trkpt lat="46.77426" lon="-0.72486">
        <ele>173.3</ele>
        <time>2020-10-31T09:01:14Z</time>
      </trkpt>
      <trkpt lat="46.77416" lon="-0.72455">
        <ele>175.7</ele>
        <time>2020-10-31T09:01:21Z</time>
      </trkpt>
      <trkpt lat="46.77408" lon="-0.72426">
        <ele>177</ele>
        <time>2020-10-31T09:01:27Z</time>
      </trkpt>
      <trkpt lat="46.774" lon="-0.72392">
        <ele>177.5</ele>
        <time>2020-10-31T09:01:34Z</time>
      </trkpt>
      <trkpt lat="46.77399" lon="-0.72386">
        <ele>177.5</ele>
        <time>2020-10-31T09:01:35Z</time>
      </trkpt>
      <trkpt lat="46.77397" lon="-0.72374">
        <ele>177.4</ele>
        <time>2020-10-31T09:01:37Z</time>
      </trkpt>
      <trkpt lat="46.77395" lon="-0.72368">
        <ele>177.3</ele>
        <time>2020-10-31T09:01:38Z</time>
      </trkpt>
      <trkpt lat="46.77382" lon="-0.72321">
        <ele>175.9</ele>
        <time>2020-10-31T09:01:45Z</time>
      </trkpt>
      <trkpt lat="46.7737" lon="-0.72285">
        <ele>175.1</ele>
        <time>2020-10-31T09:01:50Z</time>
      </trkpt>
      <trkpt lat="46.77367" lon="-0.72279">
        <ele>175</ele>
        <time>2020-10-31T09:01:51Z</time>
      </trkpt>
      <trkpt lat="46.77356" lon="-0.72258">
        <ele>174.7</ele>
        <time>2020-10-31T09:01:55Z</time>
      </trkpt>
      <trkpt lat="46.7735" lon="-0.72246">
        <ele>174.5</ele>
        <time>2020-10-31T09:01:57Z</time>
      </trkpt>
      <trkpt lat="46.77351" lon="-0.72234">
        <ele>174.4</ele>
        <time>2020-10-31T09:01:59Z</time>
      </trkpt>
      <trkpt lat="46.77353" lon="-0.72229">
        <ele>174.4</ele>
        <time>2020-10-31T09:02:00Z</time>
      </trkpt>
      <trkpt lat="46.77361" lon="-0.7222">
        <ele>174.3</ele>
        <time>2020-10-31T09:02:02Z</time>
      </trkpt>
      <trkpt lat="46.77369" lon="-0.7221">
        <ele>174.3</ele>
        <time>2020-10-31T09:02:04Z</time>
      </trkpt>
      <trkpt lat="46.77383" lon="-0.72194">
        <ele>174.3</ele>
        <time>2020-10-31T09:02:07Z</time>
      </trkpt>
      <trkpt lat="46.7739" lon="-0.7218">
        <ele>174.3</ele>
        <time>2020-10-31T09:02:09Z</time>
      </trkpt>
      <trkpt lat="46.77392" lon="-0.72172">
        <ele>174.3</ele>
        <time>2020-10-31T09:02:10Z</time>
      </trkpt>
      <trkpt lat="46.77392" lon="-0.72165">
        <ele>174.3</ele>
        <time>2020-10-31T09:02:11Z</time>
      </trkpt>
      <trkpt lat="46.77388" lon="-0.72154">
        <ele>174.3</ele>
        <time>2020-10-31T09:02:13Z</time>
      </trkpt>
      <trkpt lat="46.77374" lon="-0.7213">
        <ele>174.2</ele>
        <time>2020-10-31T09:02:18Z</time>
      </trkpt>
      <trkpt lat="46.77372" lon="-0.72124">
        <ele>174.2</ele>
        <time>2020-10-31T09:02:19Z</time>
      </trkpt>
      <trkpt lat="46.77368" lon="-0.72101">
        <ele>174.2</ele>
        <time>2020-10-31T09:02:23Z</time>
      </trkpt>
      <trkpt lat="46.77369" lon="-0.7209">
        <ele>174.2</ele>
        <time>2020-10-31T09:02:25Z</time>
      </trkpt>
      <trkpt lat="46.7737" lon="-0.72079">
        <ele>174.2</ele>
        <time>2020-10-31T09:02:27Z</time>
      </trkpt>
      <trkpt lat="46.77371" lon="-0.72062">
        <ele>174.2</ele>
        <time>2020-10-31T09:02:30Z</time>
      </trkpt>
      <trkpt lat="46.77373" lon="-0.7204">
        <ele>174.1</ele>
        <time>2020-10-31T09:02:34Z</time>
      </trkpt>
      <trkpt lat="46.77374" lon="-0.72035">
        <ele>174.1</ele>
        <time>2020-10-31T09:02:35Z</time>
      </trkpt>
      <trkpt lat="46.77377" lon="-0.72025">
        <ele>174.1</ele>
        <time>2020-10-31T09:02:37Z</time>
      </trkpt>
      <trkpt lat="46.77381" lon="-0.72016">
        <ele>174.1</ele>
        <time>2020-10-31T09:02:39Z</time>
      </trkpt>
      <trkpt lat="46.77391" lon="-0.71993">
        <ele>174.1</ele>
        <time>2020-10-31T09:02:43Z</time>
      </trkpt>
      <trkpt lat="46.77393" lon="-0.71987">
        <ele>174.1</ele>
        <time>2020-10-31T09:02:44Z</time>
      </trkpt>
      <trkpt lat="46.77403" lon="-0.71962">
        <ele>174</ele>
        <time>2020-10-31T09:02:49Z</time>
      </trkpt>
      <trkpt lat="46.77415" lon="-0.7194">
        <ele>174</ele>
        <time>2020-10-31T09:02:54Z</time>
      </trkpt>
      <trkpt lat="46.7742" lon="-0.71928">
        <ele>174</ele>
        <time>2020-10-31T09:02:57Z</time>
      </trkpt>
      <trkpt lat="46.77423" lon="-0.71926">
        <ele>174.7</ele>
        <time>2020-10-31T09:02:58Z</time>
      </trkpt>
      <trkpt lat="46.77431" lon="-0.71921">
        <ele>175.5</ele>
        <time>2020-10-31T09:03:02Z</time>
      </trkpt>
      <trkpt lat="46.77436" lon="-0.71913">
        <ele>176.2</ele>
        <time>2020-10-31T09:03:05Z</time>
      </trkpt>
      <trkpt lat="46.77443" lon="-0.71899">
        <ele>176.9</ele>
        <time>2020-10-31T09:03:09Z</time>
      </trkpt>
      <trkpt lat="46.77453" lon="-0.7188">
        <ele>177.9</ele>
        <time>2020-10-31T09:03:13Z</time>
      </trkpt>
      <trkpt lat="46.7747" lon="-0.71851">
        <ele>179.4</ele>
        <time>2020-10-31T09:03:19Z</time>
      </trkpt>
      <trkpt lat="46.77478" lon="-0.71832">
        <ele>180.5</ele>
        <time>2020-10-31T09:03:23Z</time>
      </trkpt>
      <trkpt lat="46.77485" lon="-0.71814">
        <ele>179.7</ele>
        <time>2020-10-31T09:03:26Z</time>
      </trkpt>
      <trkpt lat="46.77504" lon="-0.71766">
        <ele>177.7</ele>
        <time>2020-10-31T09:03:33Z</time>
      </trkpt>
      <trkpt lat="46.77507" lon="-0.71759">
        <ele>177.4</ele>
        <time>2020-10-31T09:03:34Z</time>
      </trkpt>
      <trkpt lat="46.77511" lon="-0.71736">
        <ele>176.6</ele>
        <time>2020-10-31T09:03:37Z</time>
      </trkpt>
      <trkpt lat="46.77517" lon="-0.71729">
        <ele>176.4</ele>
        <time>2020-10-31T09:03:39Z</time>
      </trkpt>
      <trkpt lat="46.7752" lon="-0.71729">
        <ele>176.7</ele>
        <time>2020-10-31T09:03:40Z</time>
      </trkpt>
      <trkpt lat="46.77535" lon="-0.71737">
        <ele>177.8</ele>
        <time>2020-10-31T09:03:44Z</time>
      </trkpt>
      <trkpt lat="46.77554" lon="-0.71743">
        <ele>179.3</ele>
        <time>2020-10-31T09:03:49Z</time>
      </trkpt>
      <trkpt lat="46.77569" lon="-0.71744">
        <ele>180.7</ele>
        <time>2020-10-31T09:03:54Z</time>
      </trkpt>
      <trkpt lat="46.77588" lon="-0.7174">
        <ele>181.6</ele>
        <time>2020-10-31T09:04:01Z</time>
      </trkpt>
      <trkpt lat="46.77602" lon="-0.71739">
        <ele>181.9</ele>
        <time>2020-10-31T09:04:05Z</time>
      </trkpt>
      <trkpt lat="46.77619" lon="-0.71738">
        <ele>182.1</ele>
        <time>2020-10-31T09:04:10Z</time>
      </trkpt>
      <trkpt lat="46.77629" lon="-0.71738">
        <ele>182.4</ele>
        <time>2020-10-31T09:04:13Z</time>
      </trkpt>
      <trkpt lat="46.77632" lon="-0.71735">
        <ele>182.8</ele>
        <time>2020-10-31T09:04:14Z</time>
      </trkpt>
      <trkpt lat="46.77638" lon="-0.71727">
        <ele>183.6</ele>
        <time>2020-10-31T09:04:17Z</time>
      </trkpt>
      <trkpt lat="46.7765" lon="-0.71716">
        <ele>184.7</ele>
        <time>2020-10-31T09:04:22Z</time>
      </trkpt>
      <trkpt lat="46.77661" lon="-0.71706">
        <ele>185.2</ele>
        <time>2020-10-31T09:04:26Z</time>
      </trkpt>
      <trkpt lat="46.77673" lon="-0.71695">
        <ele>185.6</ele>
        <time>2020-10-31T09:04:30Z</time>
      </trkpt>
      <trkpt lat="46.77688" lon="-0.71678">
        <ele>186.9</ele>
        <time>2020-10-31T09:04:35Z</time>
      </trkpt>
      <trkpt lat="46.777" lon="-0.71665">
        <ele>188.7</ele>
        <time>2020-10-31T09:04:39Z</time>
      </trkpt>
      <trkpt lat="46.77716" lon="-0.71648">
        <ele>191.3</ele>
        <time>2020-10-31T09:04:43Z</time>
      </trkpt>
      <trkpt lat="46.77732" lon="-0.7163">
        <ele>194.2</ele>
        <time>2020-10-31T09:04:47Z</time>
      </trkpt>
      <trkpt lat="46.77736" lon="-0.71625">
        <ele>195.4</ele>
        <time>2020-10-31T09:04:48Z</time>
      </trkpt>
      <trkpt lat="46.77745" lon="-0.71614">
        <ele>196.4</ele>
        <time>2020-10-31T09:04:51Z</time>
      </trkpt>
      <trkpt lat="46.77758" lon="-0.71597">
        <ele>196.4</ele>
        <time>2020-10-31T09:04:56Z</time>
      </trkpt>
      <trkpt lat="46.77774" lon="-0.71587">
        <ele>195.5</ele>
        <time>2020-10-31T09:05:01Z</time>
      </trkpt>
      <trkpt lat="46.77795" lon="-0.71578">
        <ele>193.9</ele>
        <time>2020-10-31T09:05:06Z</time>
      </trkpt>
      <trkpt lat="46.77812" lon="-0.71566">
        <ele>192.2</ele>
        <time>2020-10-31T09:05:11Z</time>
      </trkpt>
      <trkpt lat="46.77835" lon="-0.71548">
        <ele>191.2</ele>
        <time>2020-10-31T09:05:17Z</time>
      </trkpt>
      <trkpt lat="46.77856" lon="-0.71526">
        <ele>191.8</ele>
        <time>2020-10-31T09:05:23Z</time>
      </trkpt>
      <trkpt lat="46.7787" lon="-0.71505">
        <ele>192.2</ele>
        <time>2020-10-31T09:05:28Z</time>
      </trkpt>
      <trkpt lat="46.77882" lon="-0.71487">
        <ele>191.7</ele>
        <time>2020-10-31T09:05:32Z</time>
      </trkpt>
      <trkpt lat="46.77893" lon="-0.71471">
        <ele>191.1</ele>
        <time>2020-10-31T09:05:35Z</time>
      </trkpt>
      <trkpt lat="46.77908" lon="-0.71453">
        <ele>190.2</ele>
        <time>2020-10-31T09:05:38Z</time>
      </trkpt>
      <trkpt lat="46.77913" lon="-0.71447">
        <ele>189.9</ele>
        <time>2020-10-31T09:05:39Z</time>
      </trkpt>
      <trkpt lat="46.7794" lon="-0.71413">
        <ele>189.2</ele>
        <time>2020-10-31T09:05:44Z</time>
      </trkpt>
      <trkpt lat="46.77958" lon="-0.71388">
        <ele>188.3</ele>
        <time>2020-10-31T09:05:48Z</time>
      </trkpt>
      <trkpt lat="46.77963" lon="-0.71383">
        <ele>188.2</ele>
        <time>2020-10-31T09:05:49Z</time>
      </trkpt>
      <trkpt lat="46.77975" lon="-0.71374">
        <ele>187.1</ele>
        <time>2020-10-31T09:05:51Z</time>
      </trkpt>
      <trkpt lat="46.77998" lon="-0.71361">
        <ele>184.9</ele>
        <time>2020-10-31T09:05:55Z</time>
      </trkpt>
      <trkpt lat="46.78012" lon="-0.71357">
        <ele>184.1</ele>
        <time>2020-10-31T09:05:57Z</time>
      </trkpt>
      <trkpt lat="46.78025" lon="-0.71352">
        <ele>183.7</ele>
        <time>2020-10-31T09:05:59Z</time>
      </trkpt>
      <trkpt lat="46.78066" lon="-0.71336">
        <ele>182.8</ele>
        <time>2020-10-31T09:06:05Z</time>
      </trkpt>
      <trkpt lat="46.781" lon="-0.71325">
        <ele>182.1</ele>
        <time>2020-10-31T09:06:10Z</time>
      </trkpt>
      <trkpt lat="46.78132" lon="-0.71315">
        <ele>181.9</ele>
        <time>2020-10-31T09:06:15Z</time>
      </trkpt>
      <trkpt lat="46.78163" lon="-0.71308">
        <ele>181.6</ele>
        <time>2020-10-31T09:06:20Z</time>
      </trkpt>
      <trkpt lat="46.78198" lon="-0.71298">
        <ele>181.9</ele>
        <time>2020-10-31T09:06:26Z</time>
      </trkpt>
      <trkpt lat="46.78214" lon="-0.71294">
        <ele>182</ele>
        <time>2020-10-31T09:06:30Z</time>
      </trkpt>
      <trkpt lat="46.78218" lon="-0.71294">
        <ele>182</ele>
        <time>2020-10-31T09:06:31Z</time>
      </trkpt>
      <trkpt lat="46.78238" lon="-0.71293">
        <ele>182</ele>
        <time>2020-10-31T09:06:35Z</time>
      </trkpt>
      <trkpt lat="46.78249" lon="-0.71284">
        <ele>182</ele>
        <time>2020-10-31T09:06:38Z</time>
      </trkpt>
      <trkpt lat="46.78277" lon="-0.71255">
        <ele>181</ele>
        <time>2020-10-31T09:06:44Z</time>
      </trkpt>
      <trkpt lat="46.78287" lon="-0.71247">
        <ele>180.8</ele>
        <time>2020-10-31T09:06:46Z</time>
      </trkpt>
      <trkpt lat="46.78294" lon="-0.71234">
        <ele>180.8</ele>
        <time>2020-10-31T09:06:48Z</time>
      </trkpt>
      <trkpt lat="46.78293" lon="-0.71217">
        <ele>180.6</ele>
        <time>2020-10-31T09:06:50Z</time>
      </trkpt>
      <trkpt lat="46.7829" lon="-0.7121">
        <ele>180.6</ele>
        <time>2020-10-31T09:06:51Z</time>
      </trkpt>
      <trkpt lat="46.78272" lon="-0.71151">
        <ele>179.9</ele>
        <time>2020-10-31T09:06:58Z</time>
      </trkpt>
      <trkpt lat="46.78257" lon="-0.71109">
        <ele>179.6</ele>
        <time>2020-10-31T09:07:03Z</time>
      </trkpt>
      <trkpt lat="46.78234" lon="-0.71053">
        <ele>179.4</ele>
        <time>2020-10-31T09:07:10Z</time>
      </trkpt>
      <trkpt lat="46.78215" lon="-0.71007">
        <ele>179.3</ele>
        <time>2020-10-31T09:07:16Z</time>
      </trkpt>
      <trkpt lat="46.78193" lon="-0.70957">
        <ele>179.8</ele>
        <time>2020-10-31T09:07:23Z</time>
      </trkpt>
      <trkpt lat="46.78182" lon="-0.70932">
        <ele>180.2</ele>
        <time>2020-10-31T09:07:27Z</time>
      </trkpt>
      <trkpt lat="46.78177" lon="-0.70919">
        <ele>180.5</ele>
        <time>2020-10-31T09:07:29Z</time>
      </trkpt>
      <trkpt lat="46.78168" lon="-0.70893">
        <ele>180.9</ele>
        <time>2020-10-31T09:07:33Z</time>
      </trkpt>
      <trkpt lat="46.78164" lon="-0.70879">
        <ele>181.1</ele>
        <time>2020-10-31T09:07:35Z</time>
      </trkpt>
      <trkpt lat="46.78159" lon="-0.70842">
        <ele>181.4</ele>
        <time>2020-10-31T09:07:40Z</time>
      </trkpt>
      <trkpt lat="46.78159" lon="-0.70835">
        <ele>181.5</ele>
        <time>2020-10-31T09:07:41Z</time>
      </trkpt>
      <trkpt lat="46.78159" lon="-0.70827">
        <ele>181.6</ele>
        <time>2020-10-31T09:07:42Z</time>
      </trkpt>
      <trkpt lat="46.78161" lon="-0.70791">
        <ele>182.1</ele>
        <time>2020-10-31T09:07:47Z</time>
      </trkpt>
      <trkpt lat="46.78165" lon="-0.7077">
        <ele>182.4</ele>
        <time>2020-10-31T09:07:50Z</time>
      </trkpt>
      <trkpt lat="46.78169" lon="-0.70757">
        <ele>182.6</ele>
        <time>2020-10-31T09:07:52Z</time>
      </trkpt>
      <trkpt lat="46.78184" lon="-0.70718">
        <ele>183.2</ele>
        <time>2020-10-31T09:07:58Z</time>
      </trkpt>
      <trkpt lat="46.78186" lon="-0.70712">
        <ele>183.3</ele>
        <time>2020-10-31T09:07:59Z</time>
      </trkpt>
      <trkpt lat="46.78199" lon="-0.70681">
        <ele>183.7</ele>
        <time>2020-10-31T09:08:04Z</time>
      </trkpt>
      <trkpt lat="46.78211" lon="-0.7065">
        <ele>184.1</ele>
        <time>2020-10-31T09:08:09Z</time>
      </trkpt>
      <trkpt lat="46.78222" lon="-0.70626">
        <ele>184.6</ele>
        <time>2020-10-31T09:08:13Z</time>
      </trkpt>
      <trkpt lat="46.78228" lon="-0.70613">
        <ele>184.9</ele>
        <time>2020-10-31T09:08:15Z</time>
      </trkpt>
      <trkpt lat="46.78249" lon="-0.70561">
        <ele>186.2</ele>
        <time>2020-10-31T09:08:23Z</time>
      </trkpt>
      <trkpt lat="46.7825" lon="-0.70554">
        <ele>186.5</ele>
        <time>2020-10-31T09:08:24Z</time>
      </trkpt>
      <trkpt lat="46.78252" lon="-0.70535">
        <ele>187.2</ele>
        <time>2020-10-31T09:08:27Z</time>
      </trkpt>
      <trkpt lat="46.78252" lon="-0.70529">
        <ele>187.4</ele>
        <time>2020-10-31T09:08:28Z</time>
      </trkpt>
      <trkpt lat="46.78252" lon="-0.70523">
        <ele>187.6</ele>
        <time>2020-10-31T09:08:29Z</time>
      </trkpt>
      <trkpt lat="46.78248" lon="-0.705">
        <ele>188.7</ele>
        <time>2020-10-31T09:08:33Z</time>
      </trkpt>
      <trkpt lat="46.78246" lon="-0.70494">
        <ele>188.9</ele>
        <time>2020-10-31T09:08:34Z</time>
      </trkpt>
      <trkpt lat="46.7824" lon="-0.70466">
        <ele>190.4</ele>
        <time>2020-10-31T09:08:40Z</time>
      </trkpt>
      <trkpt lat="46.78233" lon="-0.70435">
        <ele>192.1</ele>
        <time>2020-10-31T09:08:46Z</time>
      </trkpt>
      <trkpt lat="46.78228" lon="-0.70419">
        <ele>193</ele>
        <time>2020-10-31T09:08:49Z</time>
      </trkpt>
      <trkpt lat="46.78225" lon="-0.70407">
        <ele>193.5</ele>
        <time>2020-10-31T09:08:51Z</time>
      </trkpt>
      <trkpt lat="46.78217" lon="-0.7037">
        <ele>195.4</ele>
        <time>2020-10-31T09:08:58Z</time>
      </trkpt>
      <trkpt lat="46.78213" lon="-0.70337">
        <ele>196.9</ele>
        <time>2020-10-31T09:09:04Z</time>
      </trkpt>
      <trkpt lat="46.78215" lon="-0.70332">
        <ele>197.1</ele>
        <time>2020-10-31T09:09:05Z</time>
      </trkpt>
      <trkpt lat="46.78223" lon="-0.70327">
        <ele>197.3</ele>
        <time>2020-10-31T09:09:07Z</time>
      </trkpt>
      <trkpt lat="46.78257" lon="-0.70318">
        <ele>198.2</ele>
        <time>2020-10-31T09:09:15Z</time>
      </trkpt>
      <trkpt lat="46.78286" lon="-0.70302">
        <ele>198.9</ele>
        <time>2020-10-31T09:09:22Z</time>
      </trkpt>
      <trkpt lat="46.78312" lon="-0.70279">
        <ele>198.9</ele>
        <time>2020-10-31T09:09:29Z</time>
      </trkpt>
      <trkpt lat="46.78339" lon="-0.70254">
        <ele>198.3</ele>
        <time>2020-10-31T09:09:35Z</time>
      </trkpt>
      <trkpt lat="46.78364" lon="-0.70232">
        <ele>197.3</ele>
        <time>2020-10-31T09:09:40Z</time>
      </trkpt>
      <trkpt lat="46.78398" lon="-0.70205">
        <ele>195.9</ele>
        <time>2020-10-31T09:09:46Z</time>
      </trkpt>
      <trkpt lat="46.78429" lon="-0.70193">
        <ele>195.5</ele>
        <time>2020-10-31T09:09:51Z</time>
      </trkpt>
      <trkpt lat="46.78442" lon="-0.7019">
        <ele>195.3</ele>
        <time>2020-10-31T09:09:53Z</time>
      </trkpt>
      <trkpt lat="46.78473" lon="-0.70188">
        <ele>194.9</ele>
        <time>2020-10-31T09:09:58Z</time>
      </trkpt>
      <trkpt lat="46.78503" lon="-0.70192">
        <ele>195.5</ele>
        <time>2020-10-31T09:10:03Z</time>
      </trkpt>
      <trkpt lat="46.78509" lon="-0.70193">
        <ele>195.6</ele>
        <time>2020-10-31T09:10:04Z</time>
      </trkpt>
      <trkpt lat="46.78548" lon="-0.70202">
        <ele>196.6</ele>
        <time>2020-10-31T09:10:11Z</time>
      </trkpt>
      <trkpt lat="46.78579" lon="-0.70211">
        <ele>195.6</ele>
        <time>2020-10-31T09:10:17Z</time>
      </trkpt>
      <trkpt lat="46.78611" lon="-0.70219">
        <ele>193.6</ele>
        <time>2020-10-31T09:10:22Z</time>
      </trkpt>
      <trkpt lat="46.78635" lon="-0.70221">
        <ele>192</ele>
        <time>2020-10-31T09:10:26Z</time>
      </trkpt>
      <trkpt lat="46.78639" lon="-0.70212">
        <ele>191.9</ele>
        <time>2020-10-31T09:10:28Z</time>
      </trkpt>
      <trkpt lat="46.78639" lon="-0.70206">
        <ele>191.9</ele>
        <time>2020-10-31T09:10:29Z</time>
      </trkpt>
      <trkpt lat="46.78635" lon="-0.70193">
        <ele>192.2</ele>
        <time>2020-10-31T09:10:31Z</time>
      </trkpt>
      <trkpt lat="46.7863" lon="-0.70164">
        <ele>193.4</ele>
        <time>2020-10-31T09:10:35Z</time>
      </trkpt>
      <trkpt lat="46.78622" lon="-0.70119">
        <ele>194.7</ele>
        <time>2020-10-31T09:10:40Z</time>
      </trkpt>
      <trkpt lat="46.78613" lon="-0.70069">
        <ele>194.7</ele>
        <time>2020-10-31T09:10:46Z</time>
      </trkpt>
      <trkpt lat="46.7861" lon="-0.70048">
        <ele>195.1</ele>
        <time>2020-10-31T09:10:49Z</time>
      </trkpt>
      <trkpt lat="46.78609" lon="-0.70034">
        <ele>195.1</ele>
        <time>2020-10-31T09:10:51Z</time>
      </trkpt>
      <trkpt lat="46.78606" lon="-0.7002">
        <ele>195</ele>
        <time>2020-10-31T09:10:53Z</time>
      </trkpt>
      <trkpt lat="46.78605" lon="-0.70007">
        <ele>194.7</ele>
        <time>2020-10-31T09:10:55Z</time>
      </trkpt>
      <trkpt lat="46.78601" lon="-0.6997">
        <ele>193.7</ele>
        <time>2020-10-31T09:11:00Z</time>
      </trkpt>
      <trkpt lat="46.78597" lon="-0.69942">
        <ele>192.9</ele>
        <time>2020-10-31T09:11:05Z</time>
      </trkpt>
      <trkpt lat="46.78589" lon="-0.69924">
        <ele>192.2</ele>
        <time>2020-10-31T09:11:09Z</time>
      </trkpt>
      <trkpt lat="46.78576" lon="-0.69902">
        <ele>191.3</ele>
        <time>2020-10-31T09:11:14Z</time>
      </trkpt>
      <trkpt lat="46.7857" lon="-0.6989">
        <ele>191</ele>
        <time>2020-10-31T09:11:16Z</time>
      </trkpt>
      <trkpt lat="46.78561" lon="-0.69879">
        <ele>190.9</ele>
        <time>2020-10-31T09:11:18Z</time>
      </trkpt>
      <trkpt lat="46.78557" lon="-0.69874">
        <ele>190.7</ele>
        <time>2020-10-31T09:11:19Z</time>
      </trkpt>
      <trkpt lat="46.78544" lon="-0.69854">
        <ele>190.1</ele>
        <time>2020-10-31T09:11:22Z</time>
      </trkpt>
      <trkpt lat="46.78535" lon="-0.69828">
        <ele>188.9</ele>
        <time>2020-10-31T09:11:25Z</time>
      </trkpt>
      <trkpt lat="46.7853" lon="-0.69808">
        <ele>187.7</ele>
        <time>2020-10-31T09:11:27Z</time>
      </trkpt>
      <trkpt lat="46.78522" lon="-0.69761">
        <ele>185.4</ele>
        <time>2020-10-31T09:11:32Z</time>
      </trkpt>
      <trkpt lat="46.78519" lon="-0.69752">
        <ele>185</ele>
        <time>2020-10-31T09:11:33Z</time>
      </trkpt>
      <trkpt lat="46.78516" lon="-0.69743">
        <ele>184.5</ele>
        <time>2020-10-31T09:11:34Z</time>
      </trkpt>
      <trkpt lat="46.78503" lon="-0.69714">
        <ele>183.4</ele>
        <time>2020-10-31T09:11:38Z</time>
      </trkpt>
      <trkpt lat="46.78496" lon="-0.69703">
        <ele>183.1</ele>
        <time>2020-10-31T09:11:40Z</time>
      </trkpt>
      <trkpt lat="46.78486" lon="-0.69692">
        <ele>183</ele>
        <time>2020-10-31T09:11:42Z</time>
      </trkpt>
      <trkpt lat="46.78478" lon="-0.6968">
        <ele>182.8</ele>
        <time>2020-10-31T09:11:44Z</time>
      </trkpt>
      <trkpt lat="46.78471" lon="-0.69668">
        <ele>182.7</ele>
        <time>2020-10-31T09:11:46Z</time>
      </trkpt>
      <trkpt lat="46.78462" lon="-0.69662">
        <ele>182.7</ele>
        <time>2020-10-31T09:11:48Z</time>
      </trkpt>
      <trkpt lat="46.78458" lon="-0.69662">
        <ele>182.7</ele>
        <time>2020-10-31T09:11:49Z</time>
      </trkpt>
      <trkpt lat="46.78453" lon="-0.6966">
        <ele>182.7</ele>
        <time>2020-10-31T09:11:50Z</time>
      </trkpt>
      <trkpt lat="46.78436" lon="-0.69649">
        <ele>182.8</ele>
        <time>2020-10-31T09:11:54Z</time>
      </trkpt>
      <trkpt lat="46.78432" lon="-0.69642">
        <ele>182.6</ele>
        <time>2020-10-31T09:11:56Z</time>
      </trkpt>
      <trkpt lat="46.78432" lon="-0.69636">
        <ele>182.5</ele>
        <time>2020-10-31T09:11:57Z</time>
      </trkpt>
      <trkpt lat="46.78438" lon="-0.6959">
        <ele>181.7</ele>
        <time>2020-10-31T09:12:03Z</time>
      </trkpt>
      <trkpt lat="46.78443" lon="-0.6953">
        <ele>181.1</ele>
        <time>2020-10-31T09:12:10Z</time>
      </trkpt>
      <trkpt lat="46.78446" lon="-0.69503">
        <ele>180.8</ele>
        <time>2020-10-31T09:12:13Z</time>
      </trkpt>
      <trkpt lat="46.78449" lon="-0.69495">
        <ele>180.6</ele>
        <time>2020-10-31T09:12:14Z</time>
      </trkpt>
      <trkpt lat="46.78454" lon="-0.69489">
        <ele>180.5</ele>
        <time>2020-10-31T09:12:15Z</time>
      </trkpt>
      <trkpt lat="46.78466" lon="-0.69479">
        <ele>180.4</ele>
        <time>2020-10-31T09:12:17Z</time>
      </trkpt>
      <trkpt lat="46.78514" lon="-0.69439">
        <ele>179.8</ele>
        <time>2020-10-31T09:12:25Z</time>
      </trkpt>
      <trkpt lat="46.78549" lon="-0.69409">
        <ele>179.5</ele>
        <time>2020-10-31T09:12:31Z</time>
      </trkpt>
      <trkpt lat="46.78575" lon="-0.69386">
        <ele>179.2</ele>
        <time>2020-10-31T09:12:35Z</time>
      </trkpt>
      <trkpt lat="46.78608" lon="-0.69355">
        <ele>178.8</ele>
        <time>2020-10-31T09:12:40Z</time>
      </trkpt>
      <trkpt lat="46.7865" lon="-0.69317">
        <ele>178.3</ele>
        <time>2020-10-31T09:12:46Z</time>
      </trkpt>
      <trkpt lat="46.78694" lon="-0.69274">
        <ele>177.8</ele>
        <time>2020-10-31T09:12:53Z</time>
      </trkpt>
      <trkpt lat="46.78722" lon="-0.69251">
        <ele>177.5</ele>
        <time>2020-10-31T09:12:58Z</time>
      </trkpt>
      <trkpt lat="46.78727" lon="-0.69242">
        <ele>177.1</ele>
        <time>2020-10-31T09:13:00Z</time>
      </trkpt>
      <trkpt lat="46.78727" lon="-0.69238">
        <ele>176.9</ele>
        <time>2020-10-31T09:13:01Z</time>
      </trkpt>
      <trkpt lat="46.78729" lon="-0.69209">
        <ele>176.3</ele>
        <time>2020-10-31T09:13:06Z</time>
      </trkpt>
      <trkpt lat="46.78729" lon="-0.69202">
        <ele>176.1</ele>
        <time>2020-10-31T09:13:07Z</time>
      </trkpt>
      <trkpt lat="46.78726" lon="-0.6919">
        <ele>176.1</ele>
        <time>2020-10-31T09:13:09Z</time>
      </trkpt>
      <trkpt lat="46.78724" lon="-0.69184">
        <ele>176.1</ele>
        <time>2020-10-31T09:13:10Z</time>
      </trkpt>
      <trkpt lat="46.78713" lon="-0.6916">
        <ele>176.1</ele>
        <time>2020-10-31T09:13:14Z</time>
      </trkpt>
      <trkpt lat="46.78708" lon="-0.69151">
        <ele>175.8</ele>
        <time>2020-10-31T09:13:16Z</time>
      </trkpt>
      <trkpt lat="46.78704" lon="-0.69141">
        <ele>175.6</ele>
        <time>2020-10-31T09:13:19Z</time>
      </trkpt>
      <trkpt lat="46.78704" lon="-0.69138">
        <ele>175.3</ele>
        <time>2020-10-31T09:13:20Z</time>
      </trkpt>
      <trkpt lat="46.78697" lon="-0.69118">
        <ele>174.8</ele>
        <time>2020-10-31T09:13:24Z</time>
      </trkpt>
      <trkpt lat="46.78693" lon="-0.69098">
        <ele>174.4</ele>
        <time>2020-10-31T09:13:27Z</time>
      </trkpt>
      <trkpt lat="46.78689" lon="-0.69086">
        <ele>174.2</ele>
        <time>2020-10-31T09:13:29Z</time>
      </trkpt>
      <trkpt lat="46.78679" lon="-0.69064">
        <ele>173.9</ele>
        <time>2020-10-31T09:13:34Z</time>
      </trkpt>
      <trkpt lat="46.78667" lon="-0.69047">
        <ele>174.1</ele>
        <time>2020-10-31T09:13:38Z</time>
      </trkpt>
      <trkpt lat="46.78659" lon="-0.69033">
        <ele>174.3</ele>
        <time>2020-10-31T09:13:41Z</time>
      </trkpt>
      <trkpt lat="46.78656" lon="-0.69029">
        <ele>174.2</ele>
        <time>2020-10-31T09:13:42Z</time>
      </trkpt>
      <trkpt lat="46.78653" lon="-0.69023">
        <ele>174.1</ele>
        <time>2020-10-31T09:13:43Z</time>
      </trkpt>
      <trkpt lat="46.78643" lon="-0.69006">
        <ele>173.9</ele>
        <time>2020-10-31T09:13:46Z</time>
      </trkpt>
      <trkpt lat="46.78636" lon="-0.68994">
        <ele>173.6</ele>
        <time>2020-10-31T09:13:48Z</time>
      </trkpt>
      <trkpt lat="46.78629" lon="-0.68984">
        <ele>173.3</ele>
        <time>2020-10-31T09:13:50Z</time>
      </trkpt>
      <trkpt lat="46.78626" lon="-0.68978">
        <ele>172.9</ele>
        <time>2020-10-31T09:13:51Z</time>
      </trkpt>
      <trkpt lat="46.78617" lon="-0.68958">
        <ele>172.1</ele>
        <time>2020-10-31T09:13:54Z</time>
      </trkpt>
      <trkpt lat="46.7861" lon="-0.68945">
        <ele>171.4</ele>
        <time>2020-10-31T09:13:56Z</time>
      </trkpt>
      <trkpt lat="46.78597" lon="-0.68927">
        <ele>170.5</ele>
        <time>2020-10-31T09:13:59Z</time>
      </trkpt>
      <trkpt lat="46.78592" lon="-0.68921">
        <ele>170.1</ele>
        <time>2020-10-31T09:14:00Z</time>
      </trkpt>
      <trkpt lat="46.78578" lon="-0.68903">
        <ele>169.4</ele>
        <time>2020-10-31T09:14:03Z</time>
      </trkpt>
      <trkpt lat="46.78575" lon="-0.68896">
        <ele>169</ele>
        <time>2020-10-31T09:14:04Z</time>
      </trkpt>
      <trkpt lat="46.78573" lon="-0.6889">
        <ele>168.8</ele>
        <time>2020-10-31T09:14:05Z</time>
      </trkpt>
      <trkpt lat="46.78573" lon="-0.68876">
        <ele>168.4</ele>
        <time>2020-10-31T09:14:07Z</time>
      </trkpt>
      <trkpt lat="46.78572" lon="-0.68848">
        <ele>167.9</ele>
        <time>2020-10-31T09:14:11Z</time>
      </trkpt>
      <trkpt lat="46.78568" lon="-0.6882">
        <ele>167.1</ele>
        <time>2020-10-31T09:14:16Z</time>
      </trkpt>
      <trkpt lat="46.78558" lon="-0.68799">
        <ele>166</ele>
        <time>2020-10-31T09:14:20Z</time>
      </trkpt>
      <trkpt lat="46.78539" lon="-0.68761">
        <ele>164.3</ele>
        <time>2020-10-31T09:14:25Z</time>
      </trkpt>
      <trkpt lat="46.78527" lon="-0.68745">
        <ele>163.6</ele>
        <time>2020-10-31T09:14:27Z</time>
      </trkpt>
      <trkpt lat="46.78513" lon="-0.68731">
        <ele>163.1</ele>
        <time>2020-10-31T09:14:29Z</time>
      </trkpt>
      <trkpt lat="46.78499" lon="-0.68719">
        <ele>162.5</ele>
        <time>2020-10-31T09:14:31Z</time>
      </trkpt>
      <trkpt lat="46.78492" lon="-0.68717">
        <ele>162.3</ele>
        <time>2020-10-31T09:14:32Z</time>
      </trkpt>
      <trkpt lat="46.78484" lon="-0.68716">
        <ele>162.1</ele>
        <time>2020-10-31T09:14:33Z</time>
      </trkpt>
      <trkpt lat="46.78459" lon="-0.68719">
        <ele>162.1</ele>
        <time>2020-10-31T09:14:36Z</time>
      </trkpt>
      <trkpt lat="46.78447" lon="-0.68711">
        <ele>161.8</ele>
        <time>2020-10-31T09:14:38Z</time>
      </trkpt>
      <trkpt lat="46.78442" lon="-0.68692">
        <ele>162</ele>
        <time>2020-10-31T09:14:40Z</time>
      </trkpt>
      <trkpt lat="46.78438" lon="-0.6864">
        <ele>162.7</ele>
        <time>2020-10-31T09:14:44Z</time>
      </trkpt>
      <trkpt lat="46.78432" lon="-0.68579">
        <ele>163.4</ele>
        <time>2020-10-31T09:14:49Z</time>
      </trkpt>
      <trkpt lat="46.7842" lon="-0.68512">
        <ele>162</ele>
        <time>2020-10-31T09:14:55Z</time>
      </trkpt>
      <trkpt lat="46.78406" lon="-0.68433">
        <ele>159.8</ele>
        <time>2020-10-31T09:15:02Z</time>
      </trkpt>
      <trkpt lat="46.78395" lon="-0.68355">
        <ele>157.9</ele>
        <time>2020-10-31T09:15:09Z</time>
      </trkpt>
      <trkpt lat="46.78386" lon="-0.68274">
        <ele>156.5</ele>
        <time>2020-10-31T09:15:16Z</time>
      </trkpt>
      <trkpt lat="46.78368" lon="-0.68211">
        <ele>156.4</ele>
        <time>2020-10-31T09:15:22Z</time>
      </trkpt>
      <trkpt lat="46.78365" lon="-0.68201">
        <ele>156.2</ele>
        <time>2020-10-31T09:15:23Z</time>
      </trkpt>
      <trkpt lat="46.78358" lon="-0.68184">
        <ele>155.5</ele>
        <time>2020-10-31T09:15:25Z</time>
      </trkpt>
      <trkpt lat="46.78337" lon="-0.6816">
        <ele>155.6</ele>
        <time>2020-10-31T09:15:29Z</time>
      </trkpt>
      <trkpt lat="46.78327" lon="-0.68149">
        <ele>155.7</ele>
        <time>2020-10-31T09:15:31Z</time>
      </trkpt>
      <trkpt lat="46.78316" lon="-0.68133">
        <ele>155.9</ele>
        <time>2020-10-31T09:15:34Z</time>
      </trkpt>
      <trkpt lat="46.78296" lon="-0.68093">
        <ele>156.3</ele>
        <time>2020-10-31T09:15:40Z</time>
      </trkpt>
      <trkpt lat="46.78292" lon="-0.68087">
        <ele>156.4</ele>
        <time>2020-10-31T09:15:41Z</time>
      </trkpt>
      <trkpt lat="46.78283" lon="-0.68085">
        <ele>156.5</ele>
        <time>2020-10-31T09:15:43Z</time>
      </trkpt>
      <trkpt lat="46.78275" lon="-0.68092">
        <ele>156.7</ele>
        <time>2020-10-31T09:15:45Z</time>
      </trkpt>
      <trkpt lat="46.78271" lon="-0.68097">
        <ele>156.8</ele>
        <time>2020-10-31T09:15:46Z</time>
      </trkpt>
      <trkpt lat="46.78264" lon="-0.68105">
        <ele>157</ele>
        <time>2020-10-31T09:15:48Z</time>
      </trkpt>
      <trkpt lat="46.7826" lon="-0.68106">
        <ele>157</ele>
        <time>2020-10-31T09:15:49Z</time>
      </trkpt>
      <trkpt lat="46.78256" lon="-0.68103">
        <ele>157.1</ele>
        <time>2020-10-31T09:15:50Z</time>
      </trkpt>
      <trkpt lat="46.78249" lon="-0.68094">
        <ele>157.3</ele>
        <time>2020-10-31T09:15:52Z</time>
      </trkpt>
      <trkpt lat="46.78233" lon="-0.68072">
        <ele>157.2</ele>
        <time>2020-10-31T09:15:57Z</time>
      </trkpt>
      <trkpt lat="46.78229" lon="-0.68071">
        <ele>157.1</ele>
        <time>2020-10-31T09:15:59Z</time>
      </trkpt>
      <trkpt lat="46.78228" lon="-0.68071">
        <ele>157.1</ele>
        <time>2020-10-31T09:16:00Z</time>
      </trkpt>
      <trkpt lat="46.7823" lon="-0.68069">
        <ele>157.1</ele>
        <time>2020-10-31T09:16:03Z</time>
      </trkpt>
      <trkpt lat="46.78232" lon="-0.6807">
        <ele>157.1</ele>
        <time>2020-10-31T09:16:04Z</time>
      </trkpt>
      <trkpt lat="46.78234" lon="-0.68071">
        <ele>157.1</ele>
        <time>2020-10-31T09:16:05Z</time>
      </trkpt>
      <trkpt lat="46.78238" lon="-0.68066">
        <ele>157.1</ele>
        <time>2020-10-31T09:16:07Z</time>
      </trkpt>
      <trkpt lat="46.7824" lon="-0.68062">
        <ele>157</ele>
        <time>2020-10-31T09:16:08Z</time>
      </trkpt>
      <trkpt lat="46.78246" lon="-0.68053">
        <ele>157</ele>
        <time>2020-10-31T09:16:10Z</time>
      </trkpt>
      <trkpt lat="46.78248" lon="-0.68048">
        <ele>157</ele>
        <time>2020-10-31T09:16:11Z</time>
      </trkpt>
      <trkpt lat="46.78257" lon="-0.6803">
        <ele>157</ele>
        <time>2020-10-31T09:16:14Z</time>
      </trkpt>
      <trkpt lat="46.78263" lon="-0.68019">
        <ele>157</ele>
        <time>2020-10-31T09:16:16Z</time>
      </trkpt>
      <trkpt lat="46.78266" lon="-0.68013">
        <ele>157</ele>
        <time>2020-10-31T09:16:17Z</time>
      </trkpt>
      <trkpt lat="46.78275" lon="-0.67996">
        <ele>157.1</ele>
        <time>2020-10-31T09:16:20Z</time>
      </trkpt>
      <trkpt lat="46.78277" lon="-0.67982">
        <ele>157.2</ele>
        <time>2020-10-31T09:16:22Z</time>
      </trkpt>
      <trkpt lat="46.78281" lon="-0.67936">
        <ele>157.4</ele>
        <time>2020-10-31T09:16:28Z</time>
      </trkpt>
      <trkpt lat="46.78293" lon="-0.6788">
        <ele>157.8</ele>
        <time>2020-10-31T09:16:35Z</time>
      </trkpt>
      <trkpt lat="46.78303" lon="-0.67824">
        <ele>157.9</ele>
        <time>2020-10-31T09:16:42Z</time>
      </trkpt>
      <trkpt lat="46.78298" lon="-0.6781">
        <ele>158.2</ele>
        <time>2020-10-31T09:16:44Z</time>
      </trkpt>
      <trkpt lat="46.78294" lon="-0.67806">
        <ele>158.4</ele>
        <time>2020-10-31T09:16:45Z</time>
      </trkpt>
      <trkpt lat="46.7829" lon="-0.67803">
        <ele>158.4</ele>
        <time>2020-10-31T09:16:46Z</time>
      </trkpt>
      <trkpt lat="46.78276" lon="-0.67799">
        <ele>158.3</ele>
        <time>2020-10-31T09:16:49Z</time>
      </trkpt>
      <trkpt lat="46.78269" lon="-0.67796">
        <ele>158.1</ele>
        <time>2020-10-31T09:16:51Z</time>
      </trkpt>
      <trkpt lat="46.78268" lon="-0.67793">
        <ele>158</ele>
        <time>2020-10-31T09:16:52Z</time>
      </trkpt>
      <trkpt lat="46.78265" lon="-0.67783">
        <ele>158.1</ele>
        <time>2020-10-31T09:16:54Z</time>
      </trkpt>
      <trkpt lat="46.78266" lon="-0.67771">
        <ele>158.1</ele>
        <time>2020-10-31T09:16:56Z</time>
      </trkpt>
      <trkpt lat="46.78262" lon="-0.67742">
        <ele>158.2</ele>
        <time>2020-10-31T09:17:01Z</time>
      </trkpt>
      <trkpt lat="46.78254" lon="-0.67718">
        <ele>157.9</ele>
        <time>2020-10-31T09:17:06Z</time>
      </trkpt>
      <trkpt lat="46.78247" lon="-0.67708">
        <ele>157.6</ele>
        <time>2020-10-31T09:17:09Z</time>
      </trkpt>
    </trkseg>
  </trk>
</gpx>